[[{"header":{"parameterUnit":"m.s-1","parameterCategory":1,"la1":30.6,"la2":28.766,"lo1":-90.7593,"lo2":-88.6598,"dy":0.0162,"dx":0.0183,"nx":116,"ny":114,"refTime":"2023-02-28T06:00:00:Z","depth":0,"parameterNumber":2,"parameterNumberName":"U-component_of_WINDS"},"data":[0.0,0.0,0.0,0.0,0.0,0.0,0.0,0.0,0.0,0.0,0.0,0.0,0.0,0.0,0.0,0.0,0.0,0.0,0.0,0.0,0.0,0.0,0.0,0.0,0.0,0.0,0.0,0.0,0.0,0.0,0.0,0.0,0.0,0.0,0.0,0.0,0.0,0.0,0.0,0.0,0.0,0.0,0.0,0.0,0.0,0.0,0.0,0.0,0.0,0.0,0.0,0.0,0.0,0.0,0.0,0.0,0.0,0.0,0.0,0.0,0.0,0.0,0.0,0.0,0.0,0.0,0.0,0.0,0.0,0.0,0.0,0.0,0.0,0.0,0.0,0.0,0.0,0.0,0.0,0.0,0.0,0.0,0.0,0.0,0.0,0.0,0.0,0.0,0.0,0.0,0.0,0.0,0.0,0.0,0.0,0.0,0.0,0.0,0.0,0.0,0.0,0.0,0.0,0.0,0.0,0.0,0.0,0.0,0.0,0.0,0.0,0.0,0.0,0.0,0.0,0.0,0.0,0.0,0.0,0.0,0.0,0.0,0.0,0.0,0.0,0.0,0.0,0.0,0.0,0.0,0.0,0.0,0.0,0.0,0.0,0.0,0.0,0.0,0.0,0.0,0.0,0.0,0.0,0.0,0.0,0.0,0.0,0.0,0.0,0.0,0.0,0.0,0.0,0.0,0.0,0.0,0.0,0.0,0.0,0.0,0.0,0.0,0.0,0.0,0.0,0.0,0.0,0.0,0.0,0.0,0.0,0.0,0.0,0.0,0.0,0.0,0.0,0.0,0.0,0.0,0.0,0.0,0.0,0.0,0.0,0.0,0.0,0.0,0.0,0.0,0.0,0.0,0.0,0.0,0.0,0.0,0.0,0.0,0.0,0.0,0.0,0.0,0.0,0.0,0.0,0.0,0.0,0.0,0.0,0.0,0.0,0.0,0.0,0.0,0.0,0.0,0.0,0.0,0.0,0.0,0.0,0.0,0.0,0.0,0.0,0.0,0.0,0.0,0.0,0.0,0.0,0.0,0.0,0.0,0.0,0.0,0.0,0.0,0.0,0.0,0.0,0.0,0.0,0.0,0.0,0.0,0.0,0.0,0.0,0.0,0.0,0.0,0.0,0.0,0.0,0.0,0.0,0.0,0.0,0.0,0.0,0.0,0.0,0.0,0.0,0.0,0.0,0.0,0.0,0.0,0.0,0.0,0.0,0.0,0.0,0.0,0.0,0.0,0.0,0.0,0.0,0.0,0.0,0.0,0.0,0.0,0.0,0.0,0.0,0.0,0.0,0.0,0.0,0.0,0.0,0.0,0.0,0.0,0.0,0.0,0.0,0.0,0.0,0.0,0.0,0.0,0.0,0.0,0.0,0.0,0.0,0.0,0.0,0.0,0.0,0.0,0.0,0.0,0.0,0.0,0.0,0.0,0.0,0.0,0.0,0.0,0.0,0.0,0.0,0.0,0.0,0.0,0.0,0.0,0.0,0.0,0.0,0.0,0.0,0.0,0.0,0.0,0.0,0.0,0.0,0.0,0.0,0.0,0.0,0.0,0.0,0.0,0.0,0.0,0.0,0.0,0.0,0.0,0.0,0.0,0.0,0.0,0.0,0.0,0.0,0.0,0.0,0.0,0.0,0.0,0.0,0.0,0.0,0.0,0.0,0.0,0.0,0.0,0.0,0.0,0.0,0.0,0.0,0.0,0.0,0.0,0.0,0.0,0.0,0.0,0.0,0.0,0.0,0.0,0.0,0.0,0.0,0.0,0.0,0.0,0.0,0.0,0.0,0.0,0.0,0.0,0.0,0.0,0.0,0.0,0.0,0.0,0.0,0.0,0.0,0.0,0.0,0.0,0.0,0.0,0.0,0.0,0.0,0.0,0.0,0.0,0.0,0.0,0.0,0.0,0.0,0.0,0.0,0.0,0.0,0.0,0.0,0.0,0.0,0.0,0.0,0.0,0.0,0.0,0.0,0.0,0.0,0.0,0.0,0.0,0.0,0.0,0.0,0.0,0.0,0.0,0.0,0.0,0.0,0.0,0.0,0.0,0.0,0.0,0.0,0.0,0.0,0.0,0.0,0.0,0.0,0.0,0.0,0.0,0.0,0.0,0.0,0.0,0.0,0.0,0.0,0.0,0.0,0.0,0.0,0.0,0.0,0.0,0.0,0.0,0.0,0.0,0.0,0.0,0.0,0.0,0.0,0.0,0.0,0.0,0.0,0.0,0.0,0.0,0.0,0.0,0.0,0.0,0.0,0.0,0.0,0.0,0.0,0.0,0.0,0.0,0.0,0.0,0.0,0.0,0.0,0.0,0.0,0.0,0.0,0.0,0.0,0.0,0.0,0.0,0.0,0.0,0.0,0.0,0.0,0.0,0.0,0.0,0.0,0.0,0.0,0.0,0.0,0.0,0.0,0.0,0.0,0.0,0.0,0.0,0.0,0.0,0.0,0.0,0.0,0.0,0.0,0.0,0.0,0.0,0.0,0.0,0.0,0.0,0.0,0.0,0.0,0.0,0.0,0.0,0.0,0.0,0.0,0.0,0.0,0.0,0.0,0.0,0.0,0.0,0.0,0.0,0.0,0.0,0.0,0.0,0.0,0.0,0.0,0.0,0.0,0.0,0.0,0.0,0.0,0.0,0.0,0.0,0.0,0.0,0.0,0.0,0.0,0.0,0.0,0.0,0.0,0.0,0.0,0.0,0.0,0.0,0.0,0.0,0.0,0.0,0.0,0.0,0.0,0.0,0.0,0.0,0.0,0.0,0.0,0.0,0.0,0.0,0.0,0.0,0.0,0.0,0.0,0.0,0.0,0.0,0.0,0.0,0.0,0.0,0.0,0.0,0.0,0.0,0.0,0.0,0.0,0.0,0.0,0.0,0.0,0.0,0.0,0.0,0.0,0.0,0.0,0.0,0.0,0.0,0.0,0.0,0.0,0.0,0.0,0.0,0.0,0.0,0.0,0.0,0.0,0.0,0.0,0.0,0.0,0.0,0.0,0.0,0.0,0.0,0.0,0.0,0.0,0.0,0.0,0.0,0.0,0.0,0.0,0.0,0.0,0.0,0.0,0.0,0.0,0.0,0.0,0.0,0.0,0.0,0.0,0.0,0.0,0.0,0.0,0.0,0.0,0.0,0.0,0.0,0.0,0.0,0.0,0.0,0.0,0.0,0.0,0.0,0.0,0.0,0.0,0.0,0.0,0.0,0.0,0.0,0.0,0.0,0.0,0.0,0.0,0.0,0.0,0.0,0.0,0.0,0.0,0.0,0.0,0.0,0.0,0.0,0.0,0.0,0.0,0.0,0.0,0.0,0.0,0.0,0.0,0.0,0.0,0.0,0.0,0.0,0.0,0.0,0.0,0.0,0.0,0.0,0.0,0.0,0.0,0.0,0.0,0.0,0.0,0.0,0.0,0.0,0.0,0.0,0.0,0.0,0.0,0.0,0.0,0.0,0.0,0.0,0.0,0.0,0.0,0.0,0.0,0.0,0.0,0.0,0.0,0.0,0.0,0.0,0.0,0.0,0.0,0.0,0.0,0.0,0.0,0.0,0.0,0.0,0.0,0.0,0.0,0.0,0.0,0.0,0.0,0.0,0.0,0.0,0.0,0.0,0.0,0.0,0.0,0.0,0.0,0.0,0.0,0.0,0.0,0.0,0.0,0.0,0.0,0.0,0.0,0.0,0.0,0.0,0.0,0.0,0.0,0.0,0.0,0.0,0.0,0.0,0.0,0.0,0.0,0.0,0.0,0.0,0.0,0.0,0.0,0.0,0.0,0.0,0.0,0.0,0.0,0.0,0.0,0.0,0.0,0.0,0.0,0.0,0.0,0.0,0.0,0.0,0.0,0.0,0.0,0.0,0.0,0.0,0.0,0.0,0.0,0.0,0.0,0.0,0.0,0.0,0.0,0.0,0.0,0.0,0.0,0.0,0.0,0.0,0.0,0.0,0.0,0.0,0.0,0.0,0.0,0.0,0.0,0.0,0.0,0.0,0.0,0.0,0.0,0.0,0.0,0.0,0.0,0.0,0.0,0.0,0.0,0.0,0.0,0.0,0.0,0.0,0.0,0.0,0.0,0.0,0.0,0.0,0.0,0.0,0.0,0.0,0.0,0.0,0.0,0.0,0.0,0.0,0.0,0.0,0.0,0.0,0.0,0.0,0.0,0.0,0.0,0.0,0.0,0.0,0.0,0.0,0.0,0.0,0.0,0.0,0.0,0.0,0.0,0.0,0.0,0.0,0.0,0.0,0.0,0.0,0.0,0.0,0.0,0.0,0.0,0.0,0.0,0.0,0.0,0.0,0.0,0.0,0.0,0.0,0.0,0.0,0.0,0.0,0.0,0.0,0.0,0.0,0.0,0.0,0.0,0.0,0.0,0.0,0.0,0.0,0.0,0.0,0.0,0.0,0.0,0.0,0.0,0.0,0.0,0.0,0.0,0.0,0.0,0.0,0.0,0.0,0.0,0.0,0.0,0.0,0.0,0.0,0.0,0.0,0.0,0.0,0.0,0.0,0.0,0.0,0.0,0.0,0.0,0.0,0.0,0.0,0.0,0.0,0.0,0.0,0.0,0.0,0.0,0.0,0.0,0.0,0.0,0.0,0.0,0.0,0.0,0.0,0.0,0.0,0.0,0.0,0.0,0.0,0.0,0.0,0.0,0.0,0.0,0.0,0.0,0.0,0.0,0.0,0.0,0.0,0.0,0.0,0.0,0.0,0.0,0.0,0.0,0.0,0.0,0.0,0.0,0.0,0.0,0.0,0.0,0.0,0.0,0.0,0.0,0.0,0.0,0.0,0.0,0.0,0.0,0.0,0.0,0.0,0.0,0.0,0.0,0.0,0.0,0.0,0.0,0.0,0.0,0.0,0.0,0.0,0.0,0.0,0.0,0.0,0.0,0.0,0.0,0.0,0.0,0.0,0.0,0.0,0.0,0.0,0.0,0.0,0.0,0.0,0.0,0.0,0.0,0.0,0.0,0.0,0.0,0.0,0.0,0.0,0.0,0.0,0.0,0.0,0.0,0.0,0.0,0.0,0.0,0.0,0.0,0.0,0.0,0.0,0.0,0.0,0.0,0.0,0.0,0.0,0.0,0.0,0.0,0.0,0.0,0.0,0.0,0.0,0.0,0.0,0.0,0.0,0.0,0.0,0.0,0.0,0.0,0.0,0.0,0.0,0.0,0.0,0.0,0.0,0.0,0.0,0.0,0.0,0.0,0.0,0.0,0.0,0.0,0.0,0.0,0.0,0.0,0.0,0.0,0.0,0.0,0.0,0.0,0.0,0.0,0.0,0.0,0.0,0.0,0.0,0.0,0.0,0.0,0.0,0.0,0.0,0.0,0.0,0.0,0.0,0.0,0.0,0.0,0.0,0.0,0.0,0.0,0.0,0.0,0.0,0.0,0.0,0.0,0.0,0.0,0.0,0.0,0.0,0.0,0.0,0.0,0.0,0.0,0.0,0.0,0.0,0.0,0.0,0.0,0.0,0.0,0.0,0.0,0.0,0.0,0.0,0.0,0.0,0.0,0.0,0.0,0.0,0.0,0.0,0.0,0.0,0.0,0.0,0.0,0.0,0.0,0.0,0.0,0.0,0.0,0.0,0.0,0.0,0.0,0.0,0.0,0.0,0.0,0.0,0.0,0.0,0.0,0.0,0.0,0.0,0.0,0.0,0.0,0.0,0.0,0.0,0.0,0.0,0.0,0.0,0.0,0.0,0.0,0.0,0.0,0.0,0.0,0.0,0.0,0.0,0.0,0.0,0.0,0.0,0.0,0.0,0.0,0.0,0.0,0.0,0.0,0.0,0.0,0.0,0.0,0.0,0.0,0.0,0.0,0.0,0.0,0.0,0.0,0.0,0.0,0.0,0.0,0.0,0.0,0.0,0.0,0.0,0.0,0.0,0.0,0.0,0.0,0.0,0.0,0.0,0.0,0.0,0.0,0.0,0.0,0.0,0.0,0.0,0.0,0.0,0.0,0.0,0.0,0.0,0.0,0.0,0.0,0.0,0.0,0.0,0.0,0.0,0.0,0.0,0.0,0.0,0.0,0.0,0.0,0.0,0.0,0.0,0.0,0.0,0.0,0.0,0.0,0.0,0.0,0.0,-1.9879,-2.008,0.0,0.0,0.0,0.0,0.0,0.0,0.0,0.0,0.0,0.0,0.0,0.0,0.0,0.0,0.0,0.0,0.0,0.0,0.0,0.0,0.0,0.0,0.0,0.0,0.0,0.0,0.0,0.0,0.0,0.0,0.0,0.0,0.0,0.0,0.0,0.0,0.0,0.0,0.0,0.0,0.0,0.0,0.0,0.0,0.0,0.0,0.0,0.0,0.0,0.0,0.0,0.0,0.0,0.0,0.0,0.0,0.0,0.0,0.0,0.0,0.0,0.0,0.0,0.0,0.0,0.0,0.0,0.0,0.0,0.0,0.0,0.0,0.0,0.0,0.0,0.0,0.0,0.0,0.0,0.0,0.0,0.0,0.0,0.0,0.0,0.0,0.0,0.0,0.0,0.0,0.0,0.0,0.0,0.0,0.0,0.0,0.0,0.0,0.0,0.0,0.0,0.0,0.0,0.0,0.0,0.0,0.0,0.0,0.0,0.0,0.0,0.0,0.0,0.0,-1.9688,-2.0735,0.0,0.0,0.0,0.0,0.0,0.0,0.0,0.0,0.0,0.0,0.0,0.0,0.0,0.0,0.0,0.0,0.0,0.0,0.0,0.0,0.0,0.0,0.0,0.0,0.0,0.0,0.0,0.0,0.0,0.0,0.0,0.0,0.0,0.0,0.0,0.0,0.0,0.0,0.0,0.0,0.0,0.0,0.0,0.0,0.0,0.0,0.0,0.0,0.0,0.0,0.0,0.0,0.0,0.0,0.0,0.0,0.0,0.0,0.0,0.0,0.0,0.0,0.0,0.0,0.0,0.0,0.0,0.0,0.0,0.0,0.0,0.0,0.0,0.0,0.0,0.0,0.0,0.0,0.0,0.0,0.0,0.0,0.0,0.0,0.0,0.0,0.0,0.0,0.0,0.0,0.0,0.0,0.0,0.0,0.0,0.0,0.0,0.0,0.0,0.0,0.0,0.0,0.0,0.0,0.0,0.0,0.0,0.0,-1.5269,-1.5298,-1.5298,-1.5336,-1.5452,-1.5874,-1.9007,-2.0566,-2.0656,-2.0246,0.0,0.0,0.0,0.0,0.0,0.0,0.0,0.0,0.0,0.0,0.0,0.0,0.0,0.0,0.0,0.0,0.0,0.0,0.0,0.0,0.0,0.0,0.0,0.0,0.0,0.0,0.0,0.0,0.0,0.0,0.0,0.0,0.0,0.0,0.0,0.0,0.0,0.0,0.7926,0.2551,-0.0,-0.0,-0.0,0.0,0.0,0.0,0.0,0.0,0.0,0.0,0.0,0.0,0.0,0.0,0.0,0.0,0.0,0.0,0.0,0.0,0.0,0.0,0.0,0.0,0.0,0.0,0.0,0.0,0.0,0.0,0.0,0.0,0.0,0.0,0.0,0.0,0.0,0.0,0.0,0.0,0.0,0.0,0.0,0.0,0.0,0.0,-1.0294,-1.0294,0.0,0.0,0.0,0.0,0.0,0.0,0.0,0.0,0.0,0.0,0.0,0.0,0.0,-1.2726,-1.1344,-1.2929,-1.3811,-1.3703,-1.4028,-1.4181,-1.419,-1.4492,-1.4578,-1.4736,-1.6808,0.0,-1.7078,-1.7214,0.0,0.0,0.0,0.0,0.0,0.0,0.0,0.0,0.0,0.0,0.0,0.0,0.0,0.0,0.0,0.0,0.0,0.0,0.0,0.0,0.0,0.0,0.0,0.0,0.0,0.0,0.0,0.0,0.0,0.0,0.0,0.0,0.0,0.0,0.0,0.0,0.6867,0.6857,0.787,0.2549,-0.0,-0.0,-0.0,-0.0,-0.0,-0.0,0.0,0.0,0.0,0.0,0.0,0.0,0.0,0.0,0.0,0.0,0.0,0.0,0.0,0.0,0.0,0.0,0.0,0.0,0.0,0.0,0.0,0.0,0.0,0.0,0.0,0.0,0.0,0.0,0.0,0.0,0.0,0.0,0.0,0.0,0.0,0.0,0.0,0.0,0.0,-1.0046,-1.0046,-1.0046,-0.9992,-0.9917,0.0,0.0,0.0,0.0,0.0,0.0,0.0,0.0,0.0,-1.1516,-1.159,-1.1322,-1.0846,-1.1581,-1.206,-1.2149,-1.2429,-1.2497,-1.2365,-1.267,-1.2745,-1.2745,-1.3689,-1.3924,-1.3924,-1.6082,-1.7251,-1.778,0.0,0.0,0.0,0.0,-2.0997,-2.1183,0.0,0.0,0.0,0.0,0.0,0.0,0.0,0.0,0.0,0.0,0.0,0.0,0.0,0.0,0.0,0.7957,0.0,0.0,0.0,0.0,0.0,0.0,0.0,0.0,0.0,0.0,0.0,0.0,0.8163,0.746,0.5809,0.1851,-0.0,-0.0,-0.0,-0.0,-0.0,-0.0,-0.0,0.0,0.0,0.0,0.0,0.0,0.0,0.0,0.0,0.0,0.0,0.0,0.0,0.0,0.0,0.0,0.0,0.0,0.0,0.0,0.0,0.0,0.0,0.0,0.0,0.0,0.0,0.0,0.0,0.0,0.0,0.0,0.0,0.0,0.0,0.0,0.0,0.0,0.0,-1.008,-1.0093,-1.0053,-1.0046,-0.9992,0.0,0.0,0.0,0.0,0.0,0.0,-1.0392,-1.0493,-1.0568,-1.0609,-1.0643,-1.0772,-1.1002,-1.1002,-1.1056,-1.1165,-1.1206,-1.1219,-1.1226,-1.1382,-1.145,-1.1457,-1.1572,-1.1619,-1.1756,-1.4574,-1.5839,-1.6263,-1.633,-1.649,-1.7066,-1.8736,-1.9357,-1.9674,0.0,0.0,0.0,0.0,0.0,0.0,0.0,0.0,0.0,0.0,0.0,0.0,0.0,0.0,0.7658,0.7807,0.7828,0.7896,0.0,0.0,0.0,0.0,0.0,0.0,0.0,0.0,0.0,0.8022,0.8626,0.5912,0.0353,0.0118,-0.0,-0.0,-0.0,-0.0,-0.0,-0.0,-0.0,-0.0,0.0,0.0,0.0,0.0,0.0,0.0,0.0,0.0,0.0,0.0,0.0,0.0,0.0,0.0,0.0,0.0,0.0,0.0,0.0,0.0,0.0,0.0,0.0,0.0,0.0,0.0,0.0,0.0,0.0,0.0,0.0,0.0,0.0,0.0,0.0,0.0,0.0,0.0,0.0,-1.0066,-1.0046,0.0,0.0,0.0,0.0,-1.0249,-1.0148,-1.0256,-1.0677,-1.0704,-1.0772,-1.0921,-1.1056,-1.1138,-1.1151,-1.1151,-1.1158,-1.1165,-1.1307,-1.1382,-1.1382,-1.1538,-1.1606,-1.1606,-1.1613,-1.1619,-1.1619,-1.1763,-1.2888,-1.4315,-1.4635,-1.5849,-1.7325,-1.789,-1.8188,-1.8218,0.0,0.0,0.0,0.0,0.0,0.0,0.0,0.0,0.0,0.0,0.0,0.0,0.0,0.7563,0.7699,0.7936,0.7957,0.8024,0.818,0.0,0.0,0.0,0.0,0.0,0.0,0.0,0.6353,0.2846,0.3022,0.2043,-0.0,-0.0,-0.0,-0.0,-0.0,-0.0,-0.0,-0.0,-0.0,-0.0,-0.0,-0.0,0.0,0.0,0.0,0.0,0.0,0.0,0.0,0.0,0.0,0.0,0.0,0.0,0.0,0.0,0.0,0.0,0.0,0.0,0.0,0.0,0.0,0.0,0.0,0.0,0.0,0.0,0.0,0.0,0.0,0.0,0.0,0.0,0.0,0.0,0.0,0.0,0.0,-1.008,-1.0215,0.0,-1.0127,-1.0202,-1.0297,-1.0412,-1.0548,-1.0656,-1.0717,-1.0812,-1.0846,-1.0806,-1.0853,-1.0928,-1.1023,-1.1023,-1.107,-1.1165,-1.1219,-1.1246,-1.1246,-1.1402,-1.147,-1.1477,-1.1579,-1.1619,-1.1619,-1.1619,-1.1956,-1.2627,-1.2941,-1.3443,-1.404,-1.5624,-1.612,-1.6425,0.0,0.0,0.0,0.0,0.0,0.0,0.0,0.0,0.0,0.0,0.0,0.7489,0.759,0.7597,0.7699,0.7943,0.7916,0.7977,0.818,0.0,0.0,0.0,0.0,0.0,0.0,0.8005,0.5418,-0.0,-0.0,-0.0,-0.0,-0.0,-0.0,-0.0,-0.0,-0.0,-0.0,-0.0,-0.0,-0.0,-0.0,-0.0,-0.0,0.0,0.0,0.0,0.0,0.0,0.0,0.0,0.0,0.0,0.0,0.0,0.0,0.0,0.0,0.0,0.0,0.0,0.0,0.0,0.0,0.0,0.0,0.0,0.0,0.0,0.0,0.0,0.0,0.0,0.0,0.0,0.0,0.0,0.0,-1.0202,-1.0324,-1.008,-1.031,-1.0432,-1.0297,-1.0365,-1.046,-1.0561,-1.0711,-1.0799,-1.0799,-1.0846,-1.0826,-1.0724,-1.0772,-1.0846,-1.0948,-1.0995,-1.107,-1.1165,-1.1212,-1.124,-1.1246,-1.1396,-1.147,-1.147,-1.1572,-1.1619,-1.1619,-1.1619,-1.1674,-1.1775,-1.1925,-1.2013,-1.221,-1.3527,-1.412,-1.4268,0.0,0.0,0.0,0.0,0.0,0.0,0.0,0.0,0.0,0.0,0.7509,0.7604,0.7611,0.7604,0.7658,0.7801,0.7685,0.7726,0.8024,0.8038,0.0,0.0,0.0,0.0,0.8046,0.7785,0.5154,-0.0,-0.0,-0.0,-0.0,-0.0,-0.0,-0.0,-0.0,-0.0,-0.0,-0.0,-0.0,-0.0,-0.0,-0.0,-0.0,0.0,0.0,0.0,0.0,0.0,0.0,0.0,0.0,0.0,0.0,0.0,0.0,0.0,0.0,0.0,0.0,0.0,0.0,0.0,0.0,0.0,0.0,0.0,0.0,0.0,0.0,0.0,0.0,0.0,0.0,0.0,0.0,0.0,-1.0066,-1.0181,-1.0229,-1.0073,-1.0317,-1.0446,-1.031,-1.0297,-1.0412,-1.0697,-1.0582,-1.0629,-1.0928,-1.0806,-1.0724,-1.0724,-1.0873,-1.0955,-1.0962,-1.1097,-1.1172,-1.1179,-1.1328,-1.1396,-1.1402,-1.1552,-1.1619,-1.1619,-1.1619,-1.1619,-1.1619,-1.1626,-1.1626,-1.164,-1.1775,-1.1918,-1.2054,-1.2054,-1.206,-1.2081,0.0,0.0,0.0,0.0,0.0,0.0,0.0,0.0,0.0,0.0,0.7396,0.7563,0.789,0.7706,0.7502,0.7349,0.7528,0.776,0.7945,0.0,0.0,0.0,0.0,0.0,0.7979,0.4223,0.1431,-0.0,-0.0,-0.0,-0.0,-0.0,-0.0,-0.0,-0.0,-0.0,-0.0,-0.0,-0.0,-0.0,-0.0,-0.0,-0.0,0.0,0.0,0.0,0.0,0.0,0.0,0.0,0.0,0.0,0.0,0.0,0.0,0.0,0.0,0.0,0.0,0.0,0.0,0.0,0.0,0.0,0.0,0.0,0.0,0.0,0.0,0.0,0.0,0.0,0.0,0.0,-1.0059,-1.0059,-0.9903,-1.0202,-1.0378,-1.0236,-1.048,-1.0643,-1.0602,-1.0602,-1.0629,-1.0717,-1.0683,-1.0697,-1.0778,-1.0846,-1.0887,-1.0887,-1.1029,-1.1158,-1.1267,-1.1307,-1.1382,-1.1497,-1.1538,-1.1558,-1.1558,-1.1599,-1.1619,-1.1619,-1.1619,-1.1619,-1.1626,-1.1728,-1.1775,-1.1769,-1.1701,-1.1769,-1.1898,-1.1898,-1.1965,-1.2366,0.0,0.0,0.0,0.0,0.0,0.0,0.0,0.0,0.0,0.0,0.6372,0.5942,0.6268,0.6219,0.593,0.5645,0.5853,0.6074,0.63,0.0,0.0,0.0,0.0,0.6907,0.4747,0.1645,-0.0,-0.0,-0.0,-0.0,-0.0,-0.0,-0.0,-0.0,-0.0,-0.0,-0.0,-0.0,-0.0,-0.0,-0.0,-0.0,-0.0,-0.0,-0.0,-0.0,-0.0,-0.0,-0.0,-0.0,0.0,0.0,0.0,0.0,0.0,0.0,0.0,0.0,0.0,0.0,0.0,0.0,0.0,0.0,0.0,0.0,0.0,0.0,0.0,0.0,0.0,0.0,0.0,0.0,-1.0154,-1.0181,-1.0032,-1.029,-1.046,-1.0378,-1.0575,-1.0717,-1.0717,-1.0717,-1.0717,-1.0717,-1.0717,-1.0751,-1.0812,-1.09,-1.0975,-1.1036,-1.1179,-1.1301,-1.1389,-1.1457,-1.1531,-1.1619,-1.1619,-1.1653,-1.1708,-1.1708,-1.1742,-1.1803,-1.1803,-1.1803,-1.1809,-1.1891,-1.1925,-1.1918,0.0,0.0,0.0,0.0,-1.2026,-1.2306,0.0,0.0,0.0,0.0,0.0,0.0,0.0,0.0,0.0,0.0,0.0,0.3926,0.3622,0.3525,0.3448,0.3213,0.3164,0.3276,0.0,0.0,0.0,0.7949,0.7434,0.4843,0.011,-0.0,-0.0,-0.0,-0.0,-0.0,-0.0,-0.0,-0.0,-0.0,-0.0,-0.0,-0.0,-0.0,-0.0,-0.0,-0.0,-0.0,-0.0,-0.0,-0.0,-0.0,-0.0,-0.0,-0.0,-0.0,0.0,0.0,0.0,0.0,0.0,0.0,0.0,0.0,0.0,0.0,0.0,0.0,0.0,0.0,0.0,0.0,0.0,0.0,0.0,0.0,0.0,0.0,0.0,0.0,-1.031,-1.0446,-1.0324,-1.0426,-1.0514,-1.0493,-1.0629,-1.0717,-1.0717,-1.0717,-1.0717,-1.0717,-1.0738,-1.0806,-1.0941,-1.0982,0.0,0.0,0.0,-1.1416,-1.1416,-1.1552,-1.1626,-1.1647,-1.1647,-1.1721,-1.1857,-1.1857,-1.1932,-1.206,-1.206,-1.206,-1.206,-1.2081,-1.2094,-1.2108,-1.2094,-1.2088,-1.2088,-1.2108,-1.2196,-1.2318,0.0,0.0,0.0,0.0,0.0,0.0,0.0,0.0,0.0,0.6862,0.6703,0.4936,0.1199,0.0791,0.0791,0.0705,0.0694,0.0697,0.0,0.0,0.7949,0.7992,0.3834,0.1075,-0.0,-0.0,-0.0,-0.0,-0.0,-0.0,-0.0,-0.0,-0.0,-0.0,-0.0,-0.0,-0.0,-0.0,-0.0,-0.0,-0.0,-0.0,-0.0,-0.0,-0.0,-0.0,-0.0,-0.0,-0.0,-0.0,-0.0,-0.0,-0.0,0.0,0.0,0.0,0.0,0.0,0.0,0.0,0.0,0.0,0.0,0.0,0.0,0.0,0.0,0.0,0.0,0.0,0.0,0.0,0.0,-1.0222,-1.0378,-1.048,-1.0453,-1.0582,-1.0629,-1.0507,-1.0629,-1.0717,-1.0717,-1.0717,-1.0717,-1.0717,-1.0833,-1.0914,-1.0948,-1.1172,-1.1321,-1.1348,-1.1497,-1.1572,-1.1572,-1.1606,-1.1681,-1.1789,-1.1789,0.0,-1.202,-1.202,-1.2033,-1.206,-1.206,-1.206,-1.2074,-1.2196,-1.2311,-1.2406,-1.2291,-1.2244,-1.2257,-1.2372,-1.2433,-1.2461,0.0,0.0,0.0,0.0,0.0,0.0,0.0,0.0,0.0,0.0,0.3574,0.2661,0.0293,-0.0,-0.0,-0.0,-0.0,0.0,0.0,0.251,0.4047,0.4044,0.1422,-0.0,-0.0,-0.0,-0.0,-0.0,-0.0,-0.0,-0.0,-0.0,-0.0,-0.0,-0.0,-0.0,-0.0,-0.0,-0.0,-0.0,-0.0,-0.0,-0.0,-0.0,-0.0,-0.0,-0.0,-0.0,-0.0,-0.0,-0.0,-0.0,-0.0,-0.0,-0.0,0.0,0.0,0.0,0.0,0.0,0.0,0.0,0.0,0.0,0.0,0.0,0.0,0.0,0.0,-0.9716,-0.7949,0.0,-1.0223,-1.0283,-1.0417,-1.0649,-1.0649,-1.0697,-1.0704,-1.0616,-1.067,-1.0717,-1.0717,-1.0717,-1.0751,-1.0826,-1.0907,-1.1016,-1.1165,-1.1314,-1.1423,-1.1504,-1.1579,-1.1619,-1.1619,-1.1687,-1.1762,-1.183,-1.1911,-1.2026,-1.2176,-1.2176,-1.2216,-1.2284,-1.2284,-1.2284,-1.2284,-1.2366,-1.244,-1.2494,-1.2427,-1.2393,-1.2406,-1.2474,-1.2501,-1.2501,0.0,0.0,0.0,0.0,0.0,0.0,0.0,0.0,0.0,0.0,-0.0,-0.0,-0.0,-0.0,-0.0,0.0,0.0,0.0,0.0,-0.0,-0.0,-0.0,-0.0,-0.0,-0.0,-0.0,-0.0,-0.0,-0.0,-0.0,-0.0,-0.0,-0.0,-0.0,-0.0,-0.0,-0.0,-0.0,-0.0,-0.0,-0.0,-0.0,-0.0,-0.0,-0.0,-0.0,-0.0,-0.0,-0.0,-0.0,-0.0,-0.0,-0.0,-0.0,-0.0,-0.0,-0.0,0.0,0.0,0.0,0.0,0.0,0.0,0.0,0.0,0.0,-0.8724,-0.9221,-0.989,-0.9227,-0.5721,-0.6828,-0.8486,-0.9209,-0.9558,-0.9612,-0.9612,-0.9704,-0.994,-1.0605,-1.0724,-1.0717,-1.0717,-1.0744,-1.0812,-1.0941,-1.1002,-1.1138,-1.1382,-1.1416,-1.1491,-1.1613,-1.1647,-1.166,-1.166,-1.1803,-1.1891,-1.1918,-1.2047,-1.2182,-1.2332,-1.2332,-1.2393,-1.2501,-1.2501,-1.2501,-1.2501,-1.2535,-1.2549,-1.2549,-1.2576,-1.2589,-1.2589,-1.2556,-1.2562,-1.2589,0.0,0.0,0.0,0.0,0.0,0.0,0.0,0.0,0.0,0.0,0.0,0.0,0.0,0.0,0.0,0.0,0.0,0.0,-0.0,-0.0,-0.0,-0.0,-0.0,-0.0,-0.0,-0.0,-0.0,-0.0,-0.0,-0.0,-0.0,-0.0,-0.0,-0.0,-0.0,-0.0,-0.0,-0.0,-0.0,-0.0,-0.0,-0.0,-0.0,-0.0,-0.0,-0.0,-0.0,-0.0,-0.0,-0.0,-0.0,-0.0,-0.0,-0.0,-0.0,-0.0,0.0,-0.0,-0.0,-0.0,-0.0,-0.0,-0.0,-0.0,0.0,0.0,-0.2099,-0.5325,-0.8503,-0.9575,-0.596,-0.31,-0.2158,-0.5388,-0.5913,-0.6013,-0.6013,-0.5949,-0.7116,-1.0385,-1.0751,-1.0717,-1.0717,-1.0846,-1.0928,-1.0948,-1.1192,-1.1355,-1.1389,-1.1518,-1.1599,-1.1619,-1.1742,-1.1809,-1.1809,-1.1959,-1.2101,-1.2237,-1.2257,-1.2338,-1.2481,-1.2481,-1.2488,-1.2501,-1.2501,-1.2501,-1.2515,-1.2651,-1.2705,-1.2718,-1.2854,-1.2908,-1.2895,-1.2752,-1.2793,-1.2908,0.0,0.0,0.0,0.0,0.0,0.0,0.0,0.0,0.0,0.0,0.0,0.0,0.0,0.0,0.0,0.0,0.0,0.0,-0.0,-0.0,-0.0,-0.0,-0.0,-0.0,-0.0,-0.0,-0.0,-0.0,-0.0,-0.0,-0.0,-0.0,-0.0,-0.0,-0.0,-0.0,-0.0,-0.0,-0.0,-0.0,-0.0,-0.0,-0.0,-0.0,-0.0,-0.0,-0.0,-0.0,0.0,0.0,-0.0,-0.0,-0.0,-0.0,-0.0,-0.0,-0.0,0.0,-0.0,-0.0,-0.0,-0.0,-0.0,-0.0,-0.0,-0.0,-0.0396,-0.2009,-0.3503,-0.4067,-0.2464,-0.0962,-0.0553,-0.1955,-0.2229,-0.2214,-0.2196,-0.4093,-0.6652,-1.029,-0.8879,-0.8451,-1.0498,-1.0772,-1.0893,-1.1118,-1.1301,-1.145,-1.1538,-1.1592,-1.1653,-1.1742,-1.1796,-1.187,-1.1965,-1.2115,-1.223,-1.2291,-1.2372,-1.244,-1.2501,-1.2501,-1.2501,-1.2508,-1.2596,-1.2637,-1.2644,-1.28,-1.2868,-1.2868,-1.2935,-1.301,-1.3064,-1.2915,-1.2908,-1.2963,0.0,0.0,0.0,0.0,0.0,0.0,0.0,0.0,0.0,0.0,0.0,0.0,0.0,0.0,0.0,0.0,0.0,0.0,0.0,-0.0,-0.0,-0.0,-0.0,-0.0,-0.0,-0.0,-0.0,-0.0,-0.0,-0.0,-0.0,-0.0,-0.0,-0.0,-0.0,-0.0,-0.0,-0.0,-0.0,-0.0,-0.0,-0.0,-0.0,-0.0,-0.0,-0.0,-0.0,-0.0,0.0,0.0,-0.0,-0.0,-0.0,-0.0,-0.0,-0.0,-0.0,-0.0,-0.0,-0.0,-0.0,-0.0,-0.0,-0.0,-0.0,-0.0,-0.0,-0.0,-0.0,-0.0,-0.0,-0.0,-0.0,-0.0,-0.0,-0.0,-0.0,-0.2215,-0.4812,-0.7477,-0.6385,-0.6381,-0.8957,-0.92,-0.9314,-0.9579,-0.9688,-1.0376,-1.1516,-1.1647,-1.1694,-1.1843,-1.1877,-1.1972,-1.2121,-1.2271,-1.2345,-1.2352,-1.2454,-1.2501,-1.2501,-1.2549,-1.2562,-1.2576,-1.2725,-1.2793,-1.2807,-1.2956,-1.3017,-1.3024,-1.3064,-1.3146,-1.322,-1.3119,-1.3085,-1.3085,0.0,0.0,0.0,0.0,0.0,0.0,0.0,0.0,0.0,0.0,0.0,0.0,0.0,0.0,0.0,0.0,0.0,0.0,0.0,-0.0,-0.0,-0.0,-0.0,-0.0,-0.0,-0.0,-0.0,-0.0,-0.0,-0.0,-0.0,-0.0,-0.0,-0.0,-0.0,-0.0,-0.0,-0.0,-0.0,-0.0,-0.0,-0.0,-0.0,-0.0,-0.0,-0.0,-0.0,0.0,0.0,0.0,-0.0,-0.0,-0.0,-0.0,0.0,-0.0,-0.0,0.0,0.0,0.0,-0.0,-0.0,-0.0,-0.0,-0.0,-0.0,-0.0,-0.0,-0.0,-0.0,-0.0,-0.0,-0.0,-0.0,-0.0,-0.0,-0.0,-0.0141,-0.014,-0.0275,-0.3338,-0.5447,-0.5515,-0.5549,-0.5611,-0.5544,-0.5764,-0.7562,-1.1405,-1.1674,-1.1721,-1.1877,-1.1993,-1.2128,-1.2284,-1.2427,-1.2494,-1.2494,-1.2501,-1.2501,-1.2508,-1.2657,-1.2725,-1.2732,-1.2888,-1.2956,-1.2963,-1.3105,-1.3166,-1.318,-1.3329,-1.339,-1.3397,-1.339,-1.339,-1.339,0.0,0.0,0.0,0.0,0.0,0.0,0.0,0.0,0.0,0.0,0.0,0.0,0.0,0.0,0.0,0.0,0.0,0.0,0.0,-0.0,-0.0,-0.0,-0.0,-0.0,-0.0,-0.0,-0.0,-0.0,-0.0,-0.0,-0.0,-0.0,-0.0,-0.0,-0.0,-0.0,-0.0,-0.0,-0.0,-0.0,-0.0,-0.0,-0.0,-0.0,-0.0,-0.0,0.0,0.0,0.0,0.0,0.0,0.0,-0.0,0.0,0.0,-0.0,0.0,0.0,0.0,0.0,-0.0,-0.0,-0.0,-0.0,-0.0,-0.0,-0.0,-0.0,-0.0,-0.0,-0.0,-0.0,-0.0,-0.0,-0.0,-0.0,-0.0,-0.0,-0.0,-0.0,-0.1128,-0.1845,-0.1837,-0.1841,-0.1848,-0.1855,-0.1875,-0.2468,-0.3778,-0.7314,-1.0064,-1.1864,-1.2149,-1.2284,-1.2427,-1.2474,-1.2501,-1.2501,-1.2603,-1.2651,-1.2657,-1.2813,-1.2881,-1.2895,-1.3037,-1.3105,-1.3112,-1.3261,-1.3322,-1.3329,-1.3383,-1.3403,-1.3403,-1.3403,-1.3403,-1.3403,0.0,0.0,0.0,0.0,0.0,0.0,0.0,0.0,0.0,0.0,0.0,0.0,0.0,0.0,0.0,0.0,0.0,0.0,0.0,0.0,-0.0,-0.0,-0.0,-0.0,-0.0,-0.0,-0.0,-0.0,-0.0,-0.0,-0.0,-0.0,-0.0,-0.0,-0.0,-0.0,-0.0,-0.0,-0.0,-0.0,-0.0,-0.0,-0.0,-0.0,-0.0,0.0,0.0,0.0,0.0,0.0,0.0,0.0,0.0,0.0,0.0,0.0,0.0,0.0,0.0,-0.0,-0.0,-0.0,-0.0,-0.0,-0.0,-0.0,-0.0,-0.0,-0.0,-0.0,-0.0,-0.0,-0.0,-0.0,-0.0,-0.0,-0.0,-0.0,-0.0,-0.0,-0.0,-0.0,-0.0,-0.0,-0.0,-0.0,-0.0,-0.0,-0.0,-0.4711,-0.88,-1.2032,-1.2257,-1.2359,-1.2501,-1.2501,-1.2501,-1.2501,-1.2657,-1.2732,-1.2739,-1.2942,-1.3037,-1.3044,-1.3193,-1.3254,-1.3261,-1.3363,-1.3403,-1.3403,-1.3403,-1.3403,-1.3403,-1.3403,-1.3403,-1.3403,0.0,0.0,0.0,0.0,0.0,0.0,0.0,0.0,0.0,0.0,0.0,0.0,0.0,0.0,0.0,0.0,0.0,0.0,0.0,0.0,0.0,-0.0,-0.0,-0.0,-0.0,-0.0,-0.0,-0.0,-0.0,-0.0,-0.0,-0.0,-0.0,-0.0,-0.0,-0.0,-0.0,-0.0,-0.0,-0.0,-0.0,-0.0,-0.0,-0.0,0.0,0.0,0.0,0.0,0.0,0.0,0.0,0.0,0.0,0.0,0.0,0.0,0.0,-0.0,-0.0,-0.0,-0.0,-0.0,-0.0,-0.0,-0.0,-0.0,-0.0,-0.0,-0.0,-0.0,0.0,0.0,-0.0,-0.0,-0.0,-0.0,-0.0,-0.0,-0.0,-0.0,-0.0,-0.0,-0.0,-0.0,-0.0,-0.0,-0.0,-0.0147,-0.0594,-0.43,-0.8253,-1.2366,-1.2332,-1.2366,-1.2501,-1.2501,-1.2508,-1.2515,-1.2671,-1.2745,-1.2759,-1.3051,-1.3186,-1.3193,-1.3336,-1.3403,-1.3403,-1.3403,-1.3403,-1.3403,-1.3403,-1.3403,-1.3403,-1.3403,-1.3403,-1.3403,0.0,0.0,0.0,0.0,0.0,0.0,0.0,0.0,0.0,0.0,0.0,0.0,0.0,0.0,0.0,0.0,0.0,0.0,0.0,0.0,0.0,0.0,0.0,0.0,0.0,0.0,0.0,0.0,0.0,-0.0,-0.0,-0.0,-0.0,-0.0,-0.0,-0.0,-0.0,-0.0,-0.0,-0.0,0.0,-0.0,-0.0,0.0,0.0,0.0,0.0,0.0,0.0,0.0,0.0,0.0,0.0,0.0,-0.0,0.0,0.0,-0.0,-0.0,-0.0,-0.0,-0.0,-0.0,-0.0,-0.0,-0.0,-0.0,-0.0,-0.0,-0.0,-0.0,-0.0,-0.0,-0.0,-0.0,-0.0,-0.0,-0.0,-0.0,-0.0,-0.0,-0.0,-0.0,-0.0,-0.0,-0.0,-0.0,-0.2668,-0.8948,-0.7335,-0.8168,-1.2338,-1.2413,-1.2467,-1.2501,-1.2501,-1.2562,-1.2671,-1.2827,-1.2956,-1.3064,-1.3254,-1.3342,-1.3342,-1.3383,-1.3403,-1.3403,-1.3403,-1.3403,-1.3403,-1.3403,-1.3403,-1.3403,-1.3403,-1.3403,-1.3403,0.0,0.0,0.0,0.0,0.0,0.0,0.0,0.0,0.0,0.0,0.0,0.0,0.0,0.0,0.0,0.0,0.0,0.0,0.0,0.0,0.0,0.0,0.0,0.0,0.0,0.0,0.0,0.0,0.0,0.0,0.0,-0.0,-0.0,-0.0,-0.0,-0.0,-0.0,-0.0,0.0,0.0,0.0,0.0,0.0,0.0,0.0,0.0,0.0,0.0,0.0,0.0,0.0,-0.0,-0.0,-0.0,-0.0,-0.0,0.0,-0.0,-0.0,-0.0,-0.0,-0.0,-0.0,-0.0,-0.0,-0.0,-0.0,-0.0,-0.0,-0.0,-0.0,-0.0,-0.0,0.0,0.0,-0.0,-0.0,-0.0,-0.0,-0.0,-0.0,-0.0,-0.0,-0.0,-0.0,-0.0,-0.0,-0.3588,-1.2032,-1.0306,-1.0067,-1.244,-1.2488,-1.2501,-1.2501,-1.2569,-1.2644,-1.2732,-1.2949,-1.3098,-1.318,-1.3329,-1.3403,-1.3403,-1.3403,-1.3403,-1.3403,-1.3403,-1.3403,-1.3403,-1.3403,-1.3403,-1.3403,-1.3403,-1.3403,-1.3403,0.0,0.0,0.0,0.0,0.0,0.0,0.0,0.0,0.0,0.0,0.0,0.0,0.0,0.0,0.0,0.0,0.0,0.0,0.0,0.0,0.0,0.0,0.0,0.0,0.0,0.0,0.0,0.0,0.0,0.0,0.0,0.0,0.0,0.0,0.0,0.0,0.0,0.0,0.0,0.0,0.0,0.0,0.0,0.0,0.0,0.0,0.0,0.0,0.0,0.0,-0.0,-0.0,-0.0,-0.0,-0.0,-0.0,-0.0,-0.0,-0.0,-0.0,-0.0,-0.0,-0.0,-0.0,-0.0,-0.0,-0.0,-0.0,0.0,-0.0,-0.0,-0.0,-0.0,-0.0,0.0,-0.0,-0.0,-0.0,-0.0,-0.0,-0.0,-0.0,-0.0,-0.0,-0.0,-0.0,-0.0,-0.348,-1.1183,-1.1676,-1.1861,-1.2427,-1.2535,-1.2501,-1.2501,-1.2651,-1.2739,-1.2766,-1.3037,-1.3186,-1.3207,-1.3342,-1.3403,-1.3403,-1.3403,-1.3403,-1.3403,-1.3403,-1.3403,-1.3403,-1.3403,-1.3403,-1.3403,-1.3403,-1.3403,-1.3403,0.0,0.0,0.0,0.0,0.0,0.0,0.0,0.0,0.0,0.0,-0.0,-0.0,0.0,0.0,0.0,0.0,0.0,0.0,0.0,0.0,0.0,0.0,0.0,0.0,0.0,0.0,0.0,0.0,0.0,0.0,0.0,0.0,0.0,0.0,0.0,0.0,0.0,0.0,0.0,0.0,0.0,0.0,0.0,0.0,0.0,0.0,0.0,0.0,0.0,0.0,-0.0,-0.0,-0.0,-0.0,-0.0,-0.0,-0.0,-0.0,-0.0,-0.0,-0.0,-0.0,-0.0,-0.0,-0.0,-0.0,0.0,0.0,-0.0,-0.0,-0.0,-0.0,-0.0,-0.0,-0.0,-0.0,-0.0,-0.0,-0.0,-0.0,-0.0,-0.0,-0.0,-0.0,-0.0,-0.0,-0.0,-0.2172,-0.7103,-0.7448,-0.8881,-1.236,-1.2508,-1.2501,-1.2501,-1.2651,-1.2793,-1.2922,-1.3091,-1.3241,-1.3363,-1.339,-1.3403,-1.3403,-1.3403,-1.3403,-1.3403,-1.3403,-1.3403,-1.3403,-1.3403,-1.3403,-1.3403,-1.3403,-1.3403,-1.3403,0.0,0.0,0.0,0.0,0.0,0.0,0.0,-0.0,-0.0,-0.0,-0.0,-0.0,-0.0,-0.0,-0.0,0.0,0.0,0.0,0.0,0.0,0.0,0.0,0.0,0.0,0.0,0.0,-0.0,-0.0,0.0,-0.0,-0.0,-0.0,-0.0,-0.0,-0.0,0.0,0.0,0.0,0.0,0.0,0.0,0.0,0.0,0.0,0.0,0.0,0.0,0.0,0.0,0.0,-0.0,-0.0,-0.0,-0.0,-0.0,-0.0,-0.0,-0.0,-0.0,-0.0,-0.0,-0.0,-0.0,-0.0,-0.0,0.0,0.0,0.0,-0.0,-0.0,-0.0,-0.0,0.0,-0.0,-0.0,-0.0,-0.0,-0.0,-0.0,-0.0,-0.0,-0.0,-0.0,-0.0,-0.0,-0.0,-0.0,-0.1905,-0.6085,-0.8297,-1.0497,-1.2501,-1.2501,-1.2501,-1.2501,-1.2732,-1.2888,-1.2963,-1.3186,-1.3329,-1.3403,-1.3403,-1.3403,-1.3403,-1.3403,-1.3403,-1.3403,-1.3403,-1.3403,-1.3403,-1.3403,-1.3403,-1.3403,-1.3403,-1.3403,-1.3403,0.0,0.0,0.0,0.0,0.0,0.0,0.0,-0.0,-0.0,-0.0,-0.0,-0.0,-0.0,-0.0,-0.0,0.0,0.0,0.0,0.0,0.0,0.0,0.0,0.0,0.0,0.0,0.0,0.0,-0.0,-0.0,0.0,0.0,0.0,0.0,0.0,-0.0,-0.0,-0.0,0.0,0.0,0.0,0.0,-0.0,0.0,0.0,0.0,0.0,0.0,0.0,0.0,0.0,-0.0,-0.0,-0.0,-0.0,-0.0,-0.0,-0.0,-0.0,-0.0,-0.0,-0.0,-0.0,-0.0,-0.0,-0.0,-0.0,0.0,0.0,-0.0,-0.0,-0.0,0.0,-0.0,0.0,-0.0,-0.0,-0.0,-0.0,-0.0,-0.0,-0.0,-0.0,-0.0,-0.0,-0.0,-0.0,-0.0,-0.1771,-0.6026,-1.0258,-1.2576,-1.2501,-1.2501,-1.2515,-1.2549,-1.282,-1.2976,-1.301,-1.3275,-1.3403,-1.3403,-1.3403,-1.3403,-1.3403,-1.3403,-1.3403,-1.3403,-1.3403,-1.3403,-1.3403,-1.3403,-1.3403,-1.3403,-1.3403,-1.3403,-1.3403,0.0,0.0,0.0,0.0,0.0,0.0,0.0,-0.0,-0.0,-0.0,-0.0,-0.0,-0.0,-0.0,-0.0,0.0,0.0,0.0,0.0,0.0,0.0,0.0,0.0,0.0,0.0,0.0,0.0,-0.0,-0.0,0.0,0.0,0.0,0.0,0.0,0.0,-0.0,-0.0,-0.0,0.0,0.0,0.0,0.0,0.0,0.0,0.0,0.0,0.0,0.0,0.0,0.0,0.0,-0.0,-0.0,-0.0,-0.0,-0.0,0.0,0.0,-0.0,-0.0,-0.0,-0.0,-0.0,-0.0,-0.0,0.0,-0.0,-0.0,-0.0,-0.0,-0.0,-0.0,0.0,0.0,-0.0,-0.0,-0.0,-0.0,-0.0,-0.0,-0.0,-0.0,-0.0,-0.0,-0.0,-0.0,-0.0,-0.1765,-0.6133,-1.0166,-1.2576,-1.2501,-1.2501,-1.2569,-1.2705,-1.2874,-1.3024,-1.3152,-1.3322,-1.3403,-1.3403,-1.3403,-1.3403,-1.3403,-1.3403,-1.3403,-1.3403,-1.3403,-1.3403,-1.3403,-1.3403,-1.3403,-1.3403,-1.3403,-1.3403,-1.3403,0.0,0.0,0.0,0.0,0.0,0.0,-0.0,-0.0,-0.0,-0.0,-0.0,-0.0,-0.0,-0.0,-0.0,-0.0,0.0,0.0,0.0,0.0,0.0,0.0,0.0,0.0,0.0,0.0,-0.0,-0.0,-0.0,0.0,0.0,0.0,0.0,0.0,0.0,-0.0,-0.0,-0.0,0.0,0.0,0.0,0.0,0.0,0.0,0.0,0.0,0.0,0.0,0.0,0.0,0.0,0.0,-0.0,-0.0,0.0,0.0,-0.0,-0.0,-0.0,-0.0,-0.0,-0.0,-0.0,-0.0,-0.0,0.0,-0.0,-0.0,-0.0,-0.0,-0.0,-0.0,-0.0,-0.0,-0.0,-0.0,-0.0,-0.0,-0.0,-0.0,-0.0,-0.0,-0.0,-0.0,-0.0,-0.0,-0.4655,-0.7225,-0.6311,-1.0177,-1.2576,-1.2501,-1.2501,-1.2576,-1.2725,-1.2881,-1.303,-1.3173,-1.3329,-1.3403,-1.3403,-1.3403,-1.3403,-1.3403,-1.3403,-1.3403,-1.3403,-1.3403,-1.3403,-1.3403,-1.3403,-1.3403,-1.3403,-1.3403,-1.3403,-1.3403,0.0,0.0,0.0,0.0,0.0,-0.0,-0.0,-0.0,-0.0,-0.0,-0.0,-0.0,-0.0,-0.0,-0.0,-0.0,-0.0,0.0,0.0,0.0,0.0,0.0,0.0,0.0,0.0,0.0,-0.0,-0.0,-0.0,-0.0,0.0,0.0,-0.0,-0.0,0.0,0.0,0.0,0.0,0.0,0.0,0.0,0.0,0.0,0.0,0.0,0.0,0.0,0.0,0.0,0.0,0.0,0.0,0.0,0.0,0.0,0.0,-0.0,-0.0,-0.0,-0.0,-0.0,-0.0,-0.0,-0.0,0.0,0.0,-0.0,-0.0,-0.0,-0.0,-0.0,-0.0,-0.0,-0.0,-0.0,-0.0,-0.0,-0.0,-0.0858,-0.3099,-0.3429,-0.3484,-0.3739,-0.2678,-0.1914,-0.1947,-0.7424,-0.9998,-0.8258,-1.0972,-1.2562,-1.2501,-1.2501,-1.2596,-1.2793,-1.2908,-1.3057,-1.3241,-1.3349,-1.3403,-1.3403,-1.3403,-1.3403,-1.3403,-1.3403,-1.3403,-1.3403,-1.3403,-1.3403,-1.3403,-1.3403,-1.3403,-1.3403,-1.3403,-1.3403,-1.3403,0.0,0.0,0.0,0.0,0.0,0.0,-0.0,-0.0,-0.0,-0.0,-0.0,-0.0,-0.0,-0.0,-0.0,-0.0,-0.0,0.0,0.0,0.0,0.0,0.0,0.0,0.0,0.0,0.0,-0.0,-0.0,-0.0,-0.0,-0.0,-0.0,-0.0,-0.0,0.0,0.0,0.0,0.0,0.0,0.0,0.0,0.0,0.0,0.0,0.0,0.0,0.0,0.0,0.0,0.0,0.0,0.0,0.0,0.0,0.0,0.0,-0.0,-0.0,-0.0,-0.0,-0.0,-0.0,-0.0,-0.0,0.0,0.0,-0.0,-0.0,-0.0,-0.0,-0.0,-0.0,-0.0,-0.0,-0.0,-0.0,-0.0,-0.0,-0.2794,-1.0547,-1.1471,-1.1777,-1.2386,-0.8916,-0.6637,-0.6637,-0.6475,-0.8258,-1.2514,-1.2561,-1.2535,-1.2501,-1.2501,-1.2651,-1.2956,-1.2963,-1.3112,-1.3397,-1.3403,-1.3403,-1.3403,-1.3403,-1.3403,-1.3403,-1.3403,-1.3403,-1.3403,-1.3403,-1.3403,-1.3403,-1.3403,-1.3403,-1.3403,-1.3403,-1.3403,-1.3403,0.0,0.0,0.0,0.0,0.0,0.0,0.0,-0.0,-0.0,-0.0,-0.0,-0.0,-0.0,-0.0,-0.0,-0.0,-0.0,0.0,0.0,0.0,0.0,0.0,0.0,0.0,0.0,-0.0,-0.0,-0.0,-0.0,-0.0,-0.0,-0.0,-0.0,-0.0,-0.0,-0.0,0.0,0.0,0.0,0.0,0.0,0.0,-0.0,0.0,0.0,0.0,0.0,0.0,0.0,0.0,0.0,0.0,0.0,0.0,0.0,0.0,0.0,0.0,-0.0,-0.0,-0.0,-0.0,-0.0,-0.0,-0.0,0.0,-0.0,-0.0,-0.0,-0.0,-0.0,-0.0,-0.0,-0.0,-0.4174,-0.73,-0.7332,-0.5364,-0.492,-0.7702,-1.0248,-1.2073,-1.2535,-1.1543,-1.1063,-1.1224,-1.0884,-1.1362,-1.2681,-1.2541,-1.2515,-1.2501,-1.2501,-1.2651,-1.2956,-1.2963,-1.3112,-1.3403,-1.3403,-1.3403,-1.3403,-1.3403,-1.3403,-1.3403,-1.3403,-1.3403,-1.3403,-1.3403,-1.3403,-1.3403,-1.3403,-1.3403,-1.3403,-1.3403,-1.3403,-1.3403,0.0,0.0,0.0,0.0,0.0,0.0,0.0,-0.0,-0.0,-0.0,-0.0,-0.0,-0.0,-0.0,-0.0918,-0.314,-0.3392,0.0,0.0,0.0,0.0,0.0,0.0,0.0,-0.0,-0.0,-0.0,-0.0,-0.0,-0.0,-0.0,-0.0,-0.0,-0.0,-0.0,-0.0,0.0,0.0,0.0,0.0,0.0,0.0,-0.0,0.0,0.0,0.0,0.0,0.0,0.0,0.0,0.0,0.0,0.0,0.0,0.0,0.0,0.0,0.0,0.0,-0.0,-0.0,-0.0,-0.0,0.0,0.0,-0.0,-0.0,-0.0,-0.0,-0.0802,-0.3497,-0.4039,-0.3492,-0.2135,-0.5763,-0.918,-1.0692,-0.9064,-0.8004,-0.84,-1.0625,-1.234,-1.2488,-1.2807,-1.3017,-1.3185,-1.3003,-1.2829,-1.2829,-1.2678,-1.2501,-1.2501,-1.2501,-1.2651,-1.2956,-1.2963,-1.3112,-1.3403,-1.3403,-1.3403,-1.3403,-1.3403,-1.3403,-1.3403,-1.3403,-1.3403,0.0,-1.3403,-1.3403,-1.3403,-1.3403,-1.3403,-1.3403,-1.3403,-1.3403,-1.3403,0.0,0.0,0.0,0.0,0.0,0.0,0.0,-0.04,-0.0303,-0.0303,-0.0303,-0.0303,-0.0303,-0.0303,-0.2562,-0.8123,0.0,0.0,0.0,0.0,0.0,0.0,0.0,0.0,-0.0,-0.0,-0.0,-0.0,-0.0,-0.0,-0.0,-0.0,-0.0,-0.0,-0.0,-0.0,0.0,0.0,0.0,0.0,0.0,0.0,0.0,0.0,0.0,0.0,0.0,0.0,0.0,0.0,0.0,0.0,0.0,0.0,0.0,0.0,0.0,0.0,0.0,0.0,0.0,0.0,0.0,0.0,0.0,-0.0637,0.0,-0.0392,-0.0394,-0.2377,-0.9006,-1.0531,-0.9522,-0.5915,-0.5572,-0.6973,-1.0665,-1.124,-1.1372,-1.177,-1.2216,-1.2484,-1.2291,-1.2698,-1.2956,-1.2942,-1.2956,-1.2956,-1.2942,-1.2664,-1.2501,-1.2501,-1.2501,-1.2651,-1.2956,-1.2963,-1.3112,-1.3403,-1.3403,-1.3403,-1.3403,-1.3403,-1.3403,-1.3403,-1.3403,-1.3403,-1.3403,-1.3403,-1.3403,-1.3403,-1.3403,-1.3403,-1.3403,-1.3403,-1.3403,-1.3403,0.0,0.0,0.0,0.0,0.0,0.0,0.0,0.0,0.0,0.0,-0.3015,-0.3015,-0.3015,-0.3015,-0.3777,0.0,0.0,0.0,0.0,0.0,0.0,0.0,0.0,0.0,-0.0,-0.0,-0.0,-0.0,-0.0,-0.0,-0.0,-0.0,-0.0,-0.0,-0.0,-0.0,0.0,0.0,0.0,0.0,0.0,0.0,0.0,0.0,0.0,0.0,-0.7557,-0.5925,0.0,0.0,0.0,0.0,0.0,0.0,0.0,0.0,-0.8652,0.0,-0.7696,0.0,-0.3109,-0.0622,-0.0,-0.1364,0.0,0.0,-0.6841,-0.4313,-0.3715,-0.4265,-0.5972,-0.8474,-1.0052,-0.9221,-0.9181,-0.9563,-1.0618,-1.1274,-1.1681,-1.1782,-1.2189,-1.2413,-1.2298,-1.2698,-1.2908,-1.2793,-1.2895,-1.2908,-1.2793,-1.2603,-1.2501,-1.2501,-1.2501,-1.2651,-1.2956,-1.2963,-1.3112,-1.3403,-1.3403,-1.3403,-1.3403,-1.3403,-1.3403,-1.3403,-1.3403,-1.3403,-1.3403,-1.3403,-1.3403,-1.3403,-1.3403,-1.3403,-1.3403,-1.3403,-1.3403,-1.3403,0.0,0.0,0.0,0.0,0.0,0.0,0.0,0.0,0.0,0.0,0.0,0.0,0.0,0.0,0.0,0.0,0.0,0.0,0.0,0.0,0.0,0.0,0.0,-0.2012,-0.2014,-0.2032,-0.1377,-0.0,-0.0,-0.0,-0.0,-0.0,-0.0,-0.0,-0.0,-0.1729,-0.4447,-0.4447,0.0,0.0,-0.2216,0.0,0.0,0.0,0.0,0.0,-0.9296,-0.8658,0.0,-0.7148,-0.7143,-0.7505,0.0,0.0,0.0,0.0,-0.9747,-0.9747,-0.9747,-0.8506,-0.6775,-0.4926,-0.3321,-0.3198,-0.6789,0.0,0.0,0.0,0.0,-0.7146,-0.7316,-0.8939,-1.0283,-1.0331,-1.0548,-1.0672,-1.1016,-1.1443,-1.1782,-1.1925,-1.2216,-1.24,-1.2386,-1.2732,-1.2895,-1.2745,-1.2874,-1.2895,-1.2739,-1.2583,-1.2501,-1.2501,-1.2501,-1.2651,-1.2956,-1.2963,-1.3112,-1.3403,-1.3403,-1.3403,-1.3403,-1.3403,-1.3403,-1.3403,-1.3403,-1.3403,-1.3403,-1.3403,-1.3403,-1.3403,-1.3403,-1.3403,-1.3403,-1.3403,-1.3403,-1.3403,0.0,0.0,0.0,0.0,0.0,0.0,0.0,0.0,0.0,0.0,0.0,0.0,0.0,0.0,0.0,0.0,0.0,0.0,0.0,0.0,0.0,0.0,-0.6497,-0.5142,-0.5146,-0.5146,-0.3972,-0.1403,-0.0937,-0.0715,-0.0737,-0.0739,-0.074,-0.074,-0.074,-0.3825,-0.9057,-0.9562,-0.8161,-0.5659,-0.5659,0.0,0.0,0.0,0.0,0.0,0.0,0.0,0.0,-0.9767,-0.9754,-0.9849,-0.9849,0.0,0.0,0.0,0.0,0.0,-0.9822,-0.9869,-0.9801,-0.9781,-0.7766,-0.5655,-0.5655,0.0,0.0,0.0,0.0,-0.9857,-0.9989,-1.023,-1.027,-1.0297,-1.0656,-1.1056,-1.1382,-1.1579,-1.1782,-1.2033,-1.2216,-1.2352,-1.2427,-1.2732,-1.2854,-1.2678,-1.2827,-1.2861,-1.2705,-1.2569,-1.2501,-1.2501,-1.2501,-1.2651,-1.2956,-1.2963,-1.3112,-1.3403,-1.3403,-1.3403,-1.3403,-1.3403,-1.3403,-1.3403,-1.3403,-1.3403,-1.3403,-1.3403,-1.3403,-1.3403,-1.3403,-1.3403,-1.3403,-1.3403,-1.3403,-1.3403,0.0,0.0,0.0,0.0,0.0,0.0,0.0,0.0,0.0,0.0,0.0,0.0,0.0,0.0,0.0,0.0,0.0,0.0,0.0,0.0,0.0,-0.8947,-0.851,-0.819,-0.8208,-0.8208,-0.8051,-0.7503,-0.5245,-0.4145,-0.4102,-0.4154,-0.418,-0.418,-0.418,-0.4674,-0.5786,-0.8652,-0.9536,-0.9026,-0.9026,0.0,0.0,0.0,0.0,0.0,0.0,0.0,0.0,-0.9836,-0.9829,-0.9829,-0.9829,0.0,0.0,0.0,0.0,0.0,-0.9822,-0.9924,-0.9998,-0.9767,-0.9361,-0.8989,-0.8989,0.0,0.0,0.0,0.0,0.0,0.0,-1.0005,-1.0005,-1.0243,-1.0656,-1.1097,-1.1525,-1.1823,-1.2013,-1.2054,-1.2305,-1.2379,-1.2149,-1.2515,-1.2651,-1.2379,-1.261,-1.2698,-1.2549,-1.2515,-1.2501,-1.2501,-1.2501,-1.2651,-1.2956,-1.2963,-1.3112,-1.3403,-1.3403,-1.3403,-1.3403,-1.3403,-1.3403,-1.3403,-1.3403,-1.3403,-1.3403,-1.3403,-1.3403,-1.3403,-1.3403,-1.3403,-1.3403,-1.3403,-1.3403,-1.3403,0.0,0.0,0.0,0.0,0.0,0.0,0.0,0.0,0.0,0.0,0.0,0.0,0.0,0.0,0.0,0.0,0.0,0.0,0.0,0.0,-0.894,-0.894,-0.8947,-0.885,-0.8856,-0.8856,-0.893,-0.885,-0.7812,-0.7348,-0.7595,-0.7591,-0.7526,-0.7526,-0.7526,-0.7516,-0.7627,-0.913,-0.9747,-0.9863,0.0,0.0,0.0,0.0,0.0,0.0,0.0,0.0,0.0,0.0,-0.9822,-0.9822,-0.9822,0.0,0.0,0.0,0.0,0.0,-0.9822,-0.9869,-0.993,-0.9951,-1.0025,-1.0086,-1.0086,-1.0086,0.0,0.0,0.0,0.0,0.0,-1.012,-1.0337,-1.0806,-1.1056,-1.1314,-1.1681,-1.185,-1.1999,-1.2169,-1.223,-1.2244,-1.2189,-1.244,-1.2522,-1.2305,-1.2562,-1.2664,-1.2508,-1.2501,-1.2501,-1.2501,-1.2501,-1.2651,-1.2956,-1.2963,-1.3112,-1.3403,-1.3403,-1.3403,-1.3403,-1.3403,-1.3403,-1.3403,-1.3403,-1.3403,-1.3403,-1.3403,-1.3403,-1.3403,-1.3403,-1.3403,-1.3403,-1.3403,-1.3403,-1.3403,0.0,0.0,0.0,0.0,0.0,0.0,0.0,0.0,0.0,0.0,0.0,0.0,0.0,0.0,0.0,0.0,0.0,0.0,0.0,-0.894,-0.894,-0.894,-0.894,-0.894,-0.894,-0.894,-0.8903,-0.8944,-0.9211,-0.9392,-0.984,-0.9836,-0.9761,-0.9761,-0.9761,-0.9747,-0.9849,-0.9849,-0.9836,-0.9822,0.0,0.0,0.0,0.0,0.0,0.0,0.0,0.0,0.0,0.0,0.0,0.0,0.0,0.0,0.0,-0.9822,-0.9822,-0.9822,-0.9822,-0.9849,-0.9903,-1.0019,-1.0114,-1.0195,-1.0263,-1.0249,-1.0202,-1.012,-1.0127,0.0,0.0,-1.0399,-1.0758,-1.126,-1.1369,-1.1504,-1.1837,-1.1857,-1.1932,-1.2203,-1.2135,-1.2108,-1.2223,-1.2366,-1.2406,-1.2298,-1.2528,-1.2623,-1.2508,-1.2501,-1.2501,-1.2501,-1.2501,-1.2651,-1.2956,-1.2963,-1.3112,-1.3403,-1.3403,-1.3403,-1.3403,-1.3403,-1.3403,-1.3403,-1.3403,-1.3403,-1.3403,-1.3403,-1.3403,-1.3403,-1.3403,-1.3403,-1.3403,-1.3403,-1.3403,-1.3403,0.0,0.0,0.0,0.0,0.0,0.0,0.0,0.0,0.0,0.0,0.0,0.0,0.0,0.0,0.0,0.0,0.0,0.0,0.0,-0.894,-0.894,-0.894,-0.894,-0.894,-0.894,-0.894,-0.9008,-0.9157,-0.9306,-0.953,-0.9808,-0.9822,-0.9829,-0.9829,-0.9829,-0.9829,-0.9822,-0.9822,-0.9822,-0.9822,-0.9822,0.0,0.0,0.0,0.0,0.0,0.0,0.0,0.0,0.0,0.0,0.0,0.0,0.0,-0.9822,-0.9822,-0.9822,-0.9822,-0.9822,-0.9924,-1.0032,-1.0046,-0.9951,-0.993,-1.0215,-1.0168,-1.0107,-1.0236,-1.0371,-1.046,-1.046,-1.0711,-1.0975,-1.1151,-1.1301,-1.1545,-1.1986,-1.1925,-1.1891,-1.206,-1.2067,-1.2067,-1.2081,-1.2216,-1.2298,-1.2291,-1.2433,-1.2515,-1.2501,-1.2501,-1.2501,-1.2501,-1.2501,-1.2651,-1.2956,-1.2963,-1.3112,-1.3403,-1.3403,-1.3403,-1.3403,-1.3403,-1.3403,-1.3403,-1.3403,-1.3403,-1.3403,-1.3403,-1.3403,-1.3403,-1.3403,-1.3403,-1.3403,-1.3403,-1.3403,-1.3403,0.0,0.0,0.0,0.0,0.0,0.0,0.0,0.0,0.0,0.0,0.0,0.0,0.0,0.0,0.0,0.0,0.0,0.0,0.0,-0.894,-0.894,-0.894,-0.894,-0.8981,-0.9069,-0.8988,-0.9008,-0.915,-0.9401,-0.9625,-0.9822,-0.9822,-0.9822,-0.9822,-0.9822,-0.9822,-0.9822,-0.9822,-0.9822,-0.9822,-0.9822,-0.9822,0.0,0.0,0.0,0.0,0.0,0.0,0.0,0.0,-0.9822,0.0,0.0,0.0,0.0,0.0,-1.0543,-1.102,-1.0058,-1.1386,-1.2856,-1.1765,-1.2323,-1.261,-1.0849,-1.0365,-1.0344,-1.0399,-1.0527,-1.092,-1.2196,-1.1776,-1.1657,-1.2826,-1.2359,-1.2297,-1.3644,-1.2741,-1.2473,-1.3814,-1.2856,-1.2101,-1.2196,-1.2257,-1.2291,-1.2291,-1.242,-1.2501,-1.2501,-1.2501,-1.2501,-1.2501,-1.2596,-1.2745,-1.2963,-1.3051,-1.32,-1.3403,-1.3403,-1.3403,-1.3403,-1.3403,-1.3403,-1.3403,-1.3403,-1.3403,-1.3403,-1.3403,-1.3403,-1.3403,-1.3403,-1.3403,-1.3403,-1.3403,-1.3403,-1.3403,0.0,0.0,0.0,0.0,0.0,0.0,0.0,0.0,0.0,0.0,0.0,0.0,0.0,0.0,0.0,0.0,0.0,0.0,-0.894,-0.894,-0.896,-0.9008,-0.9008,-0.9076,-0.9218,-0.913,-0.915,-0.93,-0.9551,-0.9727,-0.9822,-0.9822,-0.9822,-0.9822,-0.9822,-0.9822,-0.9822,-0.9822,-0.9822,-0.9822,-0.9822,-0.9822,0.0,0.0,0.0,0.0,0.0,0.0,0.0,0.0,0.0,0.0,0.0,0.0,0.0,0.0,-1.2139,-1.2785,-1.1696,-1.3238,-1.4699,-1.3674,-1.4298,-1.4651,-1.266,-1.2185,-1.2193,-1.2489,-1.2664,-1.3108,-1.4503,-1.4089,-1.3961,-1.5096,-1.4455,-1.4326,-1.562,-1.4612,-1.4367,-1.5815,-1.4736,-1.4034,-1.4208,-1.4223,-1.4255,-1.431,-1.4412,-1.4475,-1.4475,-1.4475,-1.4176,-1.3414,-1.3574,-1.3426,-1.2963,-1.3105,-1.3247,-1.3403,-1.3403,-1.3403,-1.3403,-1.3403,-1.3403,-1.3403,-1.3403,-1.3403,-1.3403,-1.3403,-1.3403,-1.3403,-1.3403,-1.3403,-1.3403,-1.3403,-1.3403,-1.3403,0.0,0.0,0.0,0.0,0.0,0.0,0.0,0.0,0.0,0.0,0.0,0.0,0.0,0.0,0.0,0.0,0.0,0.0,-0.894,-0.894,-0.9008,-0.915,-0.9157,-0.9225,-0.9381,-0.9388,-0.9456,-0.9612,-0.9754,-0.9822,-0.9822,-0.9822,-0.9822,-0.9822,-0.9822,-0.9822,-0.9822,-0.9822,-0.9822,-0.9822,-0.9822,-0.9822,-0.9822,0.0,0.0,0.0,0.0,0.0,0.0,0.0,0.0,0.0,0.0,0.0,0.0,-1.4599,-1.4761,-1.5044,-1.5044,-1.5054,-1.5115,-1.5453,0.0,-1.5638,-1.607,-1.587,-1.59,-1.6707,-1.7025,-1.7251,-1.7487,-1.7713,-1.7868,-1.7725,-1.7725,-1.7725,-1.7581,-1.7581,-1.7725,-1.7735,-1.7928,-1.8142,-1.8356,-1.8229,-1.8319,-1.8552,-1.8572,-1.8572,-1.8572,-1.8572,-1.7663,-1.554,-1.5734,-1.4987,-1.3123,-1.3267,-1.3247,-1.3397,-1.3397,-1.3397,-1.3403,-1.3403,-1.3403,-1.3403,-1.3403,-1.3403,-1.3403,-1.3403,-1.3403,-1.3403,-1.3403,-1.3403,-1.3403,-1.3403,-1.3403,-1.3403,0.0,0.0,0.0,0.0,0.0,0.0,0.0,0.0,0.0,0.0,0.0,0.0,0.0,0.0,0.0,0.0,0.0,0.0,-0.894,-0.9035,-0.911,-0.915,-0.9259,-0.9388,-0.9537,-0.9639,-0.9666,-0.9612,-0.9754,-0.9822,-0.9822,-0.9822,-0.9822,-0.9822,-0.9822,-0.9822,-0.9822,-0.9822,-0.9822,-0.9822,-0.9822,-0.9822,-0.9822,0.0,0.0,0.0,0.0,0.0,0.0,0.0,0.0,0.0,0.0,0.0,0.0,-1.4599,-1.5483,-1.6131,-1.5059,-1.6873,0.0,-1.7514,0.0,0.0,-2.0173,-1.8188,-1.6511,-1.7189,-1.7374,-1.7917,-1.9279,-1.8795,-1.8519,-1.936,-1.8577,-1.8238,-1.9548,-1.8545,-1.8279,-1.9916,-1.898,-1.8367,-1.8451,-1.8471,-1.8501,-1.8562,-1.8572,-1.8572,-1.8572,-1.8714,-1.8652,-1.8038,-1.8397,-1.8303,-1.7732,-1.7925,-1.7086,-1.5679,-1.5679,-1.4863,-1.3403,-1.3403,-1.3403,-1.3403,-1.3403,-1.3403,-1.3403,-1.3403,-1.3403,-1.3403,-1.3403,-1.3403,-1.3403,-1.3403,-1.3403,-1.3403,0.0,0.0,0.0,0.0,0.0,0.0,0.0,0.0,0.0,0.0,-0.8879,-0.894,0.0,0.0,0.0,0.0,0.0,0.0,-0.9022,-0.9164,-0.9273,-0.9334,-0.9422,-0.9544,-0.9693,-0.9774,-0.9781,-0.9693,-0.9781,-0.9822,-0.9822,-0.9822,-0.9822,-0.9822,-0.9822,-0.9822,-0.9822,-0.9822,-0.9822,-0.9822,-0.9822,-1.0179,-1.0778,0.0,0.0,0.0,0.0,0.0,0.0,0.0,0.0,0.0,0.0,0.0,0.0,-1.6766,-1.7589,-1.8335,-1.7567,-1.9137,0.0,-1.9751,-2.067,-2.1857,-2.2392,-2.0871,-1.9379,-1.9692,-1.9945,-2.0568,-2.1734,-2.1293,-2.0962,-2.1677,-2.0935,-2.0682,-2.1713,-2.0935,-2.0873,-2.2226,-2.1443,-2.082,-2.098,-2.0991,-2.0991,-2.0991,-2.1083,-2.114,-2.114,-2.138,-2.1198,-2.0429,-2.064,-2.0528,-1.9732,-1.9796,-1.9258,-1.7955,-1.7955,-1.6811,-1.4706,-1.3728,-1.3403,-1.3403,-1.3403,-1.3403,-1.3403,-1.3403,-1.3403,-1.3403,-1.3403,-1.3403,-1.3403,-1.3403,-1.3403,-1.3403,0.0,0.0,0.0,0.0,0.0,0.0,0.0,0.0,0.0,0.0,-0.894,-0.8947,0.0,0.0,0.0,0.0,0.0,0.0,0.0,-0.9313,-0.9462,-0.9605,-0.9618,-0.9686,-0.9815,-0.9822,-0.9822,-0.9822,-0.9822,-0.9822,-0.9822,-0.9822,-0.9822,-0.9822,-0.9822,-0.9943,-1.0065,-1.0065,-1.0058,-1.0179,-1.0179,-1.114,-1.2457,-1.2457,0.0,0.0,0.0,0.0,0.0,0.0,0.0,0.0,0.0,0.0,-1.9893,-2.016,-2.0441,-2.0788,-2.1323,-2.1336,0.0,-2.1844,-2.2044,0.0,-2.314,-2.3367,-2.3407,-2.3407,-2.3834,-2.4209,-2.4235,-2.4249,-2.4235,-2.4209,-2.3981,-2.3808,-2.3808,-2.4035,-2.4209,-2.4235,-2.4476,-2.4649,-2.4676,-2.4676,-2.469,-2.4716,-2.497,-2.5117,-2.5117,-2.5398,-2.4765,-2.2877,-2.2972,-2.2156,-2.04,-2.045,-2.0393,-2.0231,-2.0231,-1.9095,-1.6811,-1.4706,-1.3562,-1.3403,-1.3403,-1.3403,-1.3403,-1.3403,-1.3403,-1.3403,-1.3403,-1.3403,-1.3403,-1.3403,-1.3403,-1.3403,0.0,0.0,0.0,0.0,0.0,0.0,0.0,0.0,0.0,0.0,0.0,0.0,0.0,0.0,0.0,0.0,0.0,0.0,0.0,-0.9476,-0.9578,-0.9605,-0.9713,-0.9788,-0.9822,-0.9822,-0.9822,-0.9822,-0.9822,-0.9822,-0.9822,-0.9822,-0.9822,-0.9822,-0.9822,-1.0543,-1.1736,-1.1736,-1.2457,-1.3526,-1.3526,-1.3765,-1.4123,-1.4123,-1.5074,0.0,0.0,0.0,0.0,0.0,0.0,0.0,-1.9481,-1.9839,-2.0147,-2.0214,-2.0441,-2.0708,-2.0828,-2.1323,0.0,0.0,-2.2512,-2.3086,-2.3287,-2.3688,-2.4008,-2.4008,-2.4115,-2.4275,-2.4502,-2.4543,-2.4476,-2.4235,-2.4155,-2.4115,-2.4115,-2.4168,-2.4289,-2.4516,-2.4596,-2.473,-2.4957,-2.4983,-2.5077,-2.5304,-2.5384,-2.5424,-2.5424,-2.5705,-2.5697,-2.5218,-2.5492,-2.5319,-2.5003,-2.5053,-2.4111,-2.2327,-2.2327,-2.1362,-1.9095,-1.6975,-1.5028,-1.3403,-1.3403,-1.3403,-1.3403,-1.3403,-1.3403,-1.3403,-1.3403,-1.3403,-1.3403,-1.3403,-1.3403,-1.3417,0.0,0.0,0.0,0.0,0.0,0.0,0.0,0.0,0.0,0.0,0.0,0.0,0.0,0.0,0.0,0.0,0.0,0.0,0.0,0.0,-1.0898,-1.0898,-1.0853,-1.0536,-0.9822,-1.0536,-1.0899,-1.0899,-1.0899,-1.0536,-0.9822,-0.9822,-0.9822,-0.9822,-1.0664,-1.1382,-1.2217,-1.3048,-1.3885,-1.4599,-1.4599,-1.5074,-1.5784,-1.5784,-1.6808,-1.8357,-1.8357,0.0,0.0,0.0,0.0,0.0,0.0,0.0,-2.0468,-2.0615,-2.0762,-2.0975,-2.139,0.0,0.0,-2.2525,0.0,-2.3581,-2.3714,-2.4088,-2.4449,-2.4596,-2.4623,-2.4676,-2.4823,-2.473,-2.4636,-2.4623,-2.4382,-2.4249,-2.4396,-2.4409,-2.4516,-2.481,-2.485,-2.497,-2.5264,-2.5291,-2.5344,-2.5504,-2.5651,-2.5718,-2.5718,-2.5999,-2.6159,-2.6159,-2.6306,-2.6386,-2.6386,-2.6386,-2.5898,-2.4602,-2.4602,-2.3472,-2.1362,-1.8109,-1.5999,-1.4863,-1.3887,-1.3403,-1.3403,-1.3403,-1.3403,-1.3403,-1.3403,-1.3403,-1.3403,-1.3403,-1.3403,-1.3424,0.0,0.0,0.0,0.0,0.0,0.0,0.0,0.0,0.0,0.0,0.0,0.0,0.0,0.0,0.0,0.0,0.0,0.0,0.0,0.0,0.0,-1.2217,-1.2217,-1.1736,-1.0657,-1.1615,-1.2217,-1.2217,-1.2217,-1.1495,-1.0179,-1.0179,-1.0179,-1.0301,-1.1615,-1.2449,-1.3048,-1.4123,-1.4955,-1.544,-1.544,-1.629,-1.7515,-1.7515,-1.8526,-1.988,-1.988,-2.0027,-2.0241,-2.0294,0.0,0.0,0.0,0.0,-2.0802,-2.1042,-2.1149,-2.1336,-2.2071,0.0,-2.2271,-2.3113,-2.3554,0.0,-2.4142,-2.4422,-2.4716,-2.5024,-2.5077,-2.509,-2.5144,-2.4957,-2.485,-2.505,-2.4676,-2.4422,-2.4609,-2.4676,-2.4796,-2.505,-2.5117,-2.5264,-2.5558,-2.5585,-2.5611,-2.5665,-2.5892,-2.6039,-2.6039,-2.6266,-2.6386,-2.6386,-2.6386,-2.6386,-2.6386,-2.6386,-2.6386,-2.6386,-2.6386,-2.5409,-2.346,-1.9563,-1.7456,-1.7138,-1.5358,-1.4541,-1.4541,-1.4052,-1.3887,-1.3887,-1.3562,-1.3403,-1.3403,-1.3403,-1.3403,-1.3424,0.0,0.0,0.0,0.0,0.0,0.0,0.0,0.0,0.0,0.0,-1.2689,-1.2303,0.0,0.0,0.0,0.0,0.0,0.0,0.0,0.0,0.0,-1.2217,-1.2217,-1.2689,-1.3885,-1.2808,-1.2217,-1.2217,-1.2217,-1.2097,-1.1856,-1.1856,-1.1856,-1.1856,-1.2097,-1.3756,-1.6256,-1.5074,-1.6267,-1.8765,-1.8765,-1.9037,-1.9378,-1.9378,-1.9681,-2.0174,-2.0174,-2.0201,-2.0267,-2.0535,-2.0615,0.0,0.0,0.0,-2.1056,-2.1096,-2.1296,-2.1523,0.0,0.0,-2.2512,0.0,-2.3554,-2.3848,0.0,-2.4422,-2.4716,-2.5024,-2.5077,-2.5157,-2.5411,-2.5424,-2.5331,-2.5117,-2.501,-2.489,-2.4663,-2.4863,-2.5037,-2.5077,-2.5304,-2.5571,-2.5865,-2.5892,-2.5999,-2.6253,-2.6306,-2.6333,-2.6333,-2.6373,-2.6386,-2.6386,-2.6386,-2.6386,-2.6386,-2.6386,-2.6386,-2.6386,-2.6386,-2.6228,-2.5898,-2.33,-2.12,-1.942,-1.9095,-1.9095,-1.8933,-1.6975,-1.6164,-1.5999,-1.4052,-1.3403,-1.3403,-1.3403,-1.3403,-1.3437,0.0,0.0,0.0,0.0,0.0,0.0,0.0,0.0,0.0,0.0,0.0,-1.4696,0.0,0.0,0.0,-1.4599,-1.4599,-1.4955,-1.5902,-1.6138,0.0,-1.4945,-1.4004,-1.3885,-1.4599,-1.3885,-1.4004,-1.4945,-1.4945,-1.448,-1.3526,-1.447,-1.4351,-1.3526,-1.447,-1.5655,-1.6962,-1.722,-1.8139,-1.9613,-1.9613,-1.927,-1.8778,-1.9732,-1.9698,-1.93,-2.0165,-2.0588,-2.0748,-2.0869,-2.0922,-2.0935,-2.1069,0.0,0.0,0.0,-2.1203,-2.1376,-2.171,-2.2352,-2.3033,0.0,-2.3794,-2.4088,-2.4382,-2.4676,-2.497,-2.5264,-2.5451,-2.5611,-2.5745,-2.5758,-2.5665,-2.5371,-2.5184,-2.5037,-2.4903,-2.4997,-2.5197,-2.5531,-2.5692,-2.5879,-2.6172,-2.6199,-2.6253,-2.6373,-2.6386,-2.6386,-2.6386,-2.6386,-2.6386,-2.6386,-2.6386,-2.6386,-2.6386,-2.6386,-2.6386,-2.6386,-2.6386,-2.6386,-2.6386,-2.5409,-2.3792,-2.1684,-2.0393,-1.9907,-1.9745,-1.8933,-1.8444,-1.8281,-1.7474,-1.6983,-1.682,-1.5679,-1.5193,-1.5074,0.0,0.0,0.0,0.0,0.0,0.0,0.0,0.0,0.0,0.0,0.0,0.0,0.0,0.0,0.0,0.0,-1.5192,-1.5666,-1.6962,-1.7689,0.0,0.0,-1.5429,-1.4955,-1.5795,-1.5429,-1.5784,-1.6962,-1.6962,-1.6374,-1.5192,-1.6856,-1.7009,-1.599,-1.6644,-1.7244,-1.7787,-1.8504,-1.9273,-1.992,-1.9507,-1.9085,-1.8734,-1.9486,-1.96,-1.9334,-2.0485,-2.1042,-2.1203,-2.1136,-2.1109,-2.1122,-2.1203,-2.1216,0.0,0.0,0.0,-2.1443,-2.1951,0.0,-2.3207,-2.3661,-2.3928,-2.4195,0.0,-2.4863,-2.5157,-2.5451,-2.5745,-2.5972,-2.6052,-2.6066,-2.5972,-2.5678,-2.5438,-2.5277,-2.5197,-2.5251,-2.5464,-2.5905,-2.6026,-2.6146,-2.6373,-2.6386,-2.6386,-2.6386,-2.6386,-2.6386,-2.6386,-2.6386,-2.6386,-2.6386,-2.6386,-2.6386,-2.6386,-2.6386,-2.6386,-2.6386,-2.6386,-2.6386,-2.6386,-2.6386,-2.5568,-2.3792,-2.2178,-2.1523,-2.1523,-2.0878,-2.0716,-2.0716,-2.0069,-1.9907,-1.9582,-1.7465,-1.6681,-1.6435,0.0,0.0,0.0,0.0,0.0,0.0,0.0,0.0,0.0,0.0,0.0,-1.4718,-1.4599,-1.4599,-1.5192,-1.6727,-1.6844,-1.6962,-1.6962,-1.5666,-1.5548,-1.6962,-1.5429,0.0,-1.9127,-1.7689,-1.6962,-1.6962,-1.6962,-1.6962,-1.6962,-1.8519,-1.9389,-1.9404,-1.7799,-1.7941,-1.9536,-1.8056,-1.8576,-2.0106,-1.8629,-1.9148,-2.0729,-1.9277,-2.0067,-2.1766,-2.1603,-2.151,-2.1483,-2.1203,-2.1109,-2.1162,-2.1443,-2.1537,-2.159,0.0,0.0,0.0,-2.2311,-2.2432,0.0,-2.3554,-2.3781,-2.3941,-2.4502,-2.4863,-2.5157,-2.5451,-2.5745,-2.6039,-2.6319,-2.6373,-2.6266,-2.5985,-2.5919,-2.5812,-2.5531,-2.5732,-2.5919,-2.5959,-2.6199,-2.6373,-2.6386,-2.6386,-2.6386,-2.6386,-2.6386,-2.6386,-2.6386,-2.6386,-2.6386,-2.6386,-2.6386,-2.6386,-2.6386,-2.6386,-2.6386,-2.6386,-2.6386,-2.6386,-2.6386,-2.6386,-2.6386,-2.6228,-2.607,-2.6056,-2.5898,-2.3792,-2.298,-2.2659,-2.0716,-1.9907,-1.9582,-1.7465,-1.6766,-1.6618,0.0,0.0,0.0,0.0,0.0,0.0,0.0,0.0,0.0,0.0,0.0,0.0,0.0,-1.4599,-1.4837,-1.5429,-1.5429,-1.5429,-1.5429,-1.4955,-1.4837,-1.5429,-1.4955,-1.5666,-1.7806,-1.7325,-1.756,-1.8519,-1.8519,-1.8127,-1.7208,-1.7708,-1.7601,-1.6975,-1.8188,-1.9311,-2.008,-1.9451,-1.9742,-2.0411,-1.8794,-1.8113,-1.806,-1.7335,-1.7016,-1.7015,-1.7719,-1.8769,-1.9707,-1.9781,-2.0618,-2.1443,-2.1737,-2.183,-2.1857,-2.1951,-2.2124,-2.2285,-2.2392,-2.2699,0.0,-2.3407,-2.3768,-2.4102,-2.4315,-2.4877,-2.5384,-2.5491,-2.5892,-2.6266,-2.6373,-2.6386,-2.6293,-2.5999,-2.6106,-2.6199,-2.6092,-2.6172,-2.6306,-2.6493,-2.644,-2.6386,-2.6386,-2.6386,-2.6386,-2.6386,-2.6386,-2.6386,-2.6386,-2.6386,-2.6386,-2.6386,-2.6386,-2.6386,-2.6386,-2.6386,-2.6386,-2.6386,-2.6386,-2.6386,-2.6386,-2.6386,-2.6386,-2.6386,-2.6386,-2.6386,-2.6386,-2.5568,-2.5251,-2.5092,-2.4442,-2.4111,-2.3816,-2.1849,-2.1143,-2.0941,0.0,0.0,0.0,0.0,0.0,0.0,0.0,0.0,-1.4361,-1.3885,0.0,0.0,0.0,0.0,-1.3168,-1.3765,-1.4242,-1.4599,-1.4599,-1.4123,-1.4004,-1.4609,-1.4123,-1.4599,-1.6138,-1.6138,-1.6773,-1.7823,-1.8425,-1.7958,-1.6619,-1.7115,-1.663,-1.5482,-1.7445,-1.8459,-1.8619,-1.8619,-1.9162,-1.9827,-1.7585,-1.6939,-1.7139,-1.6603,-1.6069,-1.5942,-1.6871,-1.7829,-1.88,-1.8519,-1.9032,-2.0145,-2.0965,-2.1737,-2.2285,-2.2285,-2.2418,-2.2565,-2.2565,-2.2859,-2.3193,-2.33,-2.3621,-2.3968,-2.4155,-2.481,-2.5398,-2.5491,-2.5985,-2.6386,-2.6386,-2.6386,-2.636,-2.6266,-2.6413,-2.6573,-2.6667,-2.668,-2.676,-2.6947,-2.68,-2.664,-2.6547,-2.6533,-2.6493,-2.64,-2.6386,-2.6386,-2.6386,-2.6386,-2.6386,-2.6386,-2.6386,-2.6386,-2.6386,-2.6386,-2.6386,-2.6386,-2.6386,-2.6386,-2.6386,-2.6386,-2.6386,-2.6386,-2.6386,-2.6386,-2.6386,-2.6386,-2.6386,-2.6386,-2.6386,-2.6386,-2.6096,-2.4255,-2.3645,-2.3515,0.0,0.0,0.0,0.0,0.0,0.0,0.0,0.0,-1.3885,-1.2337,0.0,0.0,0.0,0.0,0.0,-1.1976,-1.3526,-1.448,-1.448,-1.3048,-1.2817,-1.4371,-1.3057,-1.2946,-1.45,-1.4619,-1.472,-1.4801,-1.6507,-1.6508,-1.5018,-1.6629,-1.6761,-1.5473,-1.5346,-1.5346,-1.5346,-1.5473,-1.6615,-1.8162,-1.506,-1.5779,-1.8696,-1.7151,-1.7737,-1.9177,-1.9043,-1.9043,-1.881,-1.7138,-1.6511,-1.6955,-1.9138,-2.1183,-2.2859,-2.2859,-2.2859,-2.2859,0.0,0.0,0.0,-2.3233,-2.3313,-2.3474,-2.4048,-2.4649,-2.5157,-2.5438,-2.5972,-2.6386,-2.6386,-2.6386,-2.648,-2.6774,-2.6827,-2.6934,-2.7241,-2.7281,-2.7281,-2.7281,-2.7268,-2.7148,-2.6867,-2.6841,-2.672,-2.644,-2.6413,-2.64,-2.64,-2.6386,-2.6386,-2.6386,-2.6386,-2.6386,-2.6386,-2.6386,-2.6386,-2.6386,-2.6386,-2.6386,-2.6386,-2.6386,-2.6386,-2.6386,-2.64,-2.64,-2.64,-2.6386,-2.6386,-2.64,-2.64,-2.6413,-2.6281,-2.4454,-2.4045,-2.4013,0.0,0.0,0.0,0.0,0.0,-1.0422,-1.0422,-1.0899,-1.102,0.0,0.0,0.0,-0.9822,-0.9822,-0.9943,-1.0422,-1.0899,-1.114,-1.114,-1.0657,-1.0716,-1.1202,-1.1931,-1.2602,-1.3225,-1.4336,-1.4858,-1.4918,-1.5412,-1.5525,-1.5373,-1.4614,-1.4089,-1.3891,-1.2604,-1.2088,-1.2211,-1.4669,-1.6121,-1.6473,-1.4522,-1.4385,-1.5054,-1.366,-1.3428,-1.3912,-1.3912,-1.4531,-1.5588,-1.5363,-1.6037,-1.7082,-1.9277,-2.0479,-2.117,-2.2435,-2.2859,-2.2859,-2.2859,0.0,0.0,0.0,0.0,0.0,-2.3527,-2.4356,-2.5104,-2.5184,-2.5838,-2.6386,-2.6386,-2.6386,-2.648,-2.6774,-2.7001,-2.7241,-2.7535,-2.7575,-2.7575,-2.7575,-2.7388,-2.7228,-2.7148,-2.7148,-2.7108,-2.7028,-2.6827,-2.6707,-2.6707,-2.6507,-2.6386,-2.6386,-2.6386,-2.6386,-2.6386,-2.6386,-2.6386,-2.6386,-2.6386,-2.6386,-2.6386,-2.6386,-2.6386,-2.64,-2.6613,-2.6707,-2.668,-2.648,-2.6507,-2.6707,-2.6707,-2.6827,-2.7081,-2.6913,-2.7019,-2.7058,0.0,0.0,0.0,0.0,0.0,-0.9822,-0.9822,-0.9822,-0.9822,0.0,0.0,0.0,-0.9822,-0.9822,-0.9822,-0.9822,-0.9876,-0.9917,-0.9917,-0.9978,-1.0053,-1.0141,-1.101,-1.1549,-1.1649,-1.2523,-1.3061,-1.313,-1.3888,-1.3988,-1.3552,-1.3164,-1.2702,-1.215,-1.1108,-1.0717,-1.0857,-1.2881,-1.4173,-1.4651,-1.3325,-1.3199,-1.3779,-1.2902,-1.2661,-1.275,-1.2816,-1.3496,-1.4178,-1.3956,-1.4829,-1.6207,-1.748,-1.8389,-1.9077,-2.019,-2.0479,-2.0756,-2.1459,-2.1734,-2.1885,-2.2722,0.0,0.0,-2.3447,-2.4235,-2.497,-2.5211,-2.5865,-2.6386,-2.6386,-2.6386,-2.648,-2.6774,-2.7068,-2.7362,-2.7655,-2.7802,-2.7883,-2.7883,-2.7736,-2.7589,-2.7455,-2.7442,-2.7402,-2.7281,-2.7108,-2.7001,-2.7001,-2.6734,-2.6573,-2.6573,-2.6453,-2.6386,-2.6386,-2.6386,-2.6386,-2.6386,-2.6386,-2.6386,-2.6386,-2.6386,-2.6386,-2.64,-2.6694,-2.6827,-2.6814,-2.6774,-2.6854,-2.7001,-2.7001,-2.7188,-2.7495,-2.7976,-2.8297,-2.8591,0.0,0.0,-0.9822,-0.9822,-0.9822,-0.9822,-0.9822,-0.9822,-0.9822,0.0,-0.9822,-0.9822,-0.9822,-0.9836,-0.9842,-0.9842,-0.9985,-1.0073,-1.0073,-1.0202,-1.029,-1.0304,-1.0304,-1.031,-1.0331,-1.0331,-1.0392,-1.0514,-1.2048,-1.2133,-1.0717,-1.2281,-1.2165,-1.0744,-1.0744,-1.0751,-1.0778,-1.0914,-1.1829,-1.2921,-1.1754,-1.2153,-1.3571,-1.3798,-1.3953,-1.3993,-1.418,-1.4237,-1.3976,-1.267,-1.3424,-1.4621,-1.4859,-1.5786,-1.7066,-1.7137,-1.7268,-1.7559,-1.9356,-1.9773,-2.019,-2.1872,-2.2323,0.0,-2.3014,-2.3588,-2.4026,-2.4683,-2.54,-2.5964,-2.5964,-2.6135,-2.6373,-2.664,-2.6947,-2.7295,-2.7642,-2.7949,-2.8136,-2.8136,-2.8136,-2.8043,-2.7776,-2.7749,-2.7642,-2.7388,-2.7335,-2.7295,-2.7268,-2.7014,-2.6867,-2.6867,-2.6627,-2.6466,-2.644,-2.644,-2.6426,-2.6386,-2.6386,-2.6386,-2.6386,-2.6386,-2.6386,-2.6413,-2.6734,-2.6867,-2.6894,-2.7228,-2.7348,-2.7308,-2.7308,-2.7509,-2.7843,-2.8136,-2.8604,-2.9125,-0.9822,-0.9822,-0.9822,-0.9822,-0.9822,-0.9822,-0.9822,-0.9822,-0.9822,-0.9822,-0.9822,-0.9822,-0.9822,-0.993,-1.0005,-1.0005,-1.0148,-1.0236,-1.0236,-1.0263,-1.0331,-1.0446,-1.0453,-1.0507,-1.0629,-1.0636,-1.0649,-1.0677,-1.1066,-1.0948,-1.0717,-1.1115,-1.1045,-1.0907,-1.0907,-1.0968,-1.1077,-1.1111,-1.1448,-1.1817,-1.1461,-1.1698,-1.2123,-1.2443,-1.2643,-1.2641,-1.2916,-1.293,-1.2831,-1.2594,-1.2824,-1.3296,-1.4538,-1.518,-1.5745,-1.6842,-1.7379,-1.747,-1.7721,-1.7809,-1.7809,-1.8229,-1.8368,0.0,-1.8767,-1.9305,-1.9811,-1.9898,-2.1693,-2.3307,-2.3307,-2.4572,-2.5705,-2.5758,-2.6213,-2.6827,-2.7589,-2.7949,-2.8136,-2.8136,-2.8136,-2.8123,-2.8056,-2.8056,-2.803,-2.7976,-2.7749,-2.7509,-2.7281,-2.7215,-2.7175,-2.7175,-2.7121,-2.6974,-2.6734,-2.6734,-2.6613,-2.6386,-2.6386,-2.6386,-2.6386,-2.6386,-2.6386,-2.6413,-2.6947,-2.7175,-2.7228,-2.7749,-2.7829,-2.7615,-2.7615,-2.7949,-2.847,-2.8764,-2.9085,-2.9432,-0.9822,-0.9822,-0.9822,-0.9822,-0.9822,-0.9822,-0.9822,-0.9822,-0.9822,-0.9822,-0.989,-0.9964,-1.0039,-1.012,-1.0168,-1.0168,-1.0297,-1.0385,-1.0385,-1.046,-1.0534,-1.0602,-1.0609,-1.0643,-1.0717,-1.0717,-1.0758,-1.0833,-1.0833,-1.0867,-1.0941,-1.0941,-1.1023,-1.1165,-1.109,-1.1138,-1.1274,-1.1274,-1.1321,-1.1396,-1.147,-1.164,-1.187,-1.2169,-1.2379,-1.2535,-1.2766,-1.28,-1.2732,-1.2732,-1.2678,-1.2745,-1.3494,-1.3695,-1.3883,-1.4498,-1.4776,-1.5095,-1.5768,-1.6002,-1.629,-1.7152,-1.7518,0.0,0.0,-1.8249,-1.8603,-1.8714,-1.9923,-2.0946,-2.0946,-2.1734,-2.252,-2.252,-2.3913,-2.5021,-2.5299,-2.6783,-2.7976,-2.8123,-2.8136,-2.8136,-2.8136,-2.8136,-2.8136,-2.8136,-2.8003,-2.7856,-2.7709,-2.7562,-2.7482,-2.7482,-2.7348,-2.7201,-2.7041,-2.6894,-2.6747,-2.66,-2.6453,-2.6386,-2.6386,-2.6386,-2.6386,-2.6413,-2.6854,-2.7041,-2.7094,-2.7682,-2.7829,-2.7709,-2.7856,-2.8283,-2.8845,-2.8991,-2.9325,-2.9726,-0.9822,-0.9822,-0.9822,-0.9822,-0.9822,-0.9829,-0.9863,-0.9863,-0.9876,-0.9903,-1.0039,-1.0181,-1.0304,-1.0371,-1.0412,-1.0412,-1.0541,-1.0609,-1.0582,-1.0697,-1.0765,-1.0765,-1.0765,-1.0778,-1.0806,-1.0806,-1.0867,-1.0989,-1.0989,-1.105,-1.1165,-1.1165,-1.1246,-1.1389,-1.1294,-1.1321,-1.1436,-1.1463,-1.1511,-1.1572,-1.1701,-1.1877,-1.2094,-1.2359,-1.2576,-1.2752,-1.2935,-1.3024,-1.3044,-1.301,-1.284,-1.2637,-1.2671,-1.2562,-1.24,-1.2277,-1.2284,-1.2588,-1.4019,-1.4399,-1.4695,-1.6306,-1.6627,-1.6702,0.0,0.0,0.0,-1.7721,-1.8203,-1.8631,-1.8631,-1.8942,-1.9243,-1.9202,-2.1155,-2.2519,-2.2153,-2.4554,-2.6644,-2.7843,-2.8043,-2.8123,-2.8056,-2.8056,-2.8083,-2.8136,-2.8096,-2.8083,-2.8136,-2.7909,-2.7789,-2.7789,-2.7562,-2.7402,-2.7348,-2.7108,-2.6934,-2.6814,-2.6587,-2.644,-2.6386,-2.6386,-2.6386,-2.64,-2.6694,-2.6827,-2.6867,-2.7402,-2.7615,-2.7642,-2.8003,-2.8511,-2.9045,-2.9045,-2.9406,-2.9913,-0.9822,-0.9822,-0.9822,-0.9822,-0.9822,-0.9869,-0.9998,-1.0025,-1.0073,-1.0209,-1.0351,-1.0446,-1.0466,-1.0711,-1.0873,-1.0873,-1.1002,-1.1036,-1.0907,-1.0914,-1.0921,-1.0921,-1.0921,-1.0982,-1.1111,-1.1111,-1.1118,-1.1138,-1.1138,-1.1145,-1.1165,-1.1165,-1.1246,-1.1396,-1.1511,-1.1579,-1.1599,-1.1728,-1.1938,-1.2189,-1.221,-1.2155,-1.2081,-1.225,-1.2488,-1.2766,-1.3044,-1.3234,-1.3329,-1.3193,-1.3125,-1.303,-1.2651,-1.2691,-1.2779,-1.2244,-1.2271,-1.2413,-1.2435,-1.2352,-1.2501,-1.265,-1.2756,-1.2863,-1.2885,0.0,-1.3267,-1.3288,0.0,-1.5906,-1.5906,0.0,0.0,-1.852,-1.9018,-1.9471,-1.9604,-2.0347,-2.2293,-2.641,-2.7669,-2.8043,-2.7776,-2.7749,-2.7856,-2.8123,-2.7896,-2.7869,-2.8123,-2.811,-2.8096,-2.8096,-2.8056,-2.7909,-2.7655,-2.7615,-2.7335,-2.6827,-2.6787,-2.664,-2.6386,-2.6386,-2.6386,-2.64,-2.6694,-2.6827,-2.6854,-2.7175,-2.7321,-2.7375,-2.7923,-2.8511,-2.9045,-2.9045,-2.9406,-2.9913,-0.9741,-0.989,-0.9951,-0.9951,-1.0025,-1.0107,-1.0175,-1.0181,-1.0236,-1.0385,-1.0453,-1.0527,-1.0616,-1.0738,-1.0719,-1.0819,-1.0879,-1.0893,-1.0975,-1.0913,-1.092,-1.0955,-1.1029,-1.1097,-1.1158,-1.1165,-1.1206,-1.1294,-1.1294,-1.1341,-1.143,-1.143,-1.1504,-1.1647,-1.1714,-1.1789,-1.1884,-1.2033,-1.2121,-1.2176,-1.2345,-1.2372,-1.2352,-1.2678,-1.299,-1.3268,-1.3397,-1.3532,-1.3648,-1.358,-1.3444,-1.3302,-1.3281,-1.3186,-1.3051,-1.2888,-1.2861,-1.2827,-1.2528,-1.2515,-1.2542,-1.2359,-1.2433,-1.2522,-1.2433,-1.2461,-1.2501,-1.2501,0.0,0.0,0.0,0.0,0.0,0.0,-1.6256,-1.7161,-1.7051,-1.873,-2.1166,-2.4603,-2.5477,-2.6274,-2.7503,-2.7856,-2.8003,-2.8136,-2.803,-2.8003,-2.8136,-2.8136,-2.8136,-2.8136,-2.8136,-2.8083,-2.7963,-2.7789,-2.7575,-2.7321,-2.6987,-2.676,-2.664,-2.6466,-2.6386,-2.64,-2.652,-2.5909,-2.4628,-2.5063,-2.4347,-2.3223,-2.3758,-2.5859,-2.8804,-2.8978,-2.9406,-2.9734,-0.8617,-0.9287,-1.0002,-1.0134,-1.0222,-1.0304,-1.0344,-1.0385,-1.0453,-1.0561,-1.0511,-1.0605,-1.0712,-1.0839,-1.0822,-1.0809,-0.9986,-0.9427,-0.9533,-1.0582,-1.1014,-1.0942,-1.1219,-1.1267,-1.1355,-1.1314,-1.1341,-1.1457,-1.1457,-1.1511,-1.1619,-1.1619,-1.1674,-1.1775,-1.1857,-1.1959,-1.2074,-1.2271,-1.2332,-1.2325,-1.2542,-1.2698,-1.284,-1.3125,-1.3424,-1.3688,-1.3688,-1.3749,-1.3838,-1.3797,-1.3641,-1.3492,-1.3668,-1.3526,-1.3308,-1.3376,-1.3349,-1.3234,-1.2935,-1.2935,-1.2956,-1.2691,-1.2712,-1.2766,-1.2651,-1.263,-1.263,-1.263,-1.263,0.0,0.0,0.0,-1.2549,-1.2508,0.0,-1.4911,-1.4581,-1.6476,-1.8957,-2.2076,-2.2624,-2.3587,-2.555,-2.653,-2.6903,-2.628,-2.6812,-2.7188,-2.7266,-2.7279,-2.7617,-2.815,-2.8136,-2.7968,-2.7279,-2.7071,-2.6581,-2.5812,-2.5413,-2.5151,-2.4988,-2.4801,-2.4664,-2.4602,-2.4602,-2.3792,-2.2189,-2.2531,-2.1622,-2.017,-2.0558,-2.3056,-2.6473,-2.6735,-2.736,-2.7491,-0.5646,-0.7591,-0.9947,-1.021,-1.0324,-1.0365,-1.0377,-1.0518,-1.0751,-1.0658,-1.0626,-1.0657,-1.0664,-1.1038,-1.1142,-1.1148,-0.7927,-0.5982,-0.5914,-0.9356,-1.1273,-1.1142,-1.1279,-1.1389,-1.155,-1.1543,-1.1606,-1.1613,-1.1613,-1.1613,-1.1619,-1.1619,-1.1619,-1.164,-1.1925,-1.2054,-1.2081,-1.2372,-1.2664,-1.2935,-1.2942,-1.3207,-1.358,-1.3444,-1.358,-1.3831,-1.3831,-1.3838,-1.3817,-1.3682,-1.3627,-1.36,-1.3458,-1.3505,-1.3587,-1.3444,-1.3505,-1.3546,-1.3241,-1.3159,-1.3132,-1.2983,-1.2949,-1.2949,-1.2949,-1.2949,-1.2949,-1.2949,-1.2949,-1.2949,-1.2949,-1.2827,-1.2671,-1.2528,-1.2508,0.0,0.0,-1.258,-1.4261,-1.8608,-1.983,-2.0323,-2.0724,-2.2785,-2.3355,-2.1387,-2.3112,-2.4421,-2.485,-2.4861,-2.5896,-2.8136,-2.8136,-2.7109,-2.4861,-2.485,-2.3517,-2.1068,-2.1047,-2.0813,-2.0385,-2.0385,-2.0262,-2.0069,-2.0069,-2.0069,-2.0069,-2.0079,-1.9917,-1.9937,-2.016,-2.068,-2.1268,-2.1495,-2.1864,-2.2286,-0.4643,-0.5844,-0.6621,-0.6671,-0.6967,-0.7827,-1.03,-0.8644,-0.7233,-0.7164,-0.7144,-0.7248,-0.717,-0.7263,-0.824,-1.073,-0.9794,-0.7073,-0.2223,-0.5493,-0.8785,-1.1032,-1.1385,-1.1502,-1.1577,-1.1563,-1.1619,-1.1619,-1.1619,-1.1619,-1.1619,-1.1619,-1.1667,-1.1769,-1.1972,-1.2169,-1.2372,-1.2678,-1.2922,-1.3119,-1.3322,-1.3553,-1.3763,-1.3709,-1.3817,-1.3994,-1.3994,-1.4061,-1.4136,-1.4089,-1.4007,-1.3933,-1.398,-1.3892,-1.3777,-1.3831,-1.381,-1.3729,-1.3532,-1.3546,-1.3532,-1.3186,-1.318,-1.32,-1.3003,-1.2963,-1.2963,-1.2963,-1.2963,-1.2963,-1.2963,-1.2915,-1.2868,-1.2813,-1.2718,-1.2637,0.0,-1.2535,-1.2979,-1.4562,-1.7976,-2.0089,-2.0323,-2.1305,-2.1652,-2.1047,-2.1713,-2.2182,-2.2428,-2.2439,-2.2772,-2.3458,-2.3641,-2.3126,-2.2428,-2.2439,-2.187,-2.111,-2.0958,-2.0736,-2.0443,-2.0126,-2.0109,-1.9907,-1.9907,-1.9095,-1.7792,-1.7792,-1.682,-1.5687,-1.575,-1.5981,-1.6657,-2.0038,-2.1669,-2.1888,-0.2694,-0.31,-0.3222,-0.3183,-0.3333,-0.5108,-0.9924,-0.8758,-0.6356,-0.379,-0.3416,-0.3469,-0.3529,-0.3417,-0.4357,-0.6717,-0.6953,-0.4948,-0.0305,-0.2298,-0.5985,-1.1194,-1.0243,-1.022,-1.1611,-1.1554,-1.159,-1.159,-1.1677,-1.165,-1.1643,-1.1782,-1.1823,-1.1918,-1.2074,-1.2305,-1.2603,-1.2908,-1.3152,-1.3363,-1.3668,-1.3844,-1.3933,-1.3987,-1.4034,-1.4082,-1.4136,-1.4217,-1.4299,-1.4299,-1.4238,-1.417,-1.4272,-1.4163,-1.4021,-1.4122,-1.4082,-1.3973,-1.3824,-1.3851,-1.3838,-1.3498,-1.3485,-1.3492,-1.3254,-1.32,-1.32,-1.32,-1.3152,-1.3152,-1.3254,-1.3146,-1.3057,-1.3112,-1.2949,-1.2793,0.0,-1.2644,-1.2562,-1.2508,-1.5398,-1.753,-1.7665,-1.8753,-1.9288,-1.8659,-1.9312,-1.9933,-2.0009,-2.0009,-2.0356,-2.1221,-2.1221,-2.0875,-2.0009,-2.0009,-1.9488,-1.8802,-1.8503,-1.8299,-1.8202,-1.7909,-1.7714,-1.7638,-1.7638,-1.682,-1.5514,-1.5514,-1.4706,-1.3403,-1.3403,-1.358,-1.4201,-1.7467,-1.9048,-1.9106,-0.0,-0.0,-0.0,-0.0,-0.0,-0.2296,-0.9097,-1.011,-0.7678,-0.0858,-0.0,-0.0,-0.0,-0.0,-0.0,-0.0,-0.0,-0.0,-0.0,-0.0,-0.3356,-1.0639,-0.7744,-0.7409,-1.0924,-1.1274,-1.1275,-1.1275,-1.1428,-1.1652,-1.1958,-1.2081,-1.2067,-1.2081,-1.223,-1.2461,-1.2773,-1.3051,-1.3356,-1.3675,-1.3966,-1.4082,-1.4089,-1.4245,-1.4204,-1.4089,-1.4245,-1.4299,-1.4299,-1.4299,-1.4299,-1.4299,-1.4299,-1.4299,-1.4299,-1.4299,-1.4299,-1.4272,-1.4122,-1.4082,-1.4048,-1.3892,-1.3851,-1.3817,-1.3675,-1.3641,-1.3641,-1.3641,-1.3526,-1.3505,-1.3777,-1.3485,-1.3241,-1.3376,-1.3159,-1.2915,-1.2766,-1.2739,-1.2684,-1.2528,-1.2651,-1.2847,-1.3125,-1.542,-1.6076,-1.4187,-1.6113,-1.7396,-1.758,-1.758,-1.8618,-2.0875,-2.0875,-1.9836,-1.7588,-1.7588,-1.6553,-1.4299,-1.4299,-1.4136,-1.3838,-1.3838,-1.3682,-1.3403,-1.3403,-1.3403,-1.3403,-1.3403,-1.3403,-1.3403,-1.3403,-1.358,-1.3844,-1.3858,-1.4136,-1.4502,-0.0,-0.0,-0.0,-0.0,-0.0,-0.0686,-0.2506,-0.2697,-0.203,-0.0298,-0.0,-0.0,-0.0,-0.0,-0.0,-0.0,-0.0,-0.0,-0.0,-0.0,-0.0969,-0.2917,-0.4752,-0.4876,-0.303,-0.5761,-0.7225,-0.7225,-0.7284,-0.891,-1.1985,-1.2128,-1.2169,-1.2105,-1.2146,-1.2589,-1.3064,-1.3139,-1.3478,-1.3973,-1.4163,-1.4177,-1.4089,-1.4245,-1.4204,-1.4089,-1.4245,-1.4299,-1.4299,-1.4299,-1.4299,-1.4299,-1.4299,-1.4299,-1.4299,-1.4299,-1.4299,-1.4292,-1.4251,-1.4245,-1.4204,-1.4048,-1.4014,-1.3973,-1.3824,-1.3783,-1.3783,-1.3783,-1.3756,-1.3722,-1.3688,-1.3587,-1.3485,-1.341,-1.3241,-1.3071,-1.2922,-1.2901,-1.284,-1.2691,-1.2807,-1.2888,-1.2847,-1.3767,-1.428,-1.3736,-1.4456,-1.4995,-1.5161,-1.5053,-1.5388,-1.6034,-1.6034,-1.5866,-1.5168,-1.5168,-1.4822,-1.4299,-1.4299,-1.4136,-1.3838,-1.3838,-1.3682,-1.3403,-1.3403,-1.3403,-1.3403,-1.3403,-1.3403,-1.3403,-1.3403,-1.358,-1.3871,-1.4095,-1.4258,-1.4353,-0.0,-0.0,-0.0,-0.0,-0.0,-0.0,-0.0,-0.0,-0.0,-0.0,-0.0,-0.0,-0.0,-0.0,-0.0,-0.0,-0.0,-0.0,-0.0,-0.0,-0.0,-0.0,-0.2132,-0.2287,-0.0,-0.2089,-0.3324,-0.3306,-0.3263,-0.4465,-0.6907,-0.8755,-0.9561,-0.9767,-1.156,-1.2594,-1.2963,-1.3231,-1.3729,-1.4089,-1.4251,-1.4224,0.0,-1.4163,-1.4102,-1.398,-1.4068,-1.4183,-1.4299,-1.4299,-1.4299,-1.4299,-1.4299,-1.4299,-1.4299,-1.4299,-1.4299,-1.4299,-1.4299,-1.4299,-1.4278,-1.419,-1.417,-1.4129,-1.398,-1.3939,-1.3939,-1.3939,-1.3885,-1.3858,-1.3912,-1.3763,-1.358,-1.3424,-1.3329,-1.322,-1.3071,-1.3051,-1.2996,-1.2847,-1.2908,-1.2929,-1.284,-1.3254,-1.3559,-1.3627,-1.3844,-1.4007,-1.4095,-1.4082,-1.4109,-1.4197,-1.4265,-1.4299,-1.4299,-1.4299,-1.4299,-1.4299,-1.4299,-1.4136,-1.3838,-1.3838,-1.3682,-1.3403,-1.3403,-1.3403,-1.3403,-1.3403,-1.3403,-1.341,-1.3546,-1.3695,-1.3878,-1.419,-1.4299,-1.4299,-0.0,-0.0,-0.0,-0.0,-0.0,-0.0,-0.0,-0.0,-0.0,-0.0,-0.0,-0.0,-0.0,-0.0,-0.0,-0.0,-0.0,-0.0,-0.0,-0.0,-0.0,-0.0,-0.0,-0.0,-0.0,-0.0,-0.0,-0.0,-0.0,-0.0,-0.0157,-0.3772,-0.5501,-0.5658,-0.9887,-1.1653,-1.183,-1.3193,-1.3641,-1.3203,-1.4062,-1.4204,-1.4055,-1.4055,-1.3973,-1.3851,-1.3851,-1.4021,-1.4238,-1.4238,-1.4251,-1.4272,-1.4272,-1.4285,-1.4299,-1.4299,-1.4299,-1.4299,-1.4299,-1.4299,-1.4299,-1.4299,-1.4299,-1.4265,-1.4129,-1.4102,-1.4102,-1.4102,-1.3994,-1.3973,-1.4224,-1.3933,-1.3607,-1.3458,-1.3444,-1.341,-1.3275,-1.3261,-1.32,-1.3037,-1.3037,0.0,-1.2969,-1.3227,-1.3458,-1.3587,-1.3729,-1.3831,-1.3871,-1.398,-1.4061,-1.4102,-1.4231,-1.4299,-1.4299,-1.4299,-1.4299,-1.4299,-1.4299,-1.4136,-1.3838,-1.3838,-1.3682,-1.3403,-1.3403,-1.3403,-1.3403,-1.3403,-1.3403,-1.3431,-1.3729,-1.3838,-1.3878,-1.419,-1.4299,-1.4299,-0.0,-0.0,-0.0,-0.0,-0.0,-0.0,-0.0,-0.0,-0.0,-0.0,-0.0,-0.0,-0.0,-0.0,-0.0,-0.0,-0.0,-0.0,-0.0,-0.0,-0.0,-0.0,-0.0,-0.0,-0.0,-0.0,-0.0,-0.0,-0.0,-0.0,-0.0,-0.0808,-0.113,-0.1288,0.0,-0.7409,-0.7615,-1.1915,-1.1715,-0.8611,-1.2631,-1.4354,-1.4146,-1.3966,-1.3774,-1.3753,-1.3753,-1.3926,-1.3919,-1.3919,-1.4007,-1.4116,-1.4116,-1.4197,-1.4299,-1.4299,-1.4299,-1.4299,-1.4299,-1.4299,-1.4299,-1.4299,-1.4299,-1.4292,-1.4265,-1.4258,-1.4258,-1.4258,-1.4238,-1.4197,-1.4122,-1.3946,-1.3756,-1.3614,-1.3688,-1.3756,-1.3729,-1.3722,-1.3627,-1.3356,-1.3437,-1.337,-1.2996,-1.3227,-1.341,-1.3437,-1.358,-1.377,-1.4021,-1.3939,-1.4,-1.4251,-1.4285,-1.4299,-1.4299,-1.4299,-1.4299,-1.4299,-1.4299,-1.4136,-1.3838,-1.3838,-1.3682,-1.3403,-1.3403,-1.3403,-1.3403,-1.3403,-1.3403,-1.3431,-1.3729,-1.3838,-1.3878,-1.419,-1.4299,-1.4299,-0.0,-0.0,-0.0,-0.0,-0.0,-0.0,-0.0,-0.0,-0.0,-0.0,-0.0,-0.0,-0.0,-0.0,-0.0,-0.0,-0.0,-0.0,-0.0,-0.0,-0.0,-0.0,-0.0,-0.0,-0.0,-0.0,-0.0,-0.0,-0.0,-0.0,-0.0,-0.0,-0.0,-0.0163,-0.2139,-0.3001,-0.3213,-0.5684,-0.6762,-0.6918,-0.6928,-0.8297,-1.0501,-1.0325,-1.0289,-1.0068,-1.0068,-1.0053,-1.0567,-1.2962,-1.3946,-1.4007,-1.4187,-1.4222,-1.4109,-1.419,-1.4197,-1.4197,-1.4278,-1.4299,-1.4299,-1.4299,-1.4299,-1.4299,-1.4299,-1.4299,-1.4299,-1.4299,-1.4299,-1.4251,-1.4102,-1.3946,-1.3817,-1.3749,-1.3736,-1.3756,-1.3831,-1.3838,-1.379,-1.3648,-1.3627,-1.3546,-1.3329,-1.3363,-1.3403,-1.3403,-1.3546,-1.3722,-1.3939,-1.3878,-1.3946,-1.4177,-1.4258,-1.4299,-1.4299,-1.4299,-1.4299,-1.4299,-1.4299,-1.4136,-1.3838,-1.3838,-1.3682,-1.3403,-1.3403,-1.3403,-1.3403,-1.3403,-1.3403,-1.3431,-1.3729,-1.3838,-1.3878,-1.419,-1.4299,-1.4299,-0.0,-0.0,-0.0,-0.0,-0.0,-0.0,-0.0,-0.0,-0.0,-0.0,-0.0,-0.0,-0.0,-0.0,-0.0,-0.0,-0.0,-0.0,-0.0,-0.0,-0.0,-0.0,-0.0,-0.0,-0.0,-0.0,-0.0,-0.0,-0.0,-0.0,-0.0,-0.0,-0.0,-0.0,-0.0,-0.0,-0.0,-0.0,-0.206,-0.4942,-0.1373,-0.2225,-0.56,-0.56,-0.6081,-0.6714,-0.6714,-0.6714,-0.7238,-1.0998,-1.2294,-1.2306,-1.2656,-1.2662,-1.2693,-1.3874,-1.4095,-1.4122,-1.4238,-1.4299,-1.4319,-1.4319,-1.4319,-1.4312,-1.4312,-1.4306,-1.4299,-1.4299,-1.4299,-1.4251,-1.4102,-1.4,-1.3926,-1.3899,-1.3824,-1.381,-1.3919,-1.3939,-1.3926,-1.3892,-1.379,-1.3709,-1.3675,-1.3566,-1.3492,-1.3492,-1.358,-1.3688,-1.3831,-1.3838,-1.3912,-1.4068,-1.419,-1.4251,-1.4251,-1.4285,-1.4299,-1.4299,-1.4299,-1.4136,-1.3838,-1.3838,-1.3682,-1.3403,-1.3403,-1.3403,-1.3403,-1.3403,-1.3417,-1.3478,-1.3736,-1.3858,-1.3926,-1.4197,-1.4299,-1.4299,-0.0,-0.0,-0.0,-0.0,-0.0,-0.0,-0.0,-0.0,-0.0,-0.0,-0.0,-0.0,-0.0,-0.0,-0.0,-0.0,-0.0,-0.0,-0.0,-0.0,-0.0,-0.0,-0.0,-0.0,-0.0,-0.0,-0.0,-0.0,-0.0,-0.0,-0.0,-0.0,-0.0,-0.0,-0.0,-0.0,-0.0,-0.0,-0.017,-0.0513,-0.017,-0.0337,-0.0674,-0.0674,-0.3202,-0.6748,-0.6748,-0.6748,-0.6751,-0.7274,-0.7304,-0.7333,-0.7333,-0.7555,-0.849,-1.2712,-1.4061,-1.4345,-1.4366,-1.4292,-1.4216,-1.4216,-1.4373,-1.4346,-1.4346,-1.4319,-1.4299,-1.4299,-1.4299,-1.4251,-1.4102,-1.4177,-1.4211,-1.4075,-1.4156,-1.4245,-1.4258,-1.4258,-1.4204,-1.4068,-1.4041,-1.3973,-1.3831,-1.3804,-1.3797,-1.3797,-1.3695,-1.3688,-1.3831,-1.3838,-1.3912,-1.4068,-1.4089,-1.4095,-1.4095,-1.4231,-1.4299,-1.4299,-1.4299,-1.4136,-1.3838,-1.3838,-1.3682,-1.3403,-1.3403,-1.3403,-1.3403,-1.3403,-1.3485,-1.3627,-1.3777,-1.3926,-1.4068,-1.4238,-1.4299,-1.4299,-0.0,-0.0,-0.0,-0.0,-0.0,-0.0,-0.0,-0.0,-0.0,-0.0,-0.0,-0.0,-0.0,-0.0,-0.0,-0.0,-0.0,-0.0,-0.0,-0.0,-0.0,-0.0,-0.0,-0.0,-0.0,-0.0,-0.0,-0.0,-0.0,-0.0,-0.0,-0.0,-0.0,-0.0,-0.0,-0.0,-0.0,-0.0,-0.0,-0.0,-0.0,-0.0,-0.0,-0.0,-0.1179,-0.2697,-0.2697,-0.2697,-0.2697,-0.2697,-0.2699,-0.2705,-0.2705,-0.271,-0.3229,-0.4964,-0.7574,-0.9697,-0.9937,-1.0029,-0.9935,-0.9935,-0.9978,-1.0738,-1.3649,-1.4373,-1.436,-1.4333,-1.4312,-1.4278,-1.4217,-1.4183,-1.4177,-1.4204,-1.4183,-1.4197,-1.4285,-1.4299,-1.4278,-1.4217,-1.4129,-1.4048,-1.3987,-1.3899,-1.3838,-1.3838,-1.379,-1.3783,-1.3838,-1.3933,-1.4007,-1.4068,-1.4163,-1.4211,-1.4211,-1.4272,-1.4299,-1.4299,-1.4299,-1.4136,-1.3838,-1.3838,-1.3682,-1.3403,-1.3403,-1.3403,-1.3403,-1.3403,-1.3492,-1.3641,-1.3783,-1.3933,-1.4089,-1.4245,-1.4299,-1.4299,-0.0,-0.0,-0.0,-0.0,-0.0,-0.0,-0.0,-0.0,-0.0,-0.0,-0.0,-0.0,-0.0,-0.0,-0.0,-0.0,-0.0,-0.0,-0.0,-0.0,-0.0,-0.0,-0.0,-0.0,-0.0,-0.0,-0.0,-0.0,-0.0,-0.0,-0.0,-0.0,-0.0,-0.0,-0.0,-0.0,-0.0,-0.0,-0.0,-0.0,-0.0,-0.0,-0.0,-0.0,-0.0,-0.0,-0.0,-0.0,-0.0,-0.0,-0.0,-0.0,-0.0,-0.0,-0.0,-0.0,-0.2211,-0.4779,-0.4989,-0.5041,-0.5085,-0.4924,-0.4953,-0.6234,-1.112,-1.2217,-1.2568,-1.3991,-1.434,-1.4326,-1.4306,-1.4217,-1.4183,-1.4285,-1.4211,-1.4177,-1.4285,-1.4299,-1.4285,-1.4238,-1.4136,-1.4075,-1.4075,-1.3973,-1.3905,-1.3905,-1.3953,-1.3953,-1.3912,-1.4014,-1.4075,-1.4075,-1.4177,-1.4231,-1.4231,-1.4278,-1.4299,-1.4299,-1.4299,-1.4136,-1.3838,-1.3749,-1.36,-1.3403,-1.3403,-1.3403,-1.3403,-1.3403,-1.3512,-1.3702,-1.3804,-1.396,-1.415,-1.4258,-1.4299,-1.4299,-0.0,-0.0,-0.0,-0.0,-0.0,-0.0,-0.0,-0.0,-0.0,-0.0,-0.0,-0.0,-0.0,-0.0,-0.0,-0.0,-0.0,-0.0,-0.0,-0.0,-0.0,-0.0,-0.0,-0.0,-0.0,-0.0,-0.0,-0.0,-0.0,-0.0,-0.0,-0.0,-0.0,-0.0,-0.0,-0.0,-0.0,-0.0,-0.0,-0.0,-0.0,-0.0,-0.0,-0.0,-0.0,-0.0,-0.0,-0.0,-0.0,-0.0,-0.0,-0.0,-0.0,-0.0,-0.0,-0.0,-0.0,-0.0,-0.0,-0.0,-0.0,-0.0,-0.0,-0.1413,-0.6079,-0.716,-0.8579,-1.3268,-1.438,-1.438,-1.4312,-1.4326,-1.434,-1.4306,-1.4299,-1.4299,-1.4299,-1.4299,-1.4245,-1.4095,-1.4075,-1.4075,-1.4075,-1.4068,-1.4068,-1.4068,-1.4211,-1.4231,-1.4075,-1.4068,-1.4075,-1.4075,-1.4075,-1.4075,-1.4075,-1.4224,-1.4299,-1.4299,-1.4299,-1.4136,-1.3831,-1.3539,-1.3403,-1.3403,-1.3403,-1.3403,-1.3403,-1.3403,-1.3573,-1.3838,-1.3838,-1.4027,-1.4299,-1.4299,-1.4299,-1.4299,0.0667,-0.0,-0.0,-0.0,-0.0,-0.0,-0.0,-0.0,-0.0,-0.0,-0.0,-0.0,-0.0,-0.0,-0.0,-0.0,-0.0,-0.0,-0.0,-0.0,-0.0,-0.0,-0.0,-0.0,-0.0,-0.0,-0.0,-0.0,-0.0,-0.0,-0.0,-0.0,-0.0,-0.0,-0.0,-0.0,-0.0,-0.0,-0.0,-0.0,-0.0,-0.0,-0.0,-0.0,-0.0,-0.0,-0.0,-0.0,-0.0,-0.0,-0.0,-0.0,-0.0,-0.0,-0.0,-0.0,-0.0,-0.0,-0.0,-0.0,-0.0,-0.0,-0.0,-0.0354,-0.1968,-0.2327,-0.2681,-0.4287,-0.9678,-1.3299,-1.0011,-1.2011,-1.438,-1.4373,-1.4373,-1.4373,-1.4373,-1.4373,-1.4346,-1.4272,-1.4082,-1.4075,-1.4231,-1.4231,-1.4183,-1.4082,-1.4116,-1.4075,-1.3926,-1.4116,-1.4177,-1.4075,-1.4177,-1.4231,-1.4231,-1.4278,-1.4299,-1.4299,-1.4299,-1.4136,-1.3831,-1.3532,-1.3403,-1.3403,-1.3403,-1.3403,-1.3403,-1.3403,-1.3573,-1.3838,-1.3838,-1.4027,-1.4299,-1.4299,-1.4299,-1.4299,0.5535,0.3735,0.2063,0.0347,-0.0,-0.0,-0.0,-0.0,-0.0,-0.0,-0.0,-0.0,-0.0,-0.0,-0.0,-0.0,-0.0,-0.0,-0.0,-0.0,-0.0,-0.0,-0.0,-0.0,-0.0,-0.0,-0.0,-0.0,-0.0,-0.0,-0.0,-0.0,-0.0,-0.0,-0.0,-0.0,-0.0,-0.0,-0.0,-0.0,-0.0,-0.0,-0.0,-0.0,-0.0,-0.0,-0.0,-0.0,-0.0,-0.0,-0.0,-0.0,-0.0,-0.0,-0.0,-0.0,-0.0,-0.0,-0.0,-0.0,-0.0,-0.0,-0.0,-0.0,-0.0,-0.0,-0.0,-0.0,-0.4834,-0.8607,-0.7331,-0.8052,-0.95,-1.1303,-1.166,-1.166,-1.166,-1.166,-1.1638,-1.1577,-1.3015,-1.4095,-1.4075,-1.4238,-1.4217,-1.4183,-1.4163,-1.4116,-1.4021,-1.4143,-1.4197,-1.4156,-1.4251,-1.4299,-1.4299,-1.4299,-1.4299,-1.4299,-1.4183,-1.4027,-1.3831,-1.3532,-1.3403,-1.3403,-1.3403,-1.3403,-1.3403,-1.3403,-1.3573,-1.3838,-1.3838,-1.4027,-1.4299,-1.4299,-1.4299,-1.4299,1.3331,1.0078,0.5874,0.173,0.0692,0.0348,-0.0,-0.0,-0.0,-0.0,-0.0,-0.0,-0.0,-0.0,-0.0,-0.0,-0.0,-0.0,-0.0,-0.0,-0.0,-0.0,-0.0,-0.0,-0.0,-0.0,-0.0,-0.0,-0.0,-0.0,-0.0,-0.0,-0.0,-0.0,-0.0,-0.0,-0.0,-0.0,-0.0,-0.0,-0.0,-0.0,-0.0,-0.0,-0.0,-0.0,-0.0,-0.0,-0.0,-0.0,-0.0,-0.0,-0.0,-0.0,-0.0,-0.0,-0.0,-0.0,-0.0,-0.0,-0.0,-0.0,-0.0,-0.0,-0.0,-0.0,-0.0,-0.0,-0.0,-0.1434,-0.5722,-0.3039,-0.1431,-0.5898,-0.6611,-0.6611,-0.6611,-0.6611,-0.6589,-0.6523,-1.06,-1.3292,-1.3292,-1.3442,-1.3657,-1.4326,-1.4312,-1.4292,-1.4292,-1.4156,-1.4143,-1.4292,-1.4299,-1.4299,-1.4299,-1.4299,-1.4299,-1.4299,-1.3987,-1.3838,-1.3831,-1.3532,-1.3403,-1.3403,-1.3403,-1.3403,-1.3403,-1.341,-1.3587,-1.3844,-1.3851,-1.4041,-1.4299,-1.4299,-1.4299,-1.4299,1.3458,1.2495,1.1542,1.0454,0.7362,0.3948,0.0521,-0.0,-0.0,-0.0,-0.0,-0.0,-0.0,-0.0,-0.0,-0.0,-0.0,-0.0,-0.0,-0.0,-0.0,-0.0,-0.0,-0.0,-0.0,-0.0,-0.0,-0.0,-0.0,-0.0,-0.0,-0.0,-0.0,-0.0,-0.0,-0.0,-0.0,-0.0,-0.0,-0.0,-0.0,-0.0,-0.0,-0.0,-0.0,-0.0,-0.0,-0.0,-0.0,-0.0,-0.0,-0.0,-0.0,-0.0,-0.0,-0.0,-0.0,-0.0,-0.0,-0.0,-0.0,-0.0,-0.0,-0.0,-0.0,-0.0,-0.0,-0.0,-0.0,-0.0359,-0.1434,-0.0717,-0.0359,-0.1434,-0.1614,-0.1614,-0.1614,-0.1614,-0.1611,-0.1604,-0.2672,-0.4811,-0.8377,-0.8728,-1.0323,-1.4041,-1.4211,-1.4204,-1.3846,-1.3968,-1.417,-1.4299,-1.4299,-1.4299,-1.4299,-1.4299,-1.4299,-1.4299,-1.3987,-1.3838,-1.3831,-1.3532,-1.3403,-1.3403,-1.3403,-1.3403,-1.341,-1.3526,-1.3682,-1.3851,-1.3973,-1.4136,-1.4299,-1.4299,-1.4299,-1.4299,1.3424,1.3431,1.3464,1.3412,1.1362,0.9004,0.6528,0.4297,0.3107,0.3145,0.1225,-0.0,-0.0,-0.0,-0.0,-0.0,-0.0,-0.0,-0.0,-0.0,-0.0,-0.0,-0.0,-0.0,-0.0,-0.0,-0.0,-0.0,-0.0,-0.0,-0.0,-0.0,-0.0,-0.0,-0.0,-0.0,-0.0,-0.0,-0.0,-0.0,-0.0,-0.0,-0.0,-0.0,-0.0,-0.0,-0.0,-0.0,-0.0,-0.0,-0.0,-0.0,-0.0,-0.0,-0.0,-0.0,-0.0,-0.0,-0.0,-0.0,-0.0,-0.0,-0.0,-0.0,-0.0,-0.0,-0.0,-0.0,-0.0,-0.0,-0.0,-0.0,-0.0,-0.0,-0.0,-0.0,-0.0,-0.0,-0.0,-0.0,-0.0,-0.1075,-0.358,-0.3934,-0.4994,-0.7637,-0.9773,-1.0843,-1.0666,-1.0828,-1.1919,-1.4142,-1.4306,-1.4299,-1.4299,-1.4299,-1.4265,-1.419,-1.3953,-1.3804,-1.3736,-1.3505,-1.3403,-1.3403,-1.3403,-1.3403,-1.341,-1.3566,-1.3709,-1.3858,-1.4014,-1.4163,-1.4299,-1.4299,-1.4299,-1.4299,1.3403,1.3403,1.341,1.3437,1.3444,1.3331,1.3323,1.0223,0.7681,0.7769,0.4319,0.1729,0.1039,0.0347,-0.0,-0.0,-0.0,-0.0,-0.0,-0.0,-0.0,-0.0,-0.0,-0.0,-0.0,-0.0,-0.0,-0.0,-0.0,-0.0,-0.0,-0.0,-0.0,-0.0,-0.0,-0.0,-0.0,-0.0,-0.0,-0.0,-0.0,-0.0,-0.0,-0.0,-0.0,-0.0,-0.0,-0.0,-0.0,-0.0,-0.0,-0.0,-0.0,-0.0,-0.0,-0.0,-0.0,-0.0,-0.0,-0.0,-0.0,-0.0,-0.0,-0.0,-0.0,-0.0,-0.0,-0.0,-0.0,-0.0,-0.0,-0.0,-0.0,-0.0,-0.0,-0.0,-0.0,-0.0,-0.0,-0.0,-0.0,-0.0,-0.0,-0.0,-0.0,-0.0,-0.3755,-0.6258,-0.6978,-0.7153,-0.9304,-1.4189,-1.4333,-1.4312,-1.4306,-1.4285,-1.4204,-1.4068,-1.3892,-1.3743,-1.3627,-1.3471,-1.3403,-1.3403,-1.3403,-1.3403,-1.3417,-1.3587,-1.3729,-1.3858,-1.4034,-1.4183,-1.4299,-1.4299,-1.4299,-1.4299,1.3403,1.3403,1.3403,1.341,1.341,1.3431,1.3318,1.2811,1.2353,1.235,1.1675,0.9802,0.6055,0.2251,-0.0,-0.0,-0.0,-0.0,-0.0,-0.0,-0.0,-0.0,-0.0,-0.0,-0.0,-0.0,-0.0,-0.0,-0.0,-0.0,-0.0,-0.0,-0.0,-0.0,-0.0,-0.0,-0.0,-0.0,-0.0,-0.0,-0.0,-0.0,-0.0,-0.0,-0.0,-0.0,-0.0,-0.0,-0.0,-0.0,-0.0,-0.0,-0.0,-0.0,-0.0,-0.0,-0.0,-0.0,-0.0,-0.0,-0.0,-0.0,-0.0,-0.0,-0.0,-0.0,-0.0,-0.0,-0.0,-0.0,-0.0,-0.0,-0.0,-0.0,-0.0,-0.0,-0.0,-0.0,-0.0,-0.0,-0.0,-0.0,-0.0,-0.0,-0.0,-0.0,-0.0718,-0.2871,-0.6832,-0.7177,-0.9335,-1.4077,-1.4229,-1.4373,-1.4346,-1.4211,-1.4122,-1.4068,-1.3797,-1.3648,-1.3627,-1.3471,-1.3403,-1.3403,-1.3403,-1.3403,-1.3424,-1.3695,-1.3824,-1.3871,-1.4156,-1.4278,-1.4299,-1.4299,-1.4299,-1.4299,1.3403,1.3403,1.3403,1.3403,1.3403,1.3403,1.3424,1.3424,1.3458,1.3372,1.3398,1.2571,1.0562,0.8518,0.63,0.3741,0.1363,-0.0,-0.0,-0.0,-0.0,-0.0,-0.0,-0.0,-0.0,-0.0,-0.0,-0.0,-0.0,-0.0,-0.0,-0.0,-0.0,-0.0,-0.0,-0.0,-0.0,-0.0,-0.0,-0.0,-0.0,-0.0,-0.0,-0.0,-0.0,-0.0,-0.0,-0.0,-0.0,-0.0,-0.0,-0.0,-0.0,-0.0,-0.0,-0.0,-0.0,-0.0,-0.0,-0.0,-0.0,-0.0,-0.0,-0.0,-0.0,-0.0,-0.0,-0.0,-0.0,-0.0,-0.0,-0.0,-0.0,-0.0,-0.0,-0.0,-0.0,-0.0,-0.0,-0.0,-0.0,-0.0,-0.0,-0.0,-0.0,-0.0,-0.0,-0.0898,-0.3233,-0.323,-0.5386,-1.0272,-1.0416,-1.0362,-1.0465,-1.2922,-1.4061,-1.3878,-1.3743,-1.3634,-1.3559,-1.3471,-1.3431,-1.3431,-1.341,-1.3403,-1.3424,-1.3722,-1.3838,-1.3871,-1.4177,-1.4299,-1.4299,-1.4299,-1.4299,-1.4299,1.3403,1.3403,1.3403,1.3403,1.3403,1.3403,1.3403,1.3403,1.3403,1.3403,1.3424,1.3437,1.3437,1.3471,1.1951,0.8549,0.5028,0.2683,0.1676,0.1535,0.1034,-0.0,-0.0,-0.0,-0.0,-0.0,-0.0,-0.0,-0.0,-0.0,-0.0,-0.0,-0.0,-0.0,-0.0,-0.0,-0.0,-0.0,-0.0,-0.0,-0.0,-0.0,-0.0,-0.0,-0.0,-0.0,-0.0,-0.0,-0.0,-0.0,-0.0,-0.0,-0.0,-0.0,-0.0,-0.0,-0.0,-0.0,-0.0,-0.0,-0.0,-0.0,-0.0,-0.0,-0.0,-0.0,-0.0,-0.0,-0.0,-0.0,-0.0,-0.0,-0.0,-0.0,-0.0,-0.0,-0.0,-0.0,-0.0,-0.0,-0.0,-0.0,-0.0,-0.0,-0.0,-0.0,-0.0,-0.0,-0.0,-0.0,-0.1608,-0.5355,-0.5525,-0.5493,-0.543,-0.9114,-1.1479,-1.2319,-1.2119,-1.2053,-1.179,-1.1766,-1.2439,-1.3464,-1.3437,-1.3417,-1.3437,-1.3729,-1.3844,-1.3871,-1.4177,-1.4299,-1.4299,-1.4299,-1.4299,-1.4299,1.3403,1.3403,1.3403,1.3403,1.3403,1.3403,1.3403,1.3403,1.3403,1.3403,1.3403,1.3403,1.3403,1.3437,1.3284,1.2945,1.2631,1.0597,0.6533,0.6208,0.4372,0.0169,-0.0,-0.0,-0.0,-0.0,-0.0,-0.0,-0.0,-0.0,-0.0,-0.0,-0.0,-0.0,-0.0,-0.0,-0.0,-0.0,-0.0,-0.0,-0.0,-0.0,-0.0,-0.0,-0.0,-0.0,-0.0,-0.0,-0.0,-0.0,-0.0,-0.0,-0.0,-0.0,-0.0,-0.0,-0.0,-0.0,-0.0,-0.0,-0.0,-0.0,-0.0,-0.0,-0.0,-0.0,-0.0,-0.0,-0.0,-0.0,-0.0,-0.0,-0.0,-0.0,-0.0,-0.0,-0.0,-0.0,-0.0,-0.0,-0.0,-0.0,-0.0,-0.0,-0.0,-0.0,-0.0,-0.0,-0.0,-0.0,-0.0176,-0.0523,-0.0528,-0.0527,-0.052,-0.0859,-0.3242,-0.7661,-0.7417,-0.7212,-0.7208,-0.7205,-0.9402,-1.3331,-1.3331,-1.3478,-1.3471,-1.3593,-1.3693,-1.3871,-1.4177,-1.4299,-1.4299,-1.4299,-1.4299,-1.4299,1.3403,1.3403,1.3403,1.3403,1.3403,1.3403,1.3403,1.3403,1.3403,1.3403,1.3403,1.3403,1.3403,1.341,1.3417,1.3417,1.3451,1.2618,1.0909,1.0926,0.7558,0.0336,-0.0,-0.0,-0.0,-0.0,-0.0,-0.0,-0.0,-0.0,-0.0,-0.0,-0.0,-0.0,-0.0,-0.0,-0.0,-0.0,-0.0,-0.0,-0.0,-0.0,-0.0,-0.0,-0.0,-0.0,-0.0,-0.0,-0.0,-0.0,-0.0,-0.0,-0.0,-0.0,-0.0,-0.0,-0.0,-0.0,-0.0,-0.0,-0.0,-0.0,-0.0,-0.0,-0.0,-0.0,-0.0,-0.0,-0.0,-0.0,-0.0,-0.0,-0.0,-0.0,-0.0,-0.0,-0.0,-0.0,-0.0,-0.0,-0.0,-0.0,-0.0,-0.0,-0.0,-0.0,-0.0,-0.0,-0.0,-0.0,-0.0,-0.0,-0.0,-0.0,-0.0,-0.0,-0.0851,-0.2703,-0.2524,-0.252,-0.252,-0.2515,-0.3521,-0.52,-0.8056,-0.9268,-0.9502,-1.2264,-1.3621,-1.3887,-1.4258,-1.4333,-1.4326,-1.4306,-1.4299,-1.4299,1.3403,1.3403,1.3403,1.3403,1.3403,1.3403,1.3403,1.3403,1.3403,1.3403,1.3403,1.3403,1.3403,1.3403,1.3403,1.3403,1.3424,1.3437,1.3437,1.3464,1.0085,0.2514,0.2182,0.1513,-0.0,-0.0,-0.0,-0.0,-0.0,-0.0,-0.0,-0.0,-0.0,-0.0,-0.0,-0.0,-0.0,-0.0,-0.0,-0.0,-0.0,-0.0,-0.0,-0.0,-0.0,-0.0,-0.0,-0.0,-0.0,-0.0,-0.0,-0.0,-0.0,-0.0,-0.0,-0.0,-0.0,-0.0,-0.0,-0.0,-0.0,-0.0,-0.0,-0.0,-0.0,-0.0,-0.0,-0.0,-0.0,-0.0,-0.0,-0.0,-0.0,-0.0,-0.0,-0.0,-0.0,-0.0,-0.0,-0.0,-0.0,-0.0,-0.0,-0.0,-0.0,-0.0,-0.0,-0.0,-0.0,-0.0,-0.0,-0.0,-0.0,-0.0,-0.0,-0.0,-0.0,-0.0,-0.0,-0.0,-0.0,-0.0,-0.0,-0.0168,-0.32,-0.4569,-0.4777,-0.7972,-1.0165,-1.1664,-1.1954,-1.2906,-1.4367,-1.434,-1.4333,-1.4333,1.3403,1.3403,1.3403,1.3403,1.3403,1.3403,1.3403,1.3403,1.3403,1.3403,1.3403,1.3403,1.3403,1.3403,1.3403,1.3403,1.3403,1.3403,1.3403,1.3437,1.1421,0.6871,0.6703,0.4691,0.0168,-0.0,-0.0,-0.0,-0.0,-0.0,-0.0,-0.0,-0.0,-0.0,-0.0,-0.0,-0.0,-0.0,-0.0,-0.0,-0.0,-0.0,-0.0,-0.0,-0.0,-0.0,-0.0,-0.0,-0.0,-0.0,-0.0,-0.0,-0.0,-0.0,-0.0,-0.0,-0.0,-0.0,-0.0,-0.0,-0.0,-0.0,-0.0,-0.0,-0.0,-0.0,-0.0,-0.0,-0.0,-0.0,-0.0,-0.0,-0.0,-0.0,-0.0,-0.0,-0.0,-0.0,-0.0,-0.0,-0.0,-0.0,-0.0,-0.0,-0.0,-0.0,-0.0,-0.0,-0.0,-0.0,-0.0,-0.0,-0.0,-0.0,-0.0,-0.0,-0.0,-0.0,-0.0,-0.0,-0.0,-0.0,-0.0,-0.0,-0.0,-0.0,-0.0,-0.0,-0.2638,-0.6689,-0.6941,-1.003,-1.4222,-1.4222,-1.4222,-1.4222,1.3403,1.3403,1.3403,1.3403,1.3403,1.3403,1.3403,1.3403,1.3403,1.3403,1.3403,1.3403,1.3403,1.3403,1.3403,1.3403,1.3403,1.3444,1.3553,1.3661,1.303,1.1822,1.1519,1.077,0.9416,0.6372,0.3184,-0.0,-0.0,-0.0,-0.0,-0.0,-0.0,-0.0,-0.0,-0.0,-0.0,-0.0,-0.0,-0.0,-0.0,-0.0,-0.0,-0.0,-0.0,-0.0,-0.0,-0.0,-0.0,-0.0,-0.0,-0.0,-0.0,-0.0,-0.0,-0.0,-0.0,-0.0,-0.0,-0.0,-0.0,-0.0,-0.0,-0.0,-0.0,-0.0,-0.0,-0.0,-0.0,-0.0,-0.0,-0.0,-0.0,-0.0,-0.0,-0.0,-0.0,-0.0,-0.0,-0.0,-0.0,-0.0,-0.0,-0.0,-0.0,-0.0,-0.0,-0.0,-0.0,-0.0,-0.0,-0.0,-0.0,-0.0,-0.0,-0.0,-0.0,-0.0,-0.0,-0.0,-0.0,-0.0,-0.0,-0.0,-0.0,-0.0,-0.0,-0.0,-0.0709,-0.1962,-0.2143,-0.3039,-0.4651,-0.8052,-0.9308,-0.9308,1.3403,1.3403,1.3403,1.3403,1.3403,1.3403,1.3403,1.3403,1.3403,1.3403,1.3451,1.3492,1.3492,1.3539,1.3573,1.3573,1.3573,1.3614,1.3709,1.379,1.3838,1.3838,1.3709,1.3472,1.3485,1.0889,0.8154,0.5439,0.3735,0.1876,-0.0,-0.0,-0.0,-0.0,-0.0,-0.0,-0.0,-0.0,-0.0,-0.0,-0.0,-0.0,-0.0,-0.0,-0.0,-0.0,-0.0,-0.0,-0.0,-0.0,-0.0,-0.0,-0.0,-0.0,-0.0,-0.0,-0.0,-0.0,-0.0,-0.0,-0.0,-0.0,-0.0,-0.0,-0.0,-0.0,-0.0,-0.0,-0.0,-0.0,-0.0,-0.0,-0.0,-0.0,-0.0,-0.0,-0.0,-0.0,-0.0,-0.0,-0.0,-0.0,-0.0,-0.0,-0.0,-0.0,-0.0,-0.0,-0.0,-0.0,-0.0,-0.0,-0.0,-0.0,-0.0,-0.0,-0.0,-0.0,-0.0,-0.0,-0.0,-0.0,-0.0,-0.0,-0.0,-0.0,-0.0,-0.0,-0.0,-0.0,-0.0,-0.0,-0.0358,-0.3221,-0.4295,-0.4295,1.3403,1.3403,1.3403,1.3403,1.3403,1.3403,1.3403,1.341,1.3424,1.3424,1.3553,1.3648,1.3648,1.3763,1.3838,1.3838,1.3851,1.3865,1.3865,1.3871,1.3878,1.3878,1.3878,1.3899,1.3753,1.3727,1.3727,1.3767,0.9707,0.554,0.1214,0.0867,0.0698,0.053,0.0177,-0.0,-0.0,-0.0,-0.0,-0.0,-0.0,-0.0,-0.0,-0.0,-0.0,-0.0,-0.0,-0.0,-0.0,-0.0,-0.0,-0.0,-0.0,-0.0,-0.0,-0.0,-0.0,-0.0,-0.0,-0.0,-0.0,-0.0,-0.0,-0.0,-0.0,-0.0,-0.0,-0.0,-0.0,-0.0,-0.0,-0.0,-0.0,-0.0,-0.0,-0.0,-0.0,-0.0,-0.0,-0.0,-0.0,-0.0,-0.0,-0.0,-0.0,-0.0,-0.0,-0.0,-0.0,-0.0,-0.0,-0.0,-0.0,-0.0,-0.0,-0.0,-0.0,-0.0,-0.0,-0.0,-0.0,-0.0,-0.0,-0.0,-0.0,-0.0,-0.0,-0.0,-0.0,-0.0,-0.0,-0.0,-0.0,-0.0,-0.0,-0.0,1.3403,1.3403,1.3403,1.3403,1.3403,1.3403,1.3403,1.3505,1.358,1.358,1.3702,1.3797,1.3797,1.3824,1.3838,1.3838,1.3953,1.4021,1.4021,1.4136,1.4204,1.4204,1.4204,1.4204,1.4211,1.3973,1.3871,1.3905,1.3019,1.2032,1.1089,0.7367,0.564,0.5347,0.1604,-0.0,-0.0,-0.0,-0.0,-0.0,-0.0,-0.0,-0.0,-0.0,-0.0,-0.0,-0.0,-0.0,-0.0,-0.0,-0.0,-0.0,-0.0,-0.0,-0.0,-0.0,-0.0,-0.0,-0.0,-0.0,-0.0,-0.0,-0.0,-0.0,-0.0,-0.0,-0.0,-0.0,-0.0,-0.0,-0.0,-0.0,-0.0,-0.0,-0.0,-0.0,-0.0,-0.0,-0.0,-0.0,-0.0,-0.0,-0.0,-0.0,-0.0,-0.0,-0.0,-0.0,-0.0,-0.0,-0.0,-0.0,-0.0,-0.0,-0.0,-0.0,-0.0,-0.0,-0.0,-0.0,-0.0,-0.0,-0.0,-0.0,-0.0,-0.0,-0.0,-0.0,-0.0,-0.0,-0.0,-0.0,-0.0,-0.0,-0.0,-0.0,1.3607,1.3607,1.3607,1.3607,1.3607,1.3607,1.3607,1.3682,1.3729,1.3729,1.3858,1.3953,1.3953,1.4014,1.4061,1.4061,1.4136,1.4183,1.4183,1.4258,1.4299,1.4299,1.4299,1.4299,1.4299,1.4143,1.4068,1.4089,1.4089,1.415,1.4258,1.1726,1.0505,1.0397,0.7889,0.4297,-0.0,-0.0,-0.0,-0.0,-0.0,-0.0,-0.0,-0.0,-0.0,-0.0,-0.0,-0.0,-0.0,-0.0,-0.0,-0.0,-0.0,-0.0,-0.0,-0.0,-0.0,-0.0,-0.0,-0.0,-0.0,-0.0,-0.0,-0.0,-0.0,-0.0,-0.0,-0.0,-0.0,-0.0,-0.0,-0.0,-0.0,-0.0,-0.0,-0.0,-0.0,-0.0,-0.0,-0.0,-0.0,-0.0,-0.0,-0.0,-0.0,-0.0,-0.0,-0.0,-0.0,-0.0,-0.0,-0.0,-0.0,-0.0,-0.0,-0.0,-0.0,-0.0,-0.0,-0.0,-0.0,-0.0,-0.0,-0.0,-0.0,-0.0,-0.0,-0.0,-0.0,-0.0,-0.0,-0.0,-0.0,-0.0,-0.0,-0.0,1.3838,1.3838,1.3838,1.3838,1.3838,1.3838,1.3838,1.3865,1.3878,1.3878,1.4014,1.4109,1.4109,1.4224,1.4299,1.4299,1.4299,1.4299,1.4299,1.4299,1.4299,1.4299,1.4299,1.4299,1.4299,1.4299,1.4299,1.4299,1.4299,1.4312,1.434,1.434,1.436,1.4387,1.4242,0.9514,0.1073,0.0358,-0.0,-0.0,-0.0,-0.0,-0.0,-0.0,-0.0,-0.0,-0.0,-0.0,-0.0,-0.0,-0.0,-0.0,-0.0,-0.0,-0.0,-0.0,-0.0,-0.0,-0.0,-0.0,-0.0,-0.0,-0.0,-0.0,-0.0,-0.0,-0.0,-0.0,-0.0,-0.0,-0.0,-0.0,-0.0,-0.0,-0.0,-0.0,-0.0,-0.0,-0.0,-0.0,-0.0,-0.0,-0.0,-0.0,-0.0,-0.0,-0.0,-0.0,-0.0,-0.0,-0.0,-0.0,-0.0,-0.0,-0.0,-0.0,-0.0,-0.0,-0.0,-0.0,-0.0,-0.0,-0.0,-0.0,-0.0,-0.0,-0.0,-0.0,-0.0,-0.0,-0.0,-0.0,-0.0,-0.0,-0.0,-0.0,1.3838,1.3838,1.3838,1.3838,1.3838,1.3838,1.3838,1.3953,1.4041,1.4041,1.4177,1.4272,1.4272,1.4285,1.4299,1.4299,1.4299,1.4299,1.4299,1.4299,1.4299,1.4299,1.4299,1.4299,1.4299,1.4299,1.4299,1.4299,1.4299,1.4299,1.4306,1.4306,1.4312,1.4312,1.4346,1.1282,0.5895,0.1789,-0.0,-0.0,-0.0,-0.0,-0.0,-0.0,-0.0,-0.0,-0.0,-0.0,-0.0,-0.0,-0.0,-0.0,-0.0,-0.0,-0.0,-0.0,-0.0,-0.0,-0.0,-0.0,-0.0,-0.0,-0.0,-0.0,-0.0,-0.0,-0.0,-0.0,-0.0,-0.0,-0.0,-0.0,-0.0,-0.0,-0.0,-0.0,-0.0,-0.0,-0.0,-0.0,-0.0,-0.0,-0.0,-0.0,-0.0,-0.0,-0.0,-0.0,-0.0,-0.0,-0.0,-0.0,-0.0,-0.0,-0.0,-0.0,-0.0,-0.0,-0.0,-0.0,-0.0,-0.0,-0.0,-0.0,-0.0,-0.0,-0.0,-0.0,-0.0,-0.0,-0.0,-0.0,-0.0,-0.0,-0.0,-0.0,1.4095,1.4095,1.4095,1.4095,1.4095,1.4095,1.4095,1.4156,1.4197,1.4197,1.4258,1.4299,1.4299,1.4299,1.4299,1.4299,1.4299,1.4299,1.4299,1.4299,1.4299,1.4299,1.4299,1.4299,1.4299,1.4299,1.4299,1.4299,1.4299,1.4299,1.4299,1.4299,1.4299,1.4299,1.4333,1.3084,1.0738,0.6073,0.2504,-0.0,-0.0,-0.0,-0.0,-0.0,-0.0,-0.0,-0.0,-0.0,-0.0,-0.0,-0.0,-0.0,-0.0,-0.0,-0.0,-0.0,-0.0,-0.0,-0.0,-0.0,-0.0,-0.0,-0.0,-0.0,-0.0,-0.0,-0.0,-0.0,-0.0,-0.0,-0.0,-0.0,-0.0,-0.0,-0.0,-0.0,-0.0,-0.0,-0.0,-0.0,-0.0,-0.0,-0.0,-0.0,-0.0,-0.0,-0.0,-0.0,-0.0,-0.0,-0.0,-0.0,-0.0,-0.0,-0.0,-0.0,-0.0,-0.0,-0.0,-0.0,-0.0,-0.0,-0.0,-0.0,-0.0,-0.0,-0.0,-0.0,-0.0,-0.0,-0.0,-0.0,-0.0,-0.0,-0.0,-0.0]},{"header":{"parameterUnit":"m.s-1","parameterCategory":1,"la1":30.6,"la2":28.766,"lo1":-90.7593,"lo2":-88.6598,"dy":0.0162,"dx":0.0183,"nx":116,"ny":114,"refTime":"2023-02-28T06:00:00:Z","depth":0,"parameterNumber":3,"parameterNumberName":"V-component_of_WINDS"},"data":[0.0,0.0,0.0,0.0,0.0,0.0,0.0,0.0,0.0,0.0,0.0,0.0,0.0,0.0,0.0,0.0,0.0,0.0,0.0,0.0,0.0,0.0,0.0,0.0,0.0,0.0,0.0,0.0,0.0,0.0,0.0,0.0,0.0,0.0,0.0,0.0,0.0,0.0,0.0,0.0,0.0,0.0,0.0,0.0,0.0,0.0,0.0,0.0,0.0,0.0,0.0,0.0,0.0,0.0,0.0,0.0,0.0,0.0,0.0,0.0,0.0,0.0,0.0,0.0,0.0,0.0,0.0,0.0,0.0,0.0,0.0,0.0,0.0,0.0,0.0,0.0,0.0,0.0,0.0,0.0,0.0,0.0,0.0,0.0,0.0,0.0,0.0,0.0,0.0,0.0,0.0,0.0,0.0,0.0,0.0,0.0,0.0,0.0,0.0,0.0,0.0,0.0,0.0,0.0,0.0,0.0,0.0,0.0,0.0,0.0,0.0,0.0,0.0,0.0,0.0,0.0,0.0,0.0,0.0,0.0,0.0,0.0,0.0,0.0,0.0,0.0,0.0,0.0,0.0,0.0,0.0,0.0,0.0,0.0,0.0,0.0,0.0,0.0,0.0,0.0,0.0,0.0,0.0,0.0,0.0,0.0,0.0,0.0,0.0,0.0,0.0,0.0,0.0,0.0,0.0,0.0,0.0,0.0,0.0,0.0,0.0,0.0,0.0,0.0,0.0,0.0,0.0,0.0,0.0,0.0,0.0,0.0,0.0,0.0,0.0,0.0,0.0,0.0,0.0,0.0,0.0,0.0,0.0,0.0,0.0,0.0,0.0,0.0,0.0,0.0,0.0,0.0,0.0,0.0,0.0,0.0,0.0,0.0,0.0,0.0,0.0,0.0,0.0,0.0,0.0,0.0,0.0,0.0,0.0,0.0,0.0,0.0,0.0,0.0,0.0,0.0,0.0,0.0,0.0,0.0,0.0,0.0,0.0,0.0,0.0,0.0,0.0,0.0,0.0,0.0,0.0,0.0,0.0,0.0,0.0,0.0,0.0,0.0,0.0,0.0,0.0,0.0,0.0,0.0,0.0,0.0,0.0,0.0,0.0,0.0,0.0,0.0,0.0,0.0,0.0,0.0,0.0,0.0,0.0,0.0,0.0,0.0,0.0,0.0,0.0,0.0,0.0,0.0,0.0,0.0,0.0,0.0,0.0,0.0,0.0,0.0,0.0,0.0,0.0,0.0,0.0,0.0,0.0,0.0,0.0,0.0,0.0,0.0,0.0,0.0,0.0,0.0,0.0,0.0,0.0,0.0,0.0,0.0,0.0,0.0,0.0,0.0,0.0,0.0,0.0,0.0,0.0,0.0,0.0,0.0,0.0,0.0,0.0,0.0,0.0,0.0,0.0,0.0,0.0,0.0,0.0,0.0,0.0,0.0,0.0,0.0,0.0,0.0,0.0,0.0,0.0,0.0,0.0,0.0,0.0,0.0,0.0,0.0,0.0,0.0,0.0,0.0,0.0,0.0,0.0,0.0,0.0,0.0,0.0,0.0,0.0,0.0,0.0,0.0,0.0,0.0,0.0,0.0,0.0,0.0,0.0,0.0,0.0,0.0,0.0,0.0,0.0,0.0,0.0,0.0,0.0,0.0,0.0,0.0,0.0,0.0,0.0,0.0,0.0,0.0,0.0,0.0,0.0,0.0,0.0,0.0,0.0,0.0,0.0,0.0,0.0,0.0,0.0,0.0,0.0,0.0,0.0,0.0,0.0,0.0,0.0,0.0,0.0,0.0,0.0,0.0,0.0,0.0,0.0,0.0,0.0,0.0,0.0,0.0,0.0,0.0,0.0,0.0,0.0,0.0,0.0,0.0,0.0,0.0,0.0,0.0,0.0,0.0,0.0,0.0,0.0,0.0,0.0,0.0,0.0,0.0,0.0,0.0,0.0,0.0,0.0,0.0,0.0,0.0,0.0,0.0,0.0,0.0,0.0,0.0,0.0,0.0,0.0,0.0,0.0,0.0,0.0,0.0,0.0,0.0,0.0,0.0,0.0,0.0,0.0,0.0,0.0,0.0,0.0,0.0,0.0,0.0,0.0,0.0,0.0,0.0,0.0,0.0,0.0,0.0,0.0,0.0,0.0,0.0,0.0,0.0,0.0,0.0,0.0,0.0,0.0,0.0,0.0,0.0,0.0,0.0,0.0,0.0,0.0,0.0,0.0,0.0,0.0,0.0,0.0,0.0,0.0,0.0,0.0,0.0,0.0,0.0,0.0,0.0,0.0,0.0,0.0,0.0,0.0,0.0,0.0,0.0,0.0,0.0,0.0,0.0,0.0,0.0,0.0,0.0,0.0,0.0,0.0,0.0,0.0,0.0,0.0,0.0,0.0,0.0,0.0,0.0,0.0,0.0,0.0,0.0,0.0,0.0,0.0,0.0,0.0,0.0,0.0,0.0,0.0,0.0,0.0,0.0,0.0,0.0,0.0,0.0,0.0,0.0,0.0,0.0,0.0,0.0,0.0,0.0,0.0,0.0,0.0,0.0,0.0,0.0,0.0,0.0,0.0,0.0,0.0,0.0,0.0,0.0,0.0,0.0,0.0,0.0,0.0,0.0,0.0,0.0,0.0,0.0,0.0,0.0,0.0,0.0,0.0,0.0,0.0,0.0,0.0,0.0,0.0,0.0,0.0,0.0,0.0,0.0,0.0,0.0,0.0,0.0,0.0,0.0,0.0,0.0,0.0,0.0,0.0,0.0,0.0,0.0,0.0,0.0,0.0,0.0,0.0,0.0,0.0,0.0,0.0,0.0,0.0,0.0,0.0,0.0,0.0,0.0,0.0,0.0,0.0,0.0,0.0,0.0,0.0,0.0,0.0,0.0,0.0,0.0,0.0,0.0,0.0,0.0,0.0,0.0,0.0,0.0,0.0,0.0,0.0,0.0,0.0,0.0,0.0,0.0,0.0,0.0,0.0,0.0,0.0,0.0,0.0,0.0,0.0,0.0,0.0,0.0,0.0,0.0,0.0,0.0,0.0,0.0,0.0,0.0,0.0,0.0,0.0,0.0,0.0,0.0,0.0,0.0,0.0,0.0,0.0,0.0,0.0,0.0,0.0,0.0,0.0,0.0,0.0,0.0,0.0,0.0,0.0,0.0,0.0,0.0,0.0,0.0,0.0,0.0,0.0,0.0,0.0,0.0,0.0,0.0,0.0,0.0,0.0,0.0,0.0,0.0,0.0,0.0,0.0,0.0,0.0,0.0,0.0,0.0,0.0,0.0,0.0,0.0,0.0,0.0,0.0,0.0,0.0,0.0,0.0,0.0,0.0,0.0,0.0,0.0,0.0,0.0,0.0,0.0,0.0,0.0,0.0,0.0,0.0,0.0,0.0,0.0,0.0,0.0,0.0,0.0,0.0,0.0,0.0,0.0,0.0,0.0,0.0,0.0,0.0,0.0,0.0,0.0,0.0,0.0,0.0,0.0,0.0,0.0,0.0,0.0,0.0,0.0,0.0,0.0,0.0,0.0,0.0,0.0,0.0,0.0,0.0,0.0,0.0,0.0,0.0,0.0,0.0,0.0,0.0,0.0,0.0,0.0,0.0,0.0,0.0,0.0,0.0,0.0,0.0,0.0,0.0,0.0,0.0,0.0,0.0,0.0,0.0,0.0,0.0,0.0,0.0,0.0,0.0,0.0,0.0,0.0,0.0,0.0,0.0,0.0,0.0,0.0,0.0,0.0,0.0,0.0,0.0,0.0,0.0,0.0,0.0,0.0,0.0,0.0,0.0,0.0,0.0,0.0,0.0,0.0,0.0,0.0,0.0,0.0,0.0,0.0,0.0,0.0,0.0,0.0,0.0,0.0,0.0,0.0,0.0,0.0,0.0,0.0,0.0,0.0,0.0,0.0,0.0,0.0,0.0,0.0,0.0,0.0,0.0,0.0,0.0,0.0,0.0,0.0,0.0,0.0,0.0,0.0,0.0,0.0,0.0,0.0,0.0,0.0,0.0,0.0,0.0,0.0,0.0,0.0,0.0,0.0,0.0,0.0,0.0,0.0,0.0,0.0,0.0,0.0,0.0,0.0,0.0,0.0,0.0,0.0,0.0,0.0,0.0,0.0,0.0,0.0,0.0,0.0,0.0,0.0,0.0,0.0,0.0,0.0,0.0,0.0,0.0,0.0,0.0,0.0,0.0,0.0,0.0,0.0,0.0,0.0,0.0,0.0,0.0,0.0,0.0,0.0,0.0,0.0,0.0,0.0,0.0,0.0,0.0,0.0,0.0,0.0,0.0,0.0,0.0,0.0,0.0,0.0,0.0,0.0,0.0,0.0,0.0,0.0,0.0,0.0,0.0,0.0,0.0,0.0,0.0,0.0,0.0,0.0,0.0,0.0,0.0,0.0,0.0,0.0,0.0,0.0,0.0,0.0,0.0,0.0,0.0,0.0,0.0,0.0,0.0,0.0,0.0,0.0,0.0,0.0,0.0,0.0,0.0,0.0,0.0,0.0,0.0,0.0,0.0,0.0,0.0,0.0,0.0,0.0,0.0,0.0,0.0,0.0,0.0,0.0,0.0,0.0,0.0,0.0,0.0,0.0,0.0,0.0,0.0,0.0,0.0,0.0,0.0,0.0,0.0,0.0,0.0,0.0,0.0,0.0,0.0,0.0,0.0,0.0,0.0,0.0,0.0,0.0,0.0,0.0,0.0,0.0,0.0,0.0,0.0,0.0,0.0,0.0,0.0,0.0,0.0,0.0,0.0,0.0,0.0,0.0,0.0,0.0,0.0,0.0,0.0,0.0,0.0,0.0,0.0,0.0,0.0,0.0,0.0,0.0,0.0,0.0,0.0,0.0,0.0,0.0,0.0,0.0,0.0,0.0,0.0,0.0,0.0,0.0,0.0,0.0,0.0,0.0,0.0,0.0,0.0,0.0,0.0,0.0,0.0,0.0,0.0,0.0,0.0,0.0,0.0,0.0,0.0,0.0,0.0,0.0,0.0,0.0,0.0,0.0,0.0,0.0,0.0,0.0,0.0,0.0,0.0,0.0,0.0,0.0,0.0,0.0,0.0,0.0,0.0,0.0,0.0,0.0,0.0,0.0,0.0,0.0,0.0,0.0,0.0,0.0,0.0,0.0,0.0,0.0,0.0,0.0,0.0,0.0,0.0,0.0,0.0,0.0,0.0,0.0,0.0,0.0,0.0,0.0,0.0,0.0,0.0,0.0,0.0,0.0,0.0,0.0,0.0,0.0,0.0,0.0,0.0,0.0,0.0,0.0,0.0,0.0,0.0,0.0,0.0,0.0,0.0,0.0,0.0,0.0,0.0,0.0,0.0,0.0,0.0,0.0,0.0,0.0,0.0,0.0,0.0,0.0,0.0,0.0,0.0,0.0,0.0,0.0,0.0,0.0,0.0,0.0,0.0,0.0,0.0,0.0,0.0,0.0,0.0,0.0,0.0,0.0,0.0,0.0,0.0,0.0,0.0,0.0,0.0,0.0,0.0,0.0,0.0,0.0,0.0,0.0,0.0,0.0,0.0,0.0,0.0,0.0,0.0,0.0,0.0,0.0,0.0,0.0,0.0,0.0,0.0,0.0,0.0,0.0,0.0,0.0,0.0,0.0,0.0,0.0,0.0,0.0,0.0,0.0,0.0,0.0,0.0,0.0,0.0,0.0,0.0,0.0,0.0,0.0,0.0,0.0,0.0,0.0,0.0,0.0,0.0,0.0,0.0,0.0,0.0,0.0,0.0,0.0,0.0,0.0,0.0,0.0,0.0,0.0,0.0,0.0,0.0,0.0,0.0,0.0,0.0,0.0,0.0,0.0,0.0,0.0,0.0,0.0,0.0,0.0,0.0,0.0,0.0,0.0,0.0,0.0,0.0,0.0,0.0,0.0,0.0,0.0,0.0,0.0,0.0,0.0,0.0,0.0,0.0,0.0,0.0,0.0,0.0,0.0,0.0,0.0,0.0,0.0,0.0,0.0,0.0,0.0,0.0,0.0,0.0,0.0,0.0,0.0,0.0,0.0,0.0,0.0,0.0,0.0,0.0,0.0,0.0,0.0,0.0,0.0,0.0,0.0,0.0,0.0,0.0,0.0,0.0,0.0,-5.6528,-5.517,0.0,0.0,0.0,0.0,0.0,0.0,0.0,0.0,0.0,0.0,0.0,0.0,0.0,0.0,0.0,0.0,0.0,0.0,0.0,0.0,0.0,0.0,0.0,0.0,0.0,0.0,0.0,0.0,0.0,0.0,0.0,0.0,0.0,0.0,0.0,0.0,0.0,0.0,0.0,0.0,0.0,0.0,0.0,0.0,0.0,0.0,0.0,0.0,0.0,0.0,0.0,0.0,0.0,0.0,0.0,0.0,0.0,0.0,0.0,0.0,0.0,0.0,0.0,0.0,0.0,0.0,0.0,0.0,0.0,0.0,0.0,0.0,0.0,0.0,0.0,0.0,0.0,0.0,0.0,0.0,0.0,0.0,0.0,0.0,0.0,0.0,0.0,0.0,0.0,0.0,0.0,0.0,0.0,0.0,0.0,0.0,0.0,0.0,0.0,0.0,0.0,0.0,0.0,0.0,0.0,0.0,0.0,0.0,0.0,0.0,0.0,0.0,0.0,0.0,-5.7999,-5.6969,0.0,0.0,0.0,0.0,0.0,0.0,0.0,0.0,0.0,0.0,0.0,0.0,0.0,0.0,0.0,0.0,0.0,0.0,0.0,0.0,0.0,0.0,0.0,0.0,0.0,0.0,0.0,0.0,0.0,0.0,0.0,0.0,0.0,0.0,0.0,0.0,0.0,0.0,0.0,0.0,0.0,0.0,0.0,0.0,0.0,0.0,0.0,0.0,0.0,0.0,0.0,0.0,0.0,0.0,0.0,0.0,0.0,0.0,0.0,0.0,0.0,0.0,0.0,0.0,0.0,0.0,0.0,0.0,0.0,0.0,0.0,0.0,0.0,0.0,0.0,0.0,0.0,0.0,0.0,0.0,0.0,0.0,0.0,0.0,0.0,0.0,0.0,0.0,0.0,0.0,0.0,0.0,0.0,0.0,0.0,0.0,0.0,0.0,0.0,0.0,0.0,0.0,0.0,0.0,0.0,0.0,0.0,0.0,-6.0122,-6.0236,-6.0236,-6.0387,-6.0842,-6.1379,-5.9827,-5.9309,-5.9567,-5.8386,0.0,0.0,0.0,0.0,0.0,0.0,0.0,0.0,0.0,0.0,0.0,0.0,0.0,0.0,0.0,0.0,0.0,0.0,0.0,0.0,0.0,0.0,0.0,0.0,0.0,0.0,0.0,0.0,0.0,0.0,0.0,0.0,0.0,0.0,0.0,0.0,0.0,0.0,-5.2254,-5.3103,-5.3437,-5.3281,-5.2539,0.0,0.0,0.0,0.0,0.0,0.0,0.0,0.0,0.0,0.0,0.0,0.0,0.0,0.0,0.0,0.0,0.0,0.0,0.0,0.0,0.0,0.0,0.0,0.0,0.0,0.0,0.0,0.0,0.0,0.0,0.0,0.0,0.0,0.0,0.0,0.0,0.0,0.0,0.0,0.0,0.0,0.0,0.0,-5.6928,-5.6928,0.0,0.0,0.0,0.0,0.0,0.0,0.0,0.0,0.0,0.0,0.0,0.0,0.0,-5.9873,-6.0468,-6.0828,-6.1035,-6.1179,-6.2628,-6.3314,-6.3352,-6.4045,-6.4426,-6.447,-6.384,0.0,-6.1582,-6.2071,0.0,0.0,0.0,0.0,0.0,0.0,0.0,0.0,0.0,0.0,0.0,0.0,0.0,0.0,0.0,0.0,0.0,0.0,0.0,0.0,0.0,0.0,0.0,0.0,0.0,0.0,0.0,0.0,0.0,0.0,0.0,0.0,0.0,0.0,0.0,0.0,-4.9644,-5.1223,-5.2657,-5.3064,-5.3516,-5.3984,-5.3594,-5.3203,-5.2891,-5.3281,0.0,0.0,0.0,0.0,0.0,0.0,0.0,0.0,0.0,0.0,0.0,0.0,0.0,0.0,0.0,0.0,0.0,0.0,0.0,0.0,0.0,0.0,0.0,0.0,0.0,0.0,0.0,0.0,0.0,0.0,0.0,0.0,0.0,0.0,0.0,0.0,0.0,0.0,0.0,-5.6973,-5.6973,-5.6973,-5.6665,-5.6242,0.0,0.0,0.0,0.0,0.0,0.0,0.0,0.0,0.0,-5.9243,-5.9626,-6.0353,-6.1512,-6.1735,-6.2042,-6.2502,-6.3203,-6.3548,-6.3614,-6.443,-6.4813,-6.4813,-6.51,-6.481,-6.4131,-6.3906,-6.3276,-6.2521,0.0,0.0,0.0,0.0,-6.2752,-6.2854,0.0,0.0,0.0,0.0,0.0,0.0,0.0,0.0,0.0,0.0,0.0,0.0,0.0,0.0,0.0,-4.5124,0.0,0.0,0.0,0.0,0.0,0.0,0.0,0.0,0.0,0.0,0.0,0.0,-5.0121,-5.1454,-5.3042,-5.3014,-5.3398,-5.3984,-5.3984,-5.3984,-5.3984,-5.3984,-5.3633,0.0,0.0,0.0,0.0,0.0,0.0,0.0,0.0,0.0,0.0,0.0,0.0,0.0,0.0,0.0,0.0,0.0,0.0,0.0,0.0,0.0,0.0,0.0,0.0,0.0,0.0,0.0,0.0,0.0,0.0,0.0,0.0,0.0,0.0,0.0,0.0,0.0,0.0,-5.7165,-5.7242,-5.7011,-5.6973,-5.6665,0.0,0.0,0.0,0.0,0.0,0.0,-5.8934,-5.9511,-5.9935,-6.0165,-6.0358,-6.1089,-6.2397,-6.2397,-6.2704,-6.332,-6.3551,-6.3628,-6.3666,-6.4551,-6.4936,-6.4974,-6.5628,-6.5897,-6.5833,-6.5067,-6.4731,-6.4626,-6.4891,-6.4931,-6.4822,-6.4807,-6.4828,-6.4855,0.0,0.0,0.0,0.0,0.0,0.0,0.0,0.0,0.0,0.0,0.0,0.0,0.0,0.0,-4.3431,-4.4278,-4.4393,-4.4778,0.0,0.0,0.0,0.0,0.0,0.0,0.0,0.0,0.0,-4.9946,-5.1549,-5.2913,-5.3944,-5.3945,-5.3945,-5.3984,-5.3984,-5.3984,-5.3984,-5.3984,-5.3984,-5.3867,0.0,0.0,0.0,0.0,0.0,0.0,0.0,0.0,0.0,0.0,0.0,0.0,0.0,0.0,0.0,0.0,0.0,0.0,0.0,0.0,0.0,0.0,0.0,0.0,0.0,0.0,0.0,0.0,0.0,0.0,0.0,0.0,0.0,0.0,0.0,0.0,0.0,0.0,0.0,-5.7088,-5.6973,0.0,0.0,0.0,0.0,-5.8127,-5.755,-5.8165,-6.055,-6.0704,-6.1089,-6.1935,-6.2704,-6.3166,-6.3243,-6.3243,-6.3281,-6.332,-6.4128,-6.4551,-6.4551,-6.5436,-6.582,-6.582,-6.5859,-6.5897,-6.5897,-6.5872,-6.5542,-6.5245,-6.6014,-6.6015,-6.5804,-6.7352,-6.7879,-6.7992,0.0,0.0,0.0,0.0,0.0,0.0,0.0,0.0,0.0,0.0,0.0,0.0,0.0,-4.2893,-4.3662,-4.5009,-4.5124,-4.5509,-4.6394,0.0,0.0,0.0,0.0,0.0,0.0,0.0,-4.9083,-5.0114,-5.1239,-5.1991,-5.2344,-5.2344,-5.2344,-5.2344,-5.2344,-5.2656,-5.3242,-5.4375,-5.4492,-5.4023,-5.4258,-5.4023,0.0,0.0,0.0,0.0,0.0,0.0,0.0,0.0,0.0,0.0,0.0,0.0,0.0,0.0,0.0,0.0,0.0,0.0,0.0,0.0,0.0,0.0,0.0,0.0,0.0,0.0,0.0,0.0,0.0,0.0,0.0,0.0,0.0,0.0,0.0,0.0,0.0,-5.7165,-5.7934,0.0,-5.7434,-5.7857,-5.8396,-5.905,-5.9819,-6.0435,-6.0781,-6.132,-6.1512,-6.1281,-6.155,-6.1973,-6.2512,-6.2512,-6.2781,-6.332,-6.3628,-6.3782,-6.3782,-6.4666,-6.5051,-6.5089,-6.5667,-6.5897,-6.5897,-6.5897,-6.6115,-6.6507,-6.7362,-6.7582,-6.75,-6.7673,-6.7797,-6.7764,0.0,0.0,0.0,0.0,0.0,0.0,0.0,0.0,0.0,0.0,0.0,-4.247,-4.3047,-4.3085,-4.3662,-4.5047,-4.4893,-4.524,-4.6394,0.0,0.0,0.0,0.0,0.0,0.0,-4.8484,-4.947,-5.0195,-5.1016,-5.1406,-5.1406,-5.1406,-5.1406,-5.1406,-5.1406,-5.1875,-5.2773,-5.4258,-5.4687,-5.4492,-5.5078,-5.5117,-5.4883,0.0,0.0,0.0,0.0,0.0,0.0,0.0,0.0,0.0,0.0,0.0,0.0,0.0,0.0,0.0,0.0,0.0,0.0,0.0,0.0,0.0,0.0,0.0,0.0,0.0,0.0,0.0,0.0,0.0,0.0,0.0,0.0,0.0,0.0,-5.7857,-5.855,-5.7165,-5.8473,-5.9165,-5.8396,-5.8781,-5.9319,-5.9896,-6.0742,-6.1243,-6.1243,-6.1512,-6.1396,-6.0819,-6.1089,-6.1512,-6.2089,-6.2358,-6.2781,-6.332,-6.3589,-6.3743,-6.3782,-6.4628,-6.5051,-6.5051,-6.5628,-6.5897,-6.5897,-6.5897,-6.6205,-6.6782,-6.7628,-6.8129,-6.8371,-6.8004,-6.7883,-6.7852,0.0,0.0,0.0,0.0,0.0,0.0,0.0,0.0,0.0,0.0,-4.2585,-4.3124,-4.3162,-4.3124,-4.3431,-4.4239,-4.3585,-4.3816,-4.5509,-4.5586,0.0,0.0,0.0,0.0,-4.7447,-4.9153,-5.0087,-5.0234,-5.1016,-5.1406,-5.1406,-5.1406,-5.1406,-5.1406,-5.1445,-5.1914,-5.2773,-5.3633,-5.4492,-5.5312,-5.5312,-5.5859,-5.6601,0.0,0.0,0.0,0.0,0.0,0.0,0.0,0.0,0.0,0.0,0.0,0.0,0.0,0.0,0.0,0.0,0.0,0.0,0.0,0.0,0.0,0.0,0.0,0.0,0.0,0.0,0.0,0.0,0.0,0.0,0.0,0.0,0.0,-5.7088,-5.7742,-5.8011,-5.7126,-5.8511,-5.9242,-5.8473,-5.8396,-5.905,-6.0666,-6.0012,-6.0281,-6.1973,-6.1281,-6.0819,-6.0819,-6.1666,-6.2127,-6.2166,-6.2935,-6.3358,-6.3397,-6.4243,-6.4628,-6.4666,-6.5513,-6.5897,-6.5897,-6.5897,-6.5897,-6.5897,-6.5936,-6.5936,-6.6013,-6.6782,-6.759,-6.8359,-6.8359,-6.8398,-6.8513,0.0,0.0,0.0,0.0,0.0,0.0,0.0,0.0,0.0,0.0,-4.3041,-4.3448,-4.4184,-4.3701,-4.3657,-4.4514,-4.3811,-4.4008,-4.5642,0.0,0.0,0.0,0.0,0.0,-4.833,-4.9508,-5.0448,-5.1055,-5.1289,-5.1406,-5.1406,-5.1406,-5.1406,-5.1445,-5.207,-5.2461,-5.2773,-5.3633,-5.4492,-5.5351,-5.5976,-5.6406,-5.6601,0.0,0.0,0.0,0.0,0.0,0.0,0.0,0.0,0.0,0.0,0.0,0.0,0.0,0.0,0.0,0.0,0.0,0.0,0.0,0.0,0.0,0.0,0.0,0.0,0.0,0.0,0.0,0.0,0.0,0.0,0.0,-5.7049,-5.7049,-5.6165,-5.7857,-5.8858,-5.805,-5.9435,-6.0358,-6.0127,-6.0127,-6.0281,-6.0781,-6.0589,-6.0666,-6.1127,-6.1512,-6.1743,-6.1743,-6.2551,-6.3281,-6.3897,-6.4128,-6.4551,-6.5205,-6.5436,-6.5551,-6.5551,-6.5782,-6.5897,-6.5897,-6.5897,-6.5897,-6.5936,-6.6513,-6.6782,-6.6744,-6.6359,-6.6744,-6.7475,-6.7475,-6.7859,-6.8383,0.0,0.0,0.0,0.0,0.0,0.0,0.0,0.0,0.0,0.0,-4.3283,-4.366,-4.4601,-4.4253,-4.4292,-4.5156,-4.446,-4.4628,-4.6292,0.0,0.0,0.0,0.0,-4.8377,-4.9303,-5.0246,-5.0937,-5.1406,-5.1406,-5.1406,-5.1406,-5.1406,-5.1601,-5.1953,-5.2461,-5.3125,-5.3828,-5.4336,-5.5039,-5.5898,-5.6406,-5.6836,-5.7148,-5.7148,-5.7461,-5.789,-5.789,-5.789,-5.7969,-5.832,0.0,0.0,0.0,0.0,0.0,0.0,0.0,0.0,0.0,0.0,0.0,0.0,0.0,0.0,0.0,0.0,0.0,0.0,0.0,0.0,0.0,0.0,0.0,0.0,-5.7588,-5.7742,-5.6896,-5.8357,-5.9319,-5.8858,-5.9973,-6.0781,-6.0781,-6.0781,-6.0781,-6.0781,-6.0781,-6.0973,-6.132,-6.182,-6.2243,-6.2589,-6.3397,-6.4089,-6.4589,-6.4974,-6.5397,-6.5897,-6.5897,-6.609,-6.6397,-6.6397,-6.659,-6.6936,-6.6936,-6.6936,-6.6974,-6.7436,-6.7628,-6.759,0.0,0.0,0.0,0.0,-6.8205,-6.891,0.0,0.0,0.0,0.0,0.0,0.0,0.0,0.0,0.0,0.0,0.0,-4.377,-4.4775,-4.4783,-4.5064,-4.5942,-4.5241,-4.5429,0.0,0.0,0.0,-4.7503,-4.8298,-4.9176,-5.0195,-5.0976,-5.1406,-5.1406,-5.1406,-5.1406,-5.1406,-5.1484,-5.1953,-5.2695,-5.2891,-5.3867,-5.5312,-5.539,-5.5898,-5.6601,-5.6601,-5.707,-5.7734,-5.7734,-5.7812,-5.789,-5.789,-5.789,-5.8008,-5.8789,0.0,0.0,0.0,0.0,0.0,0.0,0.0,0.0,0.0,0.0,0.0,0.0,0.0,0.0,0.0,0.0,0.0,0.0,0.0,0.0,0.0,0.0,0.0,0.0,-5.8473,-5.9242,-5.855,-5.9127,-5.9627,-5.9511,-6.0281,-6.0781,-6.0781,-6.0781,-6.0781,-6.0781,-6.0896,-6.1281,-6.205,-6.2281,0.0,0.0,0.0,-6.4743,-6.4743,-6.5513,-6.5936,-6.6051,-6.6051,-6.6474,-6.7244,-6.7244,-6.7667,-6.8398,-6.8398,-6.8398,-6.8398,-6.8513,-6.859,-6.8667,-6.859,-6.8552,-6.8552,-6.8667,-6.9167,-6.986,0.0,0.0,0.0,0.0,0.0,0.0,0.0,0.0,0.0,-4.3327,-4.355,-4.4178,-4.5805,-4.5345,-4.5305,-4.6166,-4.5463,-4.562,0.0,0.0,-4.7503,-4.8407,-4.8716,-4.9285,-5.0195,-5.0976,-5.1406,-5.1406,-5.1406,-5.1406,-5.1406,-5.2109,-5.2539,-5.2773,-5.418,-5.4961,-5.5351,-5.6055,-5.6445,-5.6601,-5.6601,-5.6719,-5.6836,-5.6836,-5.7305,-5.789,-5.789,-5.789,-5.793,-5.8086,-5.8164,-5.8125,-5.7969,0.0,0.0,0.0,0.0,0.0,0.0,0.0,0.0,0.0,0.0,0.0,0.0,0.0,0.0,0.0,0.0,0.0,0.0,0.0,0.0,-5.7973,-5.8858,-5.9435,-5.9281,-6.0012,-6.0281,-5.9588,-6.0281,-6.0781,-6.0781,-6.0781,-6.0781,-6.0781,-6.1435,-6.1897,-6.2089,-6.3358,-6.4205,-6.4359,-6.5205,-6.5628,-6.5628,-6.582,-6.6244,-6.6859,-6.6859,0.0,-6.8167,-6.8167,-6.8244,-6.8398,-6.8398,-6.8398,-6.8475,-6.9167,-6.9821,-7.036,-6.9706,-6.9436,-6.9513,-7.0167,-7.0514,-7.0667,0.0,0.0,0.0,0.0,0.0,0.0,0.0,0.0,0.0,0.0,-4.3016,-4.3512,-4.4843,-4.4609,-4.4883,-4.6172,-4.6719,0.0,0.0,-4.7903,-4.8699,-4.9993,-5.0136,-5.0742,-5.207,-5.207,-5.2031,-5.2031,-5.1601,-5.1601,-5.207,-5.25,-5.3164,-5.4023,-5.4922,-5.5547,-5.5976,-5.6406,-5.6601,-5.6601,-5.6601,-5.6601,-5.6601,-5.6601,-5.6875,-5.7305,-5.7734,-5.789,-5.7969,-5.8398,-5.8555,-5.8555,-5.8555,-5.8867,-5.9023,0.0,0.0,0.0,0.0,0.0,0.0,0.0,0.0,0.0,0.0,0.0,0.0,0.0,0.0,-5.806,-5.8407,0.0,-5.8726,-5.9072,-5.9842,-6.0396,-6.0396,-6.0666,-6.0704,-6.0204,-6.0512,-6.0781,-6.0781,-6.0781,-6.0973,-6.1396,-6.1858,-6.2474,-6.332,-6.4166,-6.4782,-6.5243,-6.5667,-6.5897,-6.5897,-6.6282,-6.6705,-6.709,-6.7552,-6.8205,-6.9052,-6.9052,-6.9283,-6.9667,-6.9667,-6.9667,-6.9667,-7.0129,-7.0552,-7.086,-7.0475,-7.0283,-7.036,-7.0744,-7.0898,-7.0898,0.0,0.0,0.0,0.0,0.0,0.0,0.0,0.0,0.0,0.0,-4.2383,-4.2734,-4.3594,-4.3711,-4.4336,0.0,0.0,0.0,0.0,-4.8672,-4.9883,-5.1562,-5.1484,-5.2226,-5.3945,-5.332,-5.2969,-5.2969,-5.207,-5.2109,-5.2969,-5.2969,-5.3789,-5.5312,-5.5469,-5.5937,-5.6601,-5.6797,-5.6836,-5.6875,-5.7031,-5.7109,-5.7109,-5.7109,-5.6875,-5.668,-5.7383,-5.7656,-5.7734,-5.8476,-5.8828,-5.8945,-5.8945,-5.9062,-5.9023,-5.8164,-5.8398,0.0,0.0,0.0,0.0,0.0,0.0,0.0,0.0,0.0,-5.8375,-5.905,-5.91,-5.9089,-5.9413,-5.9925,-6.0383,-6.0712,-6.1211,-6.1559,-6.1559,-6.1267,-6.1032,-6.092,-6.0819,-6.0781,-6.0781,-6.0935,-6.132,-6.205,-6.2397,-6.3166,-6.4551,-6.4743,-6.5166,-6.5859,-6.6051,-6.6128,-6.6128,-6.6936,-6.7436,-6.759,-6.8321,-6.909,-6.9937,-6.9937,-7.0283,-7.0898,-7.0898,-7.0898,-7.0898,-7.1091,-7.1168,-7.1168,-7.1321,-7.1398,-7.1398,-7.1206,-7.1245,-7.1398,0.0,0.0,0.0,0.0,0.0,0.0,0.0,0.0,0.0,0.0,0.0,0.0,0.0,0.0,0.0,0.0,0.0,0.0,-4.875,-4.957,-5.0781,-5.2461,-5.1797,-5.2226,-5.3945,-5.3906,-5.3867,-5.3867,-5.2969,-5.3008,-5.3867,-5.3867,-5.4375,-5.5312,-5.6094,-5.6523,-5.664,-5.7422,-5.7734,-5.7812,-5.8594,-5.8906,-5.8906,-5.8906,-5.7969,-5.6601,-5.6719,-5.6758,-5.6758,-5.6875,-5.7422,-5.8047,-5.8047,-5.8594,-5.9023,-5.8164,0.0,-5.7812,-5.6875,-5.7305,-5.8203,-5.8906,-5.9062,-5.9414,0.0,0.0,-6.0119,-6.0861,-6.0499,-6.0457,-6.1901,-6.1719,-6.1798,-6.3169,-6.2847,-6.2445,-6.2445,-6.1784,-6.1268,-6.1235,-6.0973,-6.0781,-6.0781,-6.1512,-6.1973,-6.2089,-6.3474,-6.4397,-6.4589,-6.532,-6.5782,-6.5897,-6.659,-6.6974,-6.6974,-6.7821,-6.8629,-6.9398,-6.9513,-6.9975,-7.0783,-7.0783,-7.0821,-7.0898,-7.0898,-7.0898,-7.0975,-7.1745,-7.2052,-7.2129,-7.2899,-7.3206,-7.3129,-7.2322,-7.2552,-7.3206,0.0,0.0,0.0,0.0,0.0,0.0,0.0,0.0,0.0,0.0,0.0,0.0,0.0,0.0,0.0,0.0,0.0,0.0,-4.8906,-5.0625,-5.2187,-5.3398,-5.3594,-5.4258,-5.5508,-5.5039,-5.4765,-5.4765,-5.4375,-5.4648,-5.5508,-5.6015,-5.6719,-5.7578,-5.7969,-5.8125,-5.8125,-5.8515,-5.8672,-5.8672,-5.9062,-5.9219,-5.9219,-5.9219,-5.8437,-5.7344,-5.7344,-5.7031,0.0,0.0,-5.6836,-5.7226,-5.7734,-5.8164,-5.8359,-5.8008,-5.8242,0.0,-5.8789,-5.875,-5.8867,-5.9687,-5.9883,-6.0078,-6.0703,-6.0586,-6.0545,-6.1373,-6.1697,-6.2054,-6.2725,-6.3,-6.3357,-6.3993,-6.3828,-6.3399,-6.2891,-6.2444,-6.1988,-6.1489,-6.1235,-6.1098,-6.1097,-6.1882,-6.2574,-6.3051,-6.4089,-6.4936,-6.5436,-6.5743,-6.609,-6.659,-6.6898,-6.7321,-6.7859,-6.8706,-6.936,-6.9706,-7.0167,-7.0552,-7.0898,-7.0898,-7.0898,-7.0937,-7.1437,-7.1668,-7.1706,-7.2591,-7.2976,-7.2976,-7.336,-7.3783,-7.4091,-7.3245,-7.3206,-7.3514,0.0,0.0,0.0,0.0,0.0,0.0,0.0,0.0,0.0,0.0,0.0,0.0,0.0,0.0,0.0,0.0,0.0,0.0,0.0,-5.1055,-5.2851,-5.3945,-5.4844,-5.5703,-5.6562,-5.5976,-5.5664,-5.5664,-5.5664,-5.6094,-5.6953,-5.7617,-5.8359,-5.9219,-5.9219,-5.9219,-5.9219,-5.9453,-5.9531,-5.9531,-5.9805,-5.9883,-5.9844,-5.9609,-5.8984,-5.8242,-5.8008,-5.7344,0.0,0.0,-5.6601,-5.6719,-5.7344,-5.7539,-5.7539,-5.7539,-5.8008,-5.8672,-5.9492,-5.9453,-5.9375,-6.0195,-6.0586,-6.0742,-6.0742,-6.0937,-6.1289,-6.1914,-6.2734,-6.3437,-6.3672,-6.4219,-6.4726,-6.4961,-6.4805,-6.4453,-6.3828,-6.3438,-6.2902,-6.2012,-6.2055,-6.2016,-6.1776,-6.249,-6.3263,-6.4093,-6.4827,-6.5511,-6.6153,-6.6051,-6.632,-6.7167,-6.7359,-6.7898,-6.8744,-6.959,-7.0014,-7.0052,-7.0629,-7.0898,-7.0898,-7.1168,-7.1245,-7.1321,-7.2168,-7.2552,-7.2629,-7.3476,-7.3822,-7.386,-7.4091,-7.4553,-7.4976,-7.4399,-7.4207,-7.4207,0.0,0.0,0.0,0.0,0.0,0.0,0.0,0.0,0.0,0.0,0.0,0.0,0.0,0.0,0.0,0.0,0.0,0.0,0.0,-5.0508,-5.2226,-5.3945,-5.4844,-5.5703,-5.6562,-5.6562,-5.6562,-5.6562,-5.6562,-5.6992,-5.7851,-5.789,-5.8359,-5.9219,-5.9219,-5.9219,-5.9258,-6.0039,-6.0351,-6.043,-6.1289,-6.1601,-6.1523,-6.0703,-5.9844,-5.9062,-5.8203,0.0,0.0,0.0,-5.6601,-5.6601,-5.664,-5.664,0.0,-5.664,-5.664,0.0,0.0,0.0,-5.9375,-6.0195,-6.1055,-6.164,-6.164,-6.2305,-6.293,-6.2969,-6.3633,-6.4531,-6.5351,-6.5547,-6.5859,-6.668,-6.6094,-6.5547,-6.5508,-6.4804,-6.3945,-6.3046,-6.3701,-6.387,-6.304,-6.3429,-6.413,-6.4998,-6.5881,-6.6367,-6.6371,-6.6205,-6.6474,-6.7359,-6.8013,-6.8783,-6.9667,-7.0475,-7.086,-7.086,-7.0898,-7.0898,-7.0937,-7.1783,-7.2168,-7.2206,-7.3091,-7.3476,-7.3514,-7.4322,-7.4668,-7.4745,-7.5592,-7.5938,-7.5976,-7.5938,-7.5938,-7.5938,0.0,0.0,0.0,0.0,0.0,0.0,0.0,0.0,0.0,0.0,0.0,0.0,0.0,0.0,0.0,0.0,0.0,0.0,0.0,-5.0703,-5.2539,-5.3125,-5.5078,-5.6289,-5.6601,-5.6601,-5.6601,-5.6601,-5.7773,-5.8476,-5.8789,-5.9883,-6.0586,-6.0859,-6.0859,-6.0859,-6.0898,-6.1133,-6.125,-6.1289,-6.1562,-6.1367,-6.082,-6.0508,-5.9531,-5.8281,0.0,0.0,0.0,0.0,0.0,0.0,-5.6601,0.0,0.0,-5.6601,0.0,0.0,0.0,0.0,-6.0195,-6.1055,-6.1484,-6.1836,-6.2422,-6.2773,-6.3164,-6.375,-6.4101,-6.4375,-6.4687,-6.5195,-6.5703,-6.5976,-6.6289,-6.625,-6.5664,-6.5351,-6.4844,-6.3984,-6.4638,-6.5052,-6.4739,-6.4896,-6.513,-6.5403,-6.6106,-6.6517,-6.6533,-6.6788,-6.7338,-6.8155,-6.8898,-6.9667,-7.0475,-7.0744,-7.0898,-7.0898,-7.1475,-7.1745,-7.1783,-7.2668,-7.3053,-7.3129,-7.3937,-7.4322,-7.4361,-7.5207,-7.5553,-7.5592,-7.5899,-7.6015,-7.6015,-7.6015,-7.6015,-7.6015,0.0,0.0,0.0,0.0,0.0,0.0,0.0,0.0,0.0,0.0,0.0,0.0,0.0,0.0,0.0,0.0,0.0,0.0,0.0,0.0,-5.1914,-5.2226,-5.4453,-5.5664,-5.5664,-5.5976,-5.6133,-5.6133,-5.8203,-5.9219,-5.9258,-6.0937,-6.1719,-6.1719,-6.1719,-6.1719,-6.168,-6.1367,-6.125,-6.1211,-6.0937,-6.0469,-5.9922,-5.9648,-5.8828,0.0,0.0,0.0,0.0,0.0,0.0,0.0,0.0,0.0,0.0,0.0,0.0,0.0,0.0,-5.9101,-5.9844,-6.1328,-6.1719,-6.1992,-6.3203,-6.3711,-6.4101,-6.4648,-6.4765,-6.4765,-6.4765,-6.5234,-6.5508,-6.5195,-6.5859,-6.625,-6.5664,-6.5586,-6.5508,-6.5273,-6.6015,-6.6523,-6.6523,-6.6797,-6.6719,-6.6094,-6.6445,-6.6836,-6.7148,-6.7374,-6.7987,-6.9117,-6.9513,-7.009,-7.0898,-7.0898,-7.0898,-7.0898,-7.1783,-7.2206,-7.2245,-7.3399,-7.3937,-7.3976,-7.4822,-7.5168,-7.5207,-7.5784,-7.6015,-7.6015,-7.6015,-7.6015,-7.6015,-7.6015,-7.6015,-7.6015,0.0,0.0,0.0,0.0,0.0,0.0,0.0,0.0,0.0,0.0,0.0,0.0,0.0,0.0,0.0,0.0,0.0,0.0,0.0,0.0,0.0,-5.1367,-5.3086,-5.3984,-5.3984,-5.4844,-5.5312,-5.5312,-5.7851,-5.914,-5.918,-6.082,-6.1562,-6.1562,-6.1562,-6.1562,-6.1523,-6.0703,-6.0351,-6.0273,-5.9492,-5.918,-5.9023,-5.8203,0.0,0.0,0.0,0.0,0.0,0.0,0.0,0.0,0.0,0.0,0.0,0.0,0.0,-5.6836,-5.7695,-5.7969,-5.8633,-6.1094,-6.1719,-6.2226,-6.3984,-6.5,-6.5586,-6.5586,-6.5547,-6.5508,0.0,0.0,-6.5273,-6.4414,-6.5078,-6.5664,-6.5664,-6.5664,-6.5976,-6.6875,-6.7734,-6.8242,-6.8242,-6.8984,-6.8789,-6.7148,-6.6992,-6.7304,-6.8122,-6.7872,-6.8449,-7.0129,-6.9937,-7.0129,-7.0898,-7.0898,-7.0937,-7.0975,-7.186,-7.2283,-7.236,-7.4014,-7.4784,-7.4822,-7.563,-7.6015,-7.6015,-7.6015,-7.6015,-7.6015,-7.6015,-7.6015,-7.6015,-7.6015,-7.6015,-7.6015,0.0,0.0,0.0,0.0,0.0,0.0,0.0,0.0,0.0,0.0,0.0,0.0,0.0,0.0,0.0,0.0,0.0,0.0,0.0,0.0,0.0,0.0,0.0,0.0,0.0,0.0,0.0,0.0,0.0,-5.8242,-5.8242,-5.9336,-5.9844,-5.9844,-5.9844,-5.9844,-5.9805,-5.9609,-5.9492,-5.9492,0.0,-5.8828,-5.8203,0.0,0.0,0.0,0.0,0.0,0.0,0.0,0.0,0.0,0.0,0.0,-5.7422,0.0,0.0,-5.7617,-5.7851,-5.8828,-6.0078,-6.1367,-6.2187,-6.3125,-6.4883,-6.543,-6.5586,-6.5586,-6.5078,-6.4414,-6.3789,-6.418,-6.457,-6.4336,-6.5586,-6.6562,-6.6562,-6.6562,-6.6875,-6.7773,-6.8594,-6.9101,-6.9101,-6.9883,-6.9922,-6.8828,-6.8203,-6.7916,-6.7968,-6.8357,-6.901,-6.9975,-7.0398,-7.0706,-7.0898,-7.0898,-7.1245,-7.186,-7.2745,-7.3476,-7.4091,-7.5168,-7.5668,-7.5668,-7.5899,-7.6015,-7.6015,-7.6015,-7.6015,-7.6015,-7.6015,-7.6015,-7.6015,-7.6015,-7.6015,-7.6015,0.0,0.0,0.0,0.0,0.0,0.0,0.0,0.0,0.0,0.0,0.0,0.0,0.0,0.0,0.0,0.0,0.0,0.0,0.0,0.0,0.0,0.0,0.0,0.0,0.0,0.0,0.0,0.0,0.0,0.0,0.0,-5.8789,-5.9219,-5.9219,-5.9219,-5.9219,-5.918,-5.8789,0.0,0.0,0.0,0.0,0.0,0.0,0.0,0.0,0.0,0.0,0.0,0.0,0.0,-5.8476,-5.8476,-5.8476,-5.8281,-5.7422,0.0,-5.789,-5.789,-5.8594,-5.9765,-6.1758,-6.2656,-6.3476,-6.5195,-6.5586,-6.5508,-6.5117,-6.4336,-6.3594,-6.3086,-6.3711,-6.418,0.0,0.0,-6.6328,-6.6328,-6.6328,-6.6914,-6.8555,-6.914,-6.9687,-7.0469,-7.0976,-7.0898,-7.0039,-6.8867,-6.8461,-6.9117,-6.8961,-6.943,-7.0552,-7.0821,-7.0898,-7.0898,-7.1283,-7.1706,-7.2206,-7.3437,-7.4284,-7.4745,-7.5592,-7.6015,-7.6015,-7.6015,-7.6015,-7.6015,-7.6015,-7.6015,-7.6015,-7.6015,-7.6015,-7.6015,-7.6015,-7.6015,-7.6015,0.0,0.0,0.0,0.0,0.0,0.0,0.0,0.0,0.0,0.0,0.0,0.0,0.0,0.0,0.0,0.0,0.0,0.0,0.0,0.0,0.0,0.0,0.0,0.0,0.0,0.0,0.0,0.0,0.0,0.0,0.0,0.0,0.0,0.0,0.0,0.0,0.0,0.0,0.0,0.0,0.0,0.0,0.0,0.0,0.0,0.0,0.0,0.0,0.0,0.0,-5.9258,-5.9375,-5.9375,-5.9375,-5.918,-5.832,-5.8086,-5.8086,-5.8086,-5.8164,-5.8984,-6.2187,-6.3086,-6.3594,-6.5234,-6.5586,-6.5312,-6.4336,0.0,-6.2969,-6.2851,-6.3555,-6.3906,-6.3281,0.0,-6.5625,-6.5742,-6.5781,-6.668,-6.9101,-6.9414,-7.0078,-7.1836,-7.1992,-7.168,-7.0937,-6.9531,-6.9288,-7.0604,-6.9772,-6.9939,-7.1387,-7.1091,-7.0898,-7.0898,-7.1745,-7.2245,-7.2399,-7.3937,-7.4784,-7.4899,-7.5668,-7.6015,-7.6015,-7.6015,-7.6015,-7.6015,-7.6015,-7.6015,-7.6015,-7.6015,-7.6015,-7.6015,-7.6015,-7.6015,-7.6015,0.0,0.0,0.0,0.0,0.0,0.0,0.0,0.0,0.0,0.0,-4.1211,-4.1523,0.0,0.0,0.0,0.0,0.0,0.0,0.0,0.0,0.0,0.0,0.0,0.0,0.0,0.0,0.0,0.0,0.0,0.0,0.0,0.0,0.0,0.0,0.0,0.0,0.0,0.0,0.0,0.0,0.0,0.0,0.0,0.0,0.0,0.0,0.0,0.0,0.0,0.0,-5.9648,-6.0195,-6.0195,-6.0195,-6.0039,-5.9219,-5.8984,-5.8984,-5.8984,-5.9453,-6.0469,-6.25,-6.3555,-6.4336,-6.5351,-6.5586,0.0,0.0,-6.3125,-6.2773,-6.207,-6.2656,-6.3398,-6.3984,-6.4922,-6.5859,-6.6562,-6.668,-6.7383,-6.9258,-6.9492,-7.0156,-7.1836,-7.1992,-7.1953,-7.1797,-7.1523,-7.1099,-7.0542,-7.086,-7.1048,-7.1002,-7.0937,-7.0898,-7.0898,-7.1745,-7.2552,-7.3283,-7.4245,-7.5091,-7.5784,-7.5938,-7.6015,-7.6015,-7.6015,-7.6015,-7.6015,-7.6015,-7.6015,-7.6015,-7.6015,-7.6015,-7.6015,-7.6015,-7.6015,-7.6015,0.0,0.0,0.0,0.0,0.0,0.0,0.0,-4.1211,-4.1367,-4.1758,-4.1836,-4.2148,-4.2969,-4.3867,-4.4726,0.0,0.0,0.0,0.0,0.0,0.0,0.0,0.0,0.0,0.0,0.0,-5.3984,-5.3984,0.0,-5.6601,-5.6601,-5.6601,-5.6601,-5.6601,-5.6601,0.0,0.0,0.0,0.0,0.0,0.0,0.0,0.0,0.0,0.0,0.0,0.0,0.0,0.0,0.0,-5.9375,-6.0469,-6.0937,-6.1094,-6.0898,-6.0078,-5.9805,-5.9805,-5.9805,-6.0117,-6.082,-6.2578,-6.3672,-6.4297,-6.4258,0.0,0.0,0.0,-6.2305,-6.2187,-6.1797,-6.2422,0.0,-6.3555,-6.4726,-6.5742,-6.6172,-6.6601,-6.7539,-6.9258,-6.9453,-7.0117,-7.1836,-7.1992,-7.1992,-7.1992,-7.2851,-7.2748,-7.1342,-7.1434,-7.1302,-7.0898,-7.0898,-7.0898,-7.0898,-7.2206,-7.3091,-7.3514,-7.4784,-7.5592,-7.6015,-7.6015,-7.6015,-7.6015,-7.6015,-7.6015,-7.6015,-7.6015,-7.6015,-7.6015,-7.6015,-7.6015,-7.6015,-7.6015,-7.6015,-7.6015,0.0,0.0,0.0,0.0,0.0,0.0,0.0,-4.1367,-4.168,-4.2305,-4.2734,-4.3203,-4.3906,-4.4609,-4.5351,0.0,0.0,0.0,0.0,0.0,0.0,0.0,0.0,0.0,0.0,0.0,0.0,-5.3984,-5.5742,0.0,0.0,0.0,0.0,0.0,-5.6601,-5.6601,-5.6601,0.0,0.0,0.0,0.0,-5.6601,0.0,0.0,0.0,0.0,0.0,0.0,0.0,0.0,-5.8789,-6.0039,-6.0898,-6.1289,-6.1289,-6.0586,-6.039,-6.043,-6.0625,-6.0664,-6.1055,-6.2617,-6.3672,-6.4062,-6.3203,-6.3672,0.0,0.0,-6.1719,-6.1719,-6.1719,0.0,-6.2773,0.0,-6.414,-6.5156,-6.5547,-6.6172,-6.7305,-6.9219,-6.9414,-7.0117,-7.1836,-7.1992,-7.207,-7.2265,-7.3555,-7.3768,-7.2523,-7.1849,-7.1321,-7.0898,-7.0898,-7.0975,-7.1168,-7.2706,-7.3591,-7.3783,-7.5284,-7.6015,-7.6015,-7.6015,-7.6015,-7.6015,-7.6015,-7.6015,-7.6015,-7.6015,-7.6015,-7.6015,-7.6015,-7.6015,-7.6015,-7.6015,-7.6015,-7.6015,0.0,0.0,0.0,0.0,0.0,0.0,0.0,-4.1836,-4.2305,-4.2383,-4.3789,-4.4805,-4.4883,-4.4961,-4.5351,0.0,0.0,0.0,0.0,0.0,0.0,0.0,0.0,0.0,0.0,0.0,0.0,-5.3984,-5.5742,0.0,0.0,0.0,0.0,0.0,0.0,-5.6601,-5.6601,-5.6601,0.0,0.0,0.0,0.0,0.0,0.0,0.0,0.0,0.0,0.0,0.0,0.0,0.0,-5.8281,-5.914,-5.9922,-6.0508,-6.043,0.0,0.0,-6.1367,-6.1562,-6.1797,-6.2773,-6.3672,-6.4062,-6.3203,0.0,-6.3828,-6.207,-6.1719,-6.1719,-6.1719,-6.1758,0.0,0.0,-6.3125,-6.3789,-6.539,-6.5664,-6.664,-6.918,-6.9492,-7.0156,-7.1836,-7.1992,-7.2344,-7.3125,-7.332,-7.3533,-7.3808,-7.2336,-7.1321,-7.0898,-7.0898,-7.1283,-7.2052,-7.3014,-7.386,-7.4591,-7.5553,-7.6015,-7.6015,-7.6015,-7.6015,-7.6015,-7.6015,-7.6015,-7.6015,-7.6015,-7.6015,-7.6015,-7.6015,-7.6015,-7.6015,-7.6015,-7.6015,-7.6015,0.0,0.0,0.0,0.0,0.0,0.0,-4.1836,-4.2187,-4.2773,-4.3828,-4.457,-4.5195,-4.5742,-4.5781,-4.5937,-4.6289,0.0,0.0,0.0,0.0,0.0,0.0,0.0,0.0,0.0,0.0,-5.3984,-5.3984,-5.5742,0.0,0.0,0.0,0.0,0.0,0.0,-5.6601,-5.6601,-5.6601,0.0,0.0,0.0,0.0,0.0,0.0,0.0,0.0,0.0,0.0,0.0,0.0,0.0,0.0,-5.7695,-5.8203,0.0,0.0,-6.039,-6.0586,-6.1445,-6.1719,-6.1797,-6.2148,-6.2851,-6.3281,-6.2422,0.0,-6.3164,-6.1953,-6.1719,-6.1719,-6.1719,-6.1719,-6.1797,-6.2148,-6.2656,-6.3242,-6.3945,-6.4922,-6.6367,-6.8476,-6.914,-7.0117,-7.1836,-7.1992,-7.2578,-7.3984,-7.3485,-7.3356,-7.3989,-7.2413,-7.1321,-7.0898,-7.0898,-7.1321,-7.2168,-7.3053,-7.3899,-7.4707,-7.5592,-7.6015,-7.6015,-7.6015,-7.6015,-7.6015,-7.6015,-7.6015,-7.6015,-7.6015,-7.6015,-7.6015,-7.6015,-7.6015,-7.6015,-7.6015,-7.6015,-7.6015,0.0,0.0,0.0,0.0,0.0,-4.1758,-4.2305,-4.2851,-4.3594,-4.4844,-4.5234,-4.5625,-4.6211,-4.6289,-4.6406,-4.6641,-4.7461,0.0,0.0,0.0,0.0,0.0,0.0,0.0,0.0,0.0,-5.3984,-5.3984,-5.5742,-5.6601,0.0,0.0,-5.6601,-5.6601,0.0,0.0,0.0,0.0,0.0,0.0,0.0,0.0,0.0,0.0,0.0,0.0,0.0,0.0,0.0,0.0,0.0,0.0,0.0,0.0,0.0,0.0,-5.9844,-6.0234,-6.1094,-6.1484,-6.1719,-6.1719,-6.2148,-6.2461,0.0,0.0,-6.2422,-6.1836,-6.1719,-6.1719,-6.1719,-6.1719,-6.1719,-6.1719,-6.2226,-6.2695,-6.2969,-6.4062,-6.558,-6.7585,-6.8273,-6.9366,-7.1347,-7.2177,-7.31,-7.4349,-7.3729,-7.3463,-7.3915,-7.2336,-7.1245,-7.0898,-7.0898,-7.1437,-7.2552,-7.3206,-7.4053,-7.5091,-7.5707,-7.6015,-7.6015,-7.6015,-7.6015,-7.6015,-7.6015,-7.6015,-7.6015,-7.6015,-7.6015,-7.6015,-7.6015,-7.6015,-7.6015,-7.6015,-7.6015,-7.6015,0.0,0.0,0.0,0.0,0.0,0.0,-4.2383,-4.3867,-4.4961,-4.5,-4.5742,-4.6289,-4.6289,-4.6289,-4.6641,-4.75,-4.8398,0.0,0.0,0.0,0.0,0.0,0.0,0.0,0.0,0.0,-5.3984,-5.3984,-5.5742,-5.6601,-5.6601,-5.6601,-5.6601,-5.6601,0.0,0.0,0.0,0.0,0.0,0.0,0.0,0.0,0.0,0.0,0.0,0.0,0.0,0.0,0.0,0.0,0.0,0.0,0.0,0.0,0.0,0.0,-5.8555,-5.9375,-6.0195,-6.1055,-6.1719,-6.1719,-6.1719,-6.1719,0.0,0.0,-6.1719,-6.1719,-6.1719,-6.1719,-6.1719,-6.1719,-6.1719,-6.1719,-6.1719,-6.1992,-6.289,-6.3008,-6.4001,-6.6592,-6.6756,-6.7654,-7.0244,-7.2619,-7.4,-7.4,-7.4014,-7.3915,-7.379,-7.2157,-7.1091,-7.0898,-7.0898,-7.1745,-7.3476,-7.3514,-7.4361,-7.5976,-7.6015,-7.6015,-7.6015,-7.6015,-7.6015,-7.6015,-7.6015,-7.6015,-7.6015,-7.6015,-7.6015,-7.6015,-7.6015,-7.6015,-7.6015,-7.6015,-7.6015,-7.6015,0.0,0.0,0.0,0.0,0.0,0.0,0.0,-4.4648,-4.5195,-4.582,-4.6133,-4.6289,-4.6289,-4.6289,-4.6641,-4.7539,-4.8398,0.0,0.0,0.0,0.0,0.0,0.0,0.0,0.0,-5.3125,-5.3984,-5.3984,-5.5742,-5.6601,-5.6601,-5.6601,-5.6601,-5.6601,-5.6601,-5.6601,0.0,0.0,0.0,0.0,0.0,0.0,-5.6601,0.0,0.0,0.0,0.0,0.0,0.0,0.0,0.0,0.0,0.0,0.0,0.0,0.0,0.0,0.0,-5.9336,-5.9765,-6.0,-6.0,-6.0,-6.0,-6.0,0.0,-6.082,-6.082,-6.1289,-6.1719,-6.1719,-6.1719,-6.1719,-6.1719,-6.1616,-6.1679,-6.195,-6.2896,-6.4304,-6.6312,-6.8574,-7.0259,-7.1091,-7.288,-7.4021,-7.3997,-7.393,-7.3818,-7.3801,-7.2041,-7.0975,-7.0898,-7.0898,-7.1745,-7.3476,-7.3514,-7.4361,-7.6015,-7.6015,-7.6015,-7.6015,-7.6015,-7.6015,-7.6015,-7.6015,-7.6015,-7.6015,-7.6015,-7.6015,-7.6015,-7.6015,-7.6015,-7.6015,-7.6015,-7.6015,-7.6015,0.0,0.0,0.0,0.0,0.0,0.0,0.0,-4.5273,-4.5703,-4.6211,-4.6289,-4.6289,-4.6289,-4.6289,-4.6749,-4.7905,-4.8514,0.0,0.0,0.0,0.0,0.0,0.0,0.0,-5.1406,-5.2773,-5.3672,-5.3984,-5.543,-5.6289,-5.6601,-5.6601,-5.6601,-5.6601,-5.6601,-5.6601,0.0,0.0,0.0,0.0,0.0,0.0,-5.6601,0.0,0.0,0.0,0.0,0.0,0.0,0.0,0.0,0.0,0.0,0.0,0.0,0.0,0.0,0.0,0.0,-5.8945,-5.9219,-5.9219,-5.8945,0.0,0.0,-5.9336,-5.9648,-6.0273,-6.082,-6.1284,-6.158,-6.1625,-6.1502,-6.1134,-6.1253,-6.1427,-6.142,-6.251,-6.4033,-6.603,-6.9031,-7.0887,-7.0821,-7.2629,-7.3822,-7.3832,-7.3745,-7.3696,-7.3696,-7.1898,-7.0898,-7.0898,-7.0898,-7.1745,-7.3476,-7.3514,-7.4361,-7.6015,-7.6015,-7.6015,-7.6015,-7.6015,-7.6015,-7.6015,-7.6015,-7.6015,0.0,-7.6015,-7.6015,-7.6015,-7.6015,-7.6015,-7.6015,-7.6015,-7.6015,-7.6015,0.0,0.0,0.0,0.0,0.0,0.0,0.0,-4.5779,-4.6288,-4.6288,-4.6288,-4.6288,-4.6288,-4.6288,-4.6922,-4.8544,0.0,0.0,0.0,0.0,0.0,0.0,0.0,0.0,-5.1406,-5.2266,-5.3125,-5.3984,-5.4883,-5.5742,-5.6601,-5.6601,-5.6601,-5.6601,-5.6601,-5.6601,0.0,0.0,0.0,0.0,0.0,0.0,0.0,0.0,0.0,0.0,0.0,0.0,0.0,0.0,0.0,0.0,0.0,0.0,0.0,0.0,0.0,0.0,0.0,0.0,0.0,0.0,0.0,0.0,0.0,-5.8434,0.0,-5.9881,-6.0233,-6.05,-6.1176,-6.1289,-6.098,-6.0061,-6.0643,-6.1205,-6.1266,-6.2156,-6.368,-6.591,-6.841,-6.991,-6.9706,-7.2014,-7.3476,-7.3399,-7.3476,-7.3476,-7.3399,-7.1822,-7.0898,-7.0898,-7.0898,-7.1745,-7.3476,-7.3514,-7.4361,-7.6015,-7.6015,-7.6015,-7.6015,-7.6015,-7.6015,-7.6015,-7.6015,-7.6015,-7.6015,-7.6015,-7.6015,-7.6015,-7.6015,-7.6015,-7.6015,-7.6015,-7.6015,-7.6015,0.0,0.0,0.0,0.0,0.0,0.0,0.0,0.0,0.0,0.0,-4.5995,-4.5995,-4.5995,-4.5995,-4.6683,0.0,0.0,0.0,0.0,0.0,0.0,0.0,0.0,0.0,-5.1406,-5.2266,-5.3125,-5.3984,-5.4883,-5.5742,-5.6601,-5.6601,-5.6601,-5.6601,-5.6601,-5.6601,0.0,0.0,0.0,0.0,0.0,0.0,0.0,0.0,0.0,0.0,-5.6449,-5.6369,0.0,0.0,0.0,0.0,0.0,0.0,0.0,0.0,-5.6213,0.0,-5.6549,0.0,-5.6946,-5.7028,-5.6914,-5.6819,0.0,0.0,-5.78,-5.8043,-5.8632,-5.9143,-5.9309,-5.9359,-5.9271,-5.905,-5.9649,-6.038,-6.0997,-6.3935,-6.6244,-6.6821,-6.9129,-7.0398,-6.9744,-7.2014,-7.3206,-7.2552,-7.3129,-7.3206,-7.2552,-7.1475,-7.0898,-7.0898,-7.0898,-7.1745,-7.3476,-7.3514,-7.4361,-7.6015,-7.6015,-7.6015,-7.6015,-7.6015,-7.6015,-7.6015,-7.6015,-7.6015,-7.6015,-7.6015,-7.6015,-7.6015,-7.6015,-7.6015,-7.6015,-7.6015,-7.6015,-7.6015,0.0,0.0,0.0,0.0,0.0,0.0,0.0,0.0,0.0,0.0,0.0,0.0,0.0,0.0,0.0,0.0,0.0,0.0,0.0,0.0,0.0,0.0,0.0,-5.121,-5.1249,-5.1718,-5.2599,-5.3906,-5.4375,-5.5273,-5.6601,-5.6601,-5.6601,-5.6601,-5.6601,-5.6575,-5.6505,-5.6505,0.0,0.0,-5.6402,0.0,0.0,0.0,0.0,0.0,-5.6308,-5.6252,0.0,-5.6188,-5.6149,-5.6062,0.0,0.0,0.0,0.0,-5.5994,-5.5994,-5.5994,-5.6077,-5.6194,-5.6308,-5.6308,-5.6315,-5.6311,0.0,0.0,0.0,0.0,-5.8196,-5.8529,-5.8935,-5.9072,-5.8588,-5.9819,-6.1304,-6.2474,-6.4897,-6.6821,-6.7628,-6.9283,-7.0321,-7.0244,-7.2206,-7.3129,-7.2283,-7.3014,-7.3129,-7.2245,-7.136,-7.0898,-7.0898,-7.0898,-7.1745,-7.3476,-7.3514,-7.4361,-7.6015,-7.6015,-7.6015,-7.6015,-7.6015,-7.6015,-7.6015,-7.6015,-7.6015,-7.6015,-7.6015,-7.6015,-7.6015,-7.6015,-7.6015,-7.6015,-7.6015,-7.6015,-7.6015,0.0,0.0,0.0,0.0,0.0,0.0,0.0,0.0,0.0,0.0,0.0,0.0,0.0,0.0,0.0,0.0,0.0,0.0,0.0,0.0,0.0,0.0,-5.1073,-5.107,-5.1109,-5.1109,-5.1918,-5.3575,-5.3703,-5.4644,-5.6323,-5.6479,-5.6558,-5.6558,-5.6558,-5.6472,-5.6387,-5.6382,-5.6286,-5.62,-5.62,0.0,0.0,0.0,0.0,0.0,0.0,0.0,0.0,-5.6109,-5.6032,-5.5857,-5.5857,0.0,0.0,0.0,0.0,0.0,-5.5703,-5.5972,-5.6302,-5.6186,-5.6145,-5.6161,-5.6161,0.0,0.0,0.0,0.0,-5.7362,-5.8132,-5.8765,-5.8995,-5.8396,-6.0435,-6.2704,-6.4551,-6.5667,-6.6821,-6.8244,-6.9283,-7.0052,-7.0475,-7.2206,-7.2899,-7.1898,-7.2745,-7.2937,-7.2052,-7.1283,-7.0898,-7.0898,-7.0898,-7.1745,-7.3476,-7.3514,-7.4361,-7.6015,-7.6015,-7.6015,-7.6015,-7.6015,-7.6015,-7.6015,-7.6015,-7.6015,-7.6015,-7.6015,-7.6015,-7.6015,-7.6015,-7.6015,-7.6015,-7.6015,-7.6015,-7.6015,0.0,0.0,0.0,0.0,0.0,0.0,0.0,0.0,0.0,0.0,0.0,0.0,0.0,0.0,0.0,0.0,0.0,0.0,0.0,0.0,0.0,-5.0741,-5.0855,-5.0987,-5.1103,-5.1103,-5.1563,-5.2553,-5.3258,-5.4177,-5.5199,-5.59,-5.6251,-5.6251,-5.6251,-5.6251,-5.6226,-5.6213,-5.6228,-5.6194,-5.6194,0.0,0.0,0.0,0.0,0.0,0.0,0.0,0.0,-5.578,-5.5742,-5.5742,-5.5742,0.0,0.0,0.0,0.0,0.0,-5.5703,-5.628,-5.6703,-5.6109,-5.5941,-5.5962,-5.5962,0.0,0.0,0.0,0.0,0.0,0.0,-5.6742,-5.6742,-5.8088,-6.0435,-6.2935,-6.5359,-6.7051,-6.8129,-6.8359,-6.9783,-7.0206,-6.8898,-7.0975,-7.1745,-7.0206,-7.1514,-7.2014,-7.1168,-7.0975,-7.0898,-7.0898,-7.0898,-7.1745,-7.3476,-7.3514,-7.4361,-7.6015,-7.6015,-7.6015,-7.6015,-7.6015,-7.6015,-7.6015,-7.6015,-7.6015,-7.6015,-7.6015,-7.6015,-7.6015,-7.6015,-7.6015,-7.6015,-7.6015,-7.6015,-7.6015,0.0,0.0,0.0,0.0,0.0,0.0,0.0,0.0,0.0,0.0,0.0,0.0,0.0,0.0,0.0,0.0,0.0,0.0,0.0,0.0,-5.0702,-5.0702,-5.0741,-5.0837,-5.0875,-5.0875,-5.1299,-5.2184,-5.3061,-5.3994,-5.4907,-5.5775,-5.6217,-5.6217,-5.6217,-5.614,-5.6046,-5.6058,-5.5994,-5.5934,0.0,0.0,0.0,0.0,0.0,0.0,0.0,0.0,0.0,0.0,-5.5703,-5.5703,-5.5703,0.0,0.0,0.0,0.0,0.0,-5.5703,-5.5972,-5.6319,-5.6434,-5.6857,-5.7203,-5.7203,-5.7203,0.0,0.0,0.0,0.0,0.0,-5.7396,-5.8627,-6.1281,-6.2704,-6.4166,-6.6244,-6.7205,-6.8052,-6.9013,-6.936,-6.9436,-6.9129,-7.0552,-7.1014,-6.9783,-7.1245,-7.1822,-7.0937,-7.0898,-7.0898,-7.0898,-7.0898,-7.1745,-7.3476,-7.3514,-7.4361,-7.6015,-7.6015,-7.6015,-7.6015,-7.6015,-7.6015,-7.6015,-7.6015,-7.6015,-7.6015,-7.6015,-7.6015,-7.6015,-7.6015,-7.6015,-7.6015,-7.6015,-7.6015,-7.6015,0.0,0.0,0.0,0.0,0.0,0.0,0.0,0.0,0.0,0.0,0.0,0.0,0.0,0.0,0.0,0.0,0.0,0.0,0.0,-5.0702,-5.0702,-5.0702,-5.0702,-5.0702,-5.0702,-5.0702,-5.1145,-5.205,-5.2915,-5.3954,-5.5105,-5.578,-5.6071,-5.6071,-5.6071,-5.5994,-5.5857,-5.5857,-5.578,-5.5703,0.0,0.0,0.0,0.0,0.0,0.0,0.0,0.0,0.0,0.0,0.0,0.0,0.0,0.0,0.0,-5.5703,-5.5703,-5.5703,-5.5703,-5.5857,-5.6165,-5.6819,-5.7357,-5.7819,-5.8204,-5.8127,-5.7857,-5.7396,-5.7434,0.0,0.0,-5.8973,-6.1012,-6.3858,-6.4474,-6.5243,-6.7128,-6.7244,-6.7667,-6.9206,-6.8821,-6.8667,-6.9321,-7.0129,-7.036,-6.9744,-7.1052,-7.1591,-7.0937,-7.0898,-7.0898,-7.0898,-7.0898,-7.1745,-7.3476,-7.3514,-7.4361,-7.6015,-7.6015,-7.6015,-7.6015,-7.6015,-7.6015,-7.6015,-7.6015,-7.6015,-7.6015,-7.6015,-7.6015,-7.6015,-7.6015,-7.6015,-7.6015,-7.6015,-7.6015,-7.6015,0.0,0.0,0.0,0.0,0.0,0.0,0.0,0.0,0.0,0.0,0.0,0.0,0.0,0.0,0.0,0.0,0.0,0.0,0.0,-5.0702,-5.0702,-5.0702,-5.0702,-5.0702,-5.0702,-5.0702,-5.1087,-5.1933,-5.2779,-5.4049,-5.5626,-5.5703,-5.5742,-5.5742,-5.5742,-5.5742,-5.5703,-5.5703,-5.5703,-5.5703,-5.5703,0.0,0.0,0.0,0.0,0.0,0.0,0.0,0.0,0.0,0.0,0.0,0.0,0.0,-5.5703,-5.5703,-5.5703,-5.5703,-5.5703,-5.628,-5.6896,-5.6973,-5.6434,-5.6319,-5.7934,-5.7665,-5.7319,-5.805,-5.8819,-5.9319,-5.9319,-6.0742,-6.2243,-6.3243,-6.4089,-6.5474,-6.7975,-6.7628,-6.7436,-6.8398,-6.8436,-6.8436,-6.8513,-6.9283,-6.9744,-6.9706,-7.0514,-7.0975,-7.0898,-7.0898,-7.0898,-7.0898,-7.0898,-7.1745,-7.3476,-7.3514,-7.4361,-7.6015,-7.6015,-7.6015,-7.6015,-7.6015,-7.6015,-7.6015,-7.6015,-7.6015,-7.6015,-7.6015,-7.6015,-7.6015,-7.6015,-7.6015,-7.6015,-7.6015,-7.6015,-7.6015,0.0,0.0,0.0,0.0,0.0,0.0,0.0,0.0,0.0,0.0,0.0,0.0,0.0,0.0,0.0,0.0,0.0,0.0,0.0,-5.0702,-5.0702,-5.0702,-5.0702,-5.0933,-5.1433,-5.0971,-5.1087,-5.1895,-5.3318,-5.4587,-5.5703,-5.5703,-5.5703,-5.5703,-5.5703,-5.5703,-5.5703,-5.5703,-5.5703,-5.5703,-5.5703,-5.5703,0.0,0.0,0.0,0.0,0.0,0.0,0.0,0.0,-5.5703,0.0,0.0,0.0,0.0,0.0,-5.5531,-5.5399,-5.5621,-5.5963,-5.6245,-5.6563,-5.6164,-5.63,-5.8534,-5.8781,-5.8665,-5.8973,-5.9704,-6.0388,-6.0621,-6.2772,-6.4462,-6.4479,-6.5882,-6.7165,-6.7821,-6.7917,-6.8125,-6.8663,-6.8531,-6.8629,-6.9167,-6.9513,-6.9706,-6.9706,-7.0437,-7.0898,-7.0898,-7.0898,-7.0898,-7.0898,-7.1437,-7.2283,-7.3514,-7.4014,-7.4861,-7.6015,-7.6015,-7.6015,-7.6015,-7.6015,-7.6015,-7.6015,-7.6015,-7.6015,-7.6015,-7.6015,-7.6015,-7.6015,-7.6015,-7.6015,-7.6015,-7.6015,-7.6015,-7.6015,0.0,0.0,0.0,0.0,0.0,0.0,0.0,0.0,0.0,0.0,0.0,0.0,0.0,0.0,0.0,0.0,0.0,0.0,-5.0702,-5.0702,-5.0818,-5.1087,-5.1087,-5.1471,-5.2279,-5.1779,-5.1895,-5.2741,-5.4164,-5.5164,-5.5703,-5.5703,-5.5703,-5.5703,-5.5703,-5.5703,-5.5703,-5.5703,-5.5703,-5.5703,-5.5703,-5.5703,0.0,0.0,0.0,0.0,0.0,0.0,0.0,0.0,0.0,0.0,0.0,0.0,0.0,0.0,-5.5325,-5.5379,-5.5619,-5.5674,-5.5832,-5.6413,-5.6299,-5.6652,-5.8929,-5.9228,-5.9267,-6.0043,-6.0884,-6.1669,-6.2199,-6.4215,-6.5681,-6.5389,-6.6574,-6.74,-6.6992,-6.7299,-6.7591,-6.7829,-6.7872,-6.822,-6.9061,-6.9138,-6.9291,-6.9559,-7.0056,-7.0362,-7.0362,-7.0362,-7.0463,-7.0652,-7.1496,-7.2438,-7.3514,-7.4322,-7.513,-7.6015,-7.6015,-7.6015,-7.6015,-7.6015,-7.6015,-7.6015,-7.6015,-7.6015,-7.6015,-7.6015,-7.6015,-7.6015,-7.6015,-7.6015,-7.6015,-7.6015,-7.6015,-7.6015,0.0,0.0,0.0,0.0,0.0,0.0,0.0,0.0,0.0,0.0,0.0,0.0,0.0,0.0,0.0,0.0,0.0,0.0,-5.0702,-5.0702,-5.1087,-5.1895,-5.1933,-5.2318,-5.3203,-5.3241,-5.3626,-5.4511,-5.5318,-5.5703,-5.5703,-5.5703,-5.5703,-5.5703,-5.5703,-5.5703,-5.5703,-5.5703,-5.5703,-5.5703,-5.5703,-5.5703,-5.5703,0.0,0.0,0.0,0.0,0.0,0.0,0.0,0.0,0.0,0.0,0.0,0.0,-5.4484,-5.5088,-5.5659,-5.5659,-5.5697,-5.5923,-5.6681,0.0,-5.7359,-5.8942,-5.8713,-5.8826,-6.1279,-6.2447,-6.3276,-6.4143,-6.4972,-6.5538,-6.5576,-6.5576,-6.5576,-6.5615,-6.5615,-6.5576,-6.5614,-6.6331,-6.7122,-6.7914,-6.803,-6.8369,-6.9237,-6.9313,-6.9313,-6.9313,-6.9313,-6.955,-7.0095,-7.0972,-7.2051,-7.3486,-7.4293,-7.513,-7.5976,-7.5976,-7.5976,-7.6015,-7.6015,-7.6015,-7.6015,-7.6015,-7.6015,-7.6015,-7.6015,-7.6015,-7.6015,-7.6015,-7.6015,-7.6015,-7.6015,-7.6015,-7.6015,0.0,0.0,0.0,0.0,0.0,0.0,0.0,0.0,0.0,0.0,0.0,0.0,0.0,0.0,0.0,0.0,0.0,0.0,-5.0702,-5.1241,-5.1664,-5.1895,-5.251,-5.3241,-5.4087,-5.4664,-5.4818,-5.4511,-5.5318,-5.5703,-5.5703,-5.5703,-5.5703,-5.5703,-5.5703,-5.5703,-5.5703,-5.5703,-5.5703,-5.5703,-5.5703,-5.5703,-5.5703,0.0,0.0,0.0,0.0,0.0,0.0,0.0,0.0,0.0,0.0,0.0,0.0,-5.4484,-5.4443,-5.4458,-5.4764,-5.5622,0.0,-5.6406,0.0,0.0,-5.9856,-5.9958,-6.0563,-6.305,-6.3729,-6.4065,-6.4566,-6.609,-6.6776,-6.5357,-6.5868,-6.6327,-6.5994,-6.5755,-6.5911,-6.6699,-6.7297,-6.7952,-6.886,-6.8935,-6.9048,-6.9275,-6.9313,-6.9313,-6.9313,-6.9841,-7.0221,-7.0381,-7.1781,-7.2732,-7.3155,-7.3952,-7.4752,-7.5379,-7.5379,-7.5584,-7.6015,-7.6015,-7.6015,-7.6015,-7.6015,-7.6015,-7.6015,-7.6015,-7.6015,-7.6015,-7.6015,-7.6015,-7.6015,-7.6015,-7.6015,-7.6015,0.0,0.0,0.0,0.0,0.0,0.0,0.0,0.0,0.0,0.0,-5.0356,-5.0702,0.0,0.0,0.0,0.0,0.0,0.0,-5.1164,-5.1972,-5.2587,-5.2933,-5.3433,-5.4126,-5.4972,-5.5434,-5.5472,-5.4972,-5.5472,-5.5703,-5.5703,-5.5703,-5.5703,-5.5703,-5.5703,-5.5703,-5.5703,-5.5703,-5.5703,-5.5703,-5.5703,-5.5599,-5.5446,0.0,0.0,0.0,0.0,0.0,0.0,0.0,0.0,0.0,0.0,0.0,0.0,-5.4838,-5.4949,-5.5198,-5.6144,-5.6784,0.0,-5.7771,-5.8776,-6.0052,-6.152,-6.1929,-6.2412,-6.391,-6.4731,-6.5233,-6.543,-6.6519,-6.6992,-6.5737,-6.5895,-6.6097,-6.5848,-6.5895,-6.6201,-6.6913,-6.7496,-6.8099,-6.8622,-6.866,-6.866,-6.866,-6.8958,-6.9145,-6.9145,-6.993,-7.0434,-7.0661,-7.1982,-7.2786,-7.3005,-7.3878,-7.4464,-7.4789,-7.4789,-7.5054,-7.5654,-7.5917,-7.6015,-7.6015,-7.6015,-7.6015,-7.6015,-7.6015,-7.6015,-7.6015,-7.6015,-7.6015,-7.6015,-7.6015,-7.6015,-7.6015,0.0,0.0,0.0,0.0,0.0,0.0,0.0,0.0,0.0,0.0,-5.0702,-5.0741,0.0,0.0,0.0,0.0,0.0,0.0,0.0,-5.2818,-5.3664,-5.4472,-5.4549,-5.4934,-5.5665,-5.5703,-5.5703,-5.5703,-5.5703,-5.5703,-5.5703,-5.5703,-5.5703,-5.5703,-5.5703,-5.5682,-5.566,-5.566,-5.5621,-5.5599,-5.5599,-5.5375,-5.5053,-5.5053,0.0,0.0,0.0,0.0,0.0,0.0,0.0,0.0,0.0,0.0,-5.4656,-5.539,-5.6161,-5.7116,-5.8584,-5.8621,0.0,-6.0015,-6.0566,0.0,-6.3576,-6.42,-6.431,-6.431,-6.5485,-6.6512,-6.6586,-6.6623,-6.6586,-6.6512,-6.5888,-6.5411,-6.5411,-6.6035,-6.6512,-6.6586,-6.7247,-6.7724,-6.7797,-6.7797,-6.7834,-6.7907,-6.8605,-6.9009,-6.9009,-6.9779,-7.0421,-7.0933,-7.1764,-7.247,-7.2943,-7.374,-7.4161,-7.4206,-7.4206,-7.4506,-7.5054,-7.5654,-7.5947,-7.6015,-7.6015,-7.6015,-7.6015,-7.6015,-7.6015,-7.6015,-7.6015,-7.6015,-7.6015,-7.6015,-7.6015,-7.6015,0.0,0.0,0.0,0.0,0.0,0.0,0.0,0.0,0.0,0.0,0.0,0.0,0.0,0.0,0.0,0.0,0.0,0.0,0.0,-5.3741,-5.4318,-5.4472,-5.5088,-5.5511,-5.5703,-5.5703,-5.5703,-5.5703,-5.5703,-5.5703,-5.5703,-5.5703,-5.5703,-5.5703,-5.5703,-5.5531,-5.5212,-5.5212,-5.5053,-5.476,-5.476,-5.4701,-5.4609,-5.4609,-5.4355,0.0,0.0,0.0,0.0,0.0,0.0,0.0,-5.5012,-5.5257,-5.5354,-5.5537,-5.6161,-5.6895,-5.7226,-5.8584,0.0,0.0,-6.1851,-6.3429,-6.398,-6.5081,-6.5962,-6.5962,-6.6256,-6.6696,-6.732,-6.743,-6.7247,-6.6586,-6.6366,-6.6256,-6.6256,-6.6402,-6.6733,-6.7357,-6.7577,-6.7944,-6.8568,-6.8641,-6.8898,-6.9522,-6.9743,-6.9853,-6.9853,-7.0624,-7.1084,-7.1213,-7.1987,-7.2503,-7.2613,-7.276,-7.3119,-7.3602,-7.3602,-7.3888,-7.4506,-7.5017,-7.5551,-7.6015,-7.6015,-7.6015,-7.6015,-7.6015,-7.6015,-7.6015,-7.6015,-7.6015,-7.6015,-7.6015,-7.6015,-7.6092,0.0,0.0,0.0,0.0,0.0,0.0,0.0,0.0,0.0,0.0,0.0,0.0,0.0,0.0,0.0,0.0,0.0,0.0,0.0,0.0,-5.4786,-5.4786,-5.5193,-5.5493,-5.5703,-5.5493,-5.5423,-5.5423,-5.5423,-5.5493,-5.5703,-5.5703,-5.5703,-5.5703,-5.5508,-5.5326,-5.5107,-5.4876,-5.4671,-5.4484,-5.4484,-5.4355,-5.4153,-5.4153,-5.413,-5.4078,-5.4078,0.0,0.0,0.0,0.0,0.0,0.0,0.0,-5.6235,-5.6638,-5.7042,-5.7629,-5.8767,0.0,0.0,-6.1887,0.0,-6.4787,-6.5154,-6.6182,-6.7173,-6.7577,-6.765,-6.7797,-6.8201,-6.7944,-6.7687,-6.765,-6.699,-6.6623,-6.7026,-6.7063,-6.7357,-6.8164,-6.8274,-6.8605,-6.9412,-6.9486,-6.9633,-7.0073,-7.0477,-7.066,-7.066,-7.1431,-7.1872,-7.1872,-7.2275,-7.2496,-7.2496,-7.2496,-7.263,-7.2997,-7.2997,-7.3327,-7.3888,-7.4711,-7.5271,-7.5584,-7.5848,-7.6015,-7.6015,-7.6015,-7.6015,-7.6015,-7.6015,-7.6015,-7.6015,-7.6015,-7.6015,-7.613,0.0,0.0,0.0,0.0,0.0,0.0,0.0,0.0,0.0,0.0,0.0,0.0,0.0,0.0,0.0,0.0,0.0,0.0,0.0,0.0,0.0,-5.5107,-5.5107,-5.5212,-5.547,-5.5237,-5.5107,-5.5107,-5.5107,-5.5262,-5.5599,-5.5599,-5.5599,-5.5577,-5.5237,-5.5015,-5.4876,-5.4609,-5.4387,-5.4292,-5.4292,-5.4125,-5.3905,-5.3905,-5.4186,-5.462,-5.462,-5.5023,-5.5611,-5.5757,0.0,0.0,0.0,0.0,-5.7152,-5.7813,-5.8107,-5.8621,-6.0639,0.0,-6.119,-6.3503,-6.4714,0.0,-6.6329,-6.71,-6.7907,-6.8752,-6.8898,-6.8935,-6.9082,-6.8568,-6.8274,-6.8825,-6.7797,-6.71,-6.7614,-6.7797,-6.8128,-6.8825,-6.9009,-6.9412,-7.022,-7.0293,-7.0367,-7.0513,-7.1138,-7.1541,-7.1541,-7.2165,-7.2496,-7.2496,-7.2496,-7.2496,-7.2496,-7.2496,-7.2496,-7.2496,-7.2496,-7.2761,-7.329,-7.4304,-7.4867,-7.498,-7.5485,-7.5686,-7.5686,-7.5818,-7.5848,-7.5848,-7.5947,-7.6015,-7.6015,-7.6015,-7.6015,-7.613,0.0,0.0,0.0,0.0,0.0,0.0,0.0,0.0,0.0,0.0,-5.2351,-5.2764,0.0,0.0,0.0,0.0,0.0,0.0,0.0,0.0,0.0,-5.5107,-5.5107,-5.496,-5.4671,-5.4933,-5.5107,-5.5107,-5.5107,-5.5134,-5.5186,-5.5186,-5.5186,-5.5186,-5.5134,-5.4663,-5.4013,-5.4355,-5.405,-5.3359,-5.3359,-5.376,-5.4344,-5.4344,-5.4816,-5.5427,-5.5427,-5.55,-5.5684,-5.6418,-5.6638,0.0,0.0,0.0,-5.785,-5.796,-5.851,-5.9134,0.0,0.0,-6.1851,0.0,-6.4714,-6.5521,0.0,-6.71,-6.7907,-6.8752,-6.8898,-6.9119,-6.9816,-6.9853,-6.9596,-6.9009,-6.8715,-6.8385,-6.776,-6.8311,-6.8788,-6.8898,-6.9522,-7.0257,-7.1064,-7.1138,-7.1431,-7.2129,-7.2275,-7.2349,-7.2349,-7.2459,-7.2496,-7.2496,-7.2496,-7.2496,-7.2496,-7.2496,-7.2496,-7.2496,-7.2496,-7.2553,-7.263,-7.3341,-7.3934,-7.4422,-7.4506,-7.4506,-7.4547,-7.5017,-7.5236,-7.5271,-7.5818,-7.6015,-7.6015,-7.6015,-7.6015,-7.6207,0.0,0.0,0.0,0.0,0.0,0.0,0.0,0.0,0.0,0.0,0.0,-5.3446,0.0,0.0,0.0,-5.4484,-5.4484,-5.4387,-5.4118,-5.4048,0.0,-5.435,-5.464,-5.4671,-5.4484,-5.4671,-5.464,-5.435,-5.435,-5.4516,-5.476,-5.4478,-5.451,-5.476,-5.4478,-5.4149,-5.3795,-5.3795,-5.3822,-5.3885,-5.3885,-5.4796,-5.6121,-5.5337,-5.6012,-5.7265,-5.6551,-5.6565,-5.7005,-5.7336,-5.7483,-5.7519,-5.7886,0.0,0.0,0.0,-5.8253,-5.8731,-5.9648,-6.141,-6.3282,0.0,-6.5375,-6.6182,-6.699,-6.7797,-6.8605,-6.9412,-6.9926,-7.0367,-7.0734,-7.077,-7.0513,-6.9706,-6.9192,-6.8788,-6.8421,-6.8678,-6.9229,-7.0146,-7.0587,-7.1101,-7.1908,-7.1982,-7.2129,-7.2459,-7.2496,-7.2496,-7.2496,-7.2496,-7.2496,-7.2496,-7.2496,-7.2496,-7.2496,-7.2496,-7.2496,-7.2496,-7.2496,-7.2496,-7.2496,-7.2761,-7.3224,-7.3794,-7.4161,-7.4293,-7.4336,-7.4547,-7.467,-7.471,-7.4943,-7.5055,-7.5092,-7.5379,-7.5518,-7.5781,0.0,0.0,0.0,0.0,0.0,0.0,0.0,0.0,0.0,0.0,0.0,0.0,0.0,0.0,0.0,0.0,-5.4322,-5.4187,-5.3795,-5.3643,0.0,0.0,-5.4255,-5.4387,-5.419,-5.4255,-5.4153,-5.3795,-5.3795,-5.3977,-5.4322,-5.387,-5.3944,-5.4418,-5.4017,-5.387,-5.394,-5.3739,-5.4049,-5.473,-5.5085,-5.6224,-5.7658,-5.6995,-5.774,-5.9064,-5.7847,-5.7813,-5.8253,-5.807,-5.7997,-5.8033,-5.8253,-5.829,0.0,0.0,0.0,-5.8914,-6.0309,0.0,-6.3759,-6.5007,-6.5742,-6.6476,0.0,-6.8311,-6.9119,-6.9926,-7.0734,-7.1358,-7.1578,-7.1615,-7.1358,-7.055,-6.9889,-6.9449,-6.9229,-6.9376,-6.9963,-7.1174,-7.1505,-7.1835,-7.2459,-7.2496,-7.2496,-7.2496,-7.2496,-7.2496,-7.2496,-7.2496,-7.2496,-7.2496,-7.2496,-7.2496,-7.2496,-7.2496,-7.2496,-7.2496,-7.2496,-7.2496,-7.2496,-7.2496,-7.2705,-7.3224,-7.3688,-7.3841,-7.3841,-7.4026,-7.4072,-7.4072,-7.4249,-7.4293,-7.4379,-7.4905,-7.5243,-7.5697,0.0,0.0,0.0,0.0,0.0,0.0,0.0,0.0,0.0,0.0,0.0,-5.4452,-5.4484,-5.4484,-5.4322,-5.3869,-5.3832,-5.3795,-5.3795,-5.4187,-5.4221,-5.3795,-5.4255,0.0,-5.3272,-5.3643,-5.3795,-5.3795,-5.3795,-5.3795,-5.3795,-5.3404,-5.3634,-5.4417,-5.3977,-5.4012,-5.4412,-5.4756,-5.5118,-5.5618,-5.6911,-5.7645,-5.8133,-5.9329,-5.9974,-6.021,-5.9355,-5.9098,-5.9024,-5.8253,-5.7997,-5.8143,-5.8914,-5.9171,-5.9318,0.0,0.0,0.0,-6.13,-6.163,0.0,-6.4714,-6.5338,-6.5778,-6.732,-6.8311,-6.9119,-6.9926,-7.0734,-7.1541,-7.2312,-7.2459,-7.2165,-7.1394,-7.1211,-7.0917,-7.0146,-7.0697,-7.1211,-7.1321,-7.1982,-7.2459,-7.2496,-7.2496,-7.2496,-7.2496,-7.2496,-7.2496,-7.2496,-7.2496,-7.2496,-7.2496,-7.2496,-7.2496,-7.2496,-7.2496,-7.2496,-7.2496,-7.2496,-7.2496,-7.2496,-7.2496,-7.2496,-7.2553,-7.261,-7.2573,-7.263,-7.3224,-7.3442,-7.3541,-7.4072,-7.4293,-7.4379,-7.4905,-7.5625,-7.6537,0.0,0.0,0.0,0.0,0.0,0.0,0.0,0.0,0.0,0.0,0.0,0.0,0.0,-5.4484,-5.442,-5.4255,-5.4255,-5.4255,-5.4255,-5.4387,-5.442,-5.4255,-5.4387,-5.4187,-5.3604,-5.372,-5.3644,-5.3404,-5.3404,-5.3785,-5.4578,-5.45,-5.4986,-5.5958,-5.4754,-5.4533,-5.517,-5.5312,-5.5748,-5.6463,-5.7843,-5.9246,-6.0486,-6.0454,-6.1356,-6.241,-6.0791,-5.9984,-5.9764,-5.9987,-5.9456,-5.8914,-5.9722,-5.9979,-6.0052,-6.0309,-6.0786,-6.1227,-6.152,-6.2365,0.0,-6.431,-6.5301,-6.6219,-6.6806,-6.8348,-6.9743,-7.0036,-7.1138,-7.2165,-7.2459,-7.2496,-7.2239,-7.1431,-7.1725,-7.1982,-7.1688,-7.1908,-7.2275,-7.2789,-7.2642,-7.2496,-7.2496,-7.2496,-7.2496,-7.2496,-7.2496,-7.2496,-7.2496,-7.2496,-7.2496,-7.2496,-7.2496,-7.2496,-7.2496,-7.2496,-7.2496,-7.2496,-7.2496,-7.2496,-7.2496,-7.2496,-7.2496,-7.2496,-7.2496,-7.2496,-7.2496,-7.2705,-7.2816,-7.2871,-7.305,-7.3119,-7.3298,-7.4356,-7.4966,-7.5509,0.0,0.0,0.0,0.0,0.0,0.0,0.0,0.0,-5.4547,-5.4671,0.0,0.0,0.0,0.0,-5.4848,-5.4701,-5.4579,-5.4484,-5.4484,-5.4609,-5.464,-5.4522,-5.4609,-5.4484,-5.4048,-5.4048,-5.4018,-5.4051,-5.389,-5.4459,-5.5658,-5.5548,-5.6143,-5.728,-5.6182,-5.598,-5.6462,-5.6462,-5.6858,-5.758,-5.9364,-6.0566,-6.1281,-6.1428,-6.2135,-6.2773,-6.1355,-6.0677,-6.0547,-6.1531,-6.1293,-6.0648,-6.132,-6.1382,-6.1227,-6.1227,-6.1594,-6.1998,-6.1998,-6.2805,-6.3723,-6.4016,-6.4897,-6.5852,-6.6366,-6.8164,-6.9779,-7.0036,-7.1394,-7.2496,-7.2496,-7.2496,-7.2422,-7.2165,-7.2569,-7.301,-7.3266,-7.3303,-7.3523,-7.4037,-7.3634,-7.3193,-7.2936,-7.2899,-7.2789,-7.2532,-7.2496,-7.2496,-7.2496,-7.2496,-7.2496,-7.2496,-7.2496,-7.2496,-7.2496,-7.2496,-7.2496,-7.2496,-7.2496,-7.2496,-7.2496,-7.2496,-7.2496,-7.2496,-7.2496,-7.2496,-7.2496,-7.2496,-7.2496,-7.2496,-7.2496,-7.2496,-7.2684,-7.41,-7.4993,-7.573,0.0,0.0,0.0,0.0,0.0,0.0,0.0,0.0,-5.4671,-5.508,0.0,0.0,0.0,0.0,0.0,-5.516,-5.476,-5.4516,-5.4516,-5.4876,-5.4971,-5.4585,-5.4914,-5.4981,-5.4591,-5.456,-5.4937,-5.5724,-5.5283,-5.5731,-5.704,-5.6592,-5.7041,-5.8253,-5.8287,-5.8287,-5.8287,-5.8253,-5.8425,-5.8945,-6.1543,-6.1565,-6.0211,-6.2372,-6.2371,-6.1288,-6.133,-6.133,-6.1525,-6.2862,-6.3272,-6.3276,-6.3589,-6.3308,-6.2805,-6.2805,-6.2805,-6.2805,0.0,0.0,0.0,-6.3833,-6.4053,-6.4494,-6.6072,-6.7724,-6.9119,-6.9889,-7.1358,-7.2496,-7.2496,-7.2496,-7.2753,-7.356,-7.3707,-7.4001,-7.4845,-7.4955,-7.4955,-7.4955,-7.4918,-7.4588,-7.3817,-7.3744,-7.3413,-7.2642,-7.2569,-7.2532,-7.2532,-7.2496,-7.2496,-7.2496,-7.2496,-7.2496,-7.2496,-7.2496,-7.2496,-7.2496,-7.2496,-7.2496,-7.2496,-7.2496,-7.2496,-7.2496,-7.2532,-7.2532,-7.2532,-7.2496,-7.2496,-7.2532,-7.2532,-7.2569,-7.27,-7.4158,-7.5686,-7.7334,0.0,0.0,0.0,0.0,0.0,-5.5554,-5.5554,-5.5423,-5.5399,0.0,0.0,0.0,-5.5703,-5.5703,-5.5682,-5.5554,-5.5423,-5.5375,-5.5375,-5.547,-5.5777,-5.6318,-5.6129,-5.6262,-5.6721,-5.645,-5.6436,-5.6663,-5.653,-5.6945,-5.7876,-5.8072,-5.8684,-5.9574,-5.9939,-6.0085,-6.002,-5.9387,-5.9131,-5.9399,-6.1673,-6.2306,-6.2108,-6.4267,-6.5273,-6.5452,-6.5452,-6.4877,-6.431,-6.5889,-6.4924,-6.3201,-6.3547,-6.3498,-6.3271,-6.2917,-6.2805,-6.2805,-6.2805,0.0,0.0,0.0,0.0,0.0,-6.464,-6.6916,-6.8972,-6.9192,-7.0991,-7.2496,-7.2496,-7.2496,-7.2753,-7.356,-7.4184,-7.4845,-7.5652,-7.5763,-7.5763,-7.5763,-7.5249,-7.4808,-7.4588,-7.4588,-7.4478,-7.4258,-7.3707,-7.3377,-7.3377,-7.2826,-7.2496,-7.2496,-7.2496,-7.2496,-7.2496,-7.2496,-7.2496,-7.2496,-7.2496,-7.2496,-7.2496,-7.2496,-7.2496,-7.2532,-7.312,-7.3377,-7.3303,-7.2753,-7.2826,-7.3377,-7.3377,-7.3707,-7.4404,-7.6,-7.6833,-7.7481,0.0,0.0,0.0,0.0,0.0,-5.5703,-5.5703,-5.5703,-5.5703,0.0,0.0,0.0,-5.5703,-5.5703,-5.5703,-5.5703,-5.6011,-5.6242,-5.6242,-5.6588,-5.7011,-5.7511,-5.7311,-5.7404,-5.7902,-5.7679,-5.772,-5.8025,-5.7848,-5.8266,-5.9291,-5.9378,-5.9759,-6.0391,-6.0671,-6.0781,-6.0796,-6.0599,-6.019,-5.9874,-6.2022,-6.2768,-6.2803,-6.4862,-6.5904,-6.6364,-6.671,-6.6336,-6.5994,-6.7837,-6.6891,-6.5002,-6.5238,-6.4662,-6.3892,-6.355,-6.3498,-6.3408,-6.3215,-6.3121,-6.311,-6.2855,0.0,0.0,-6.442,-6.6586,-6.8605,-6.9265,-7.1064,-7.2496,-7.2496,-7.2496,-7.2753,-7.356,-7.4368,-7.5175,-7.5983,-7.6387,-7.6607,-7.6607,-7.6203,-7.5799,-7.5432,-7.5395,-7.5285,-7.4955,-7.4478,-7.4184,-7.4184,-7.345,-7.301,-7.301,-7.2679,-7.2496,-7.2496,-7.2496,-7.2496,-7.2496,-7.2496,-7.2496,-7.2496,-7.2496,-7.2496,-7.2532,-7.334,-7.3707,-7.367,-7.356,-7.378,-7.4184,-7.4184,-7.4698,-7.5542,-7.6864,-7.7745,-7.8552,0.0,0.0,-5.5703,-5.5703,-5.5703,-5.5703,-5.5703,-5.5703,-5.5703,0.0,-5.5703,-5.5703,-5.5703,-5.578,-5.5818,-5.5818,-5.6626,-5.7126,-5.7126,-5.7857,-5.8357,-5.8434,-5.8434,-5.8473,-5.8588,-5.8588,-5.8934,-5.9627,-5.9216,-5.9637,-6.0781,-6.0365,-6.0468,-6.0935,-6.0935,-6.0973,-6.1127,-6.1897,-6.1569,-6.079,-6.2657,-6.3257,-6.3168,-6.4917,-6.5643,-6.5834,-6.6713,-6.698,-6.7194,-6.9201,-6.9059,-6.8056,-6.7725,-6.6391,-6.4822,-6.452,-6.4445,-6.4407,-6.3808,-6.368,-6.355,-6.3073,-6.3039,0.0,-6.4991,-6.6611,-6.832,-6.9704,-7.1232,-7.2316,-7.2316,-7.2296,-7.2459,-7.3193,-7.4037,-7.4992,-7.5946,-7.679,-7.7304,-7.7304,-7.7304,-7.7047,-7.6313,-7.624,-7.5946,-7.5249,-7.5102,-7.4992,-7.4918,-7.4221,-7.3817,-7.3817,-7.3156,-7.2716,-7.2642,-7.2642,-7.2606,-7.2496,-7.2496,-7.2496,-7.2496,-7.2496,-7.2496,-7.2569,-7.345,-7.3817,-7.3891,-7.4808,-7.5139,-7.5028,-7.5028,-7.5579,-7.6497,-7.7304,-7.8589,-8.0021,-5.5703,-5.5703,-5.5703,-5.5703,-5.5703,-5.5703,-5.5703,-5.5703,-5.5703,-5.5703,-5.5703,-5.5703,-5.5703,-5.6319,-5.6742,-5.6742,-5.755,-5.805,-5.805,-5.8204,-5.8588,-5.9242,-5.9281,-5.9588,-6.0281,-6.0319,-6.0396,-6.055,-6.0441,-6.0541,-6.0781,-6.071,-6.108,-6.1858,-6.1858,-6.2204,-6.282,-6.3012,-6.3309,-6.3758,-6.418,-6.4693,-6.5409,-6.7138,-6.8213,-6.9047,-7.0546,-7.0623,-7.0085,-7.0525,-7.092,-7.0873,-6.8394,-6.7774,-6.7525,-6.5123,-6.486,-6.52,-6.4444,-6.4217,-6.4217,-6.4099,-6.4587,0.0,-6.5448,-6.7326,-6.9091,-6.9391,-7.0405,-7.1204,-7.1204,-7.086,-7.0624,-7.077,-7.2018,-7.3707,-7.5799,-7.679,-7.7304,-7.7304,-7.7304,-7.7268,-7.7084,-7.7084,-7.7011,-7.6864,-7.624,-7.5579,-7.4955,-7.4771,-7.4661,-7.4661,-7.4515,-7.4111,-7.345,-7.345,-7.312,-7.2496,-7.2496,-7.2496,-7.2496,-7.2496,-7.2496,-7.2569,-7.4037,-7.4661,-7.4808,-7.624,-7.646,-7.5873,-7.5873,-7.679,-7.8222,-7.9029,-7.991,-8.0865,-5.5703,-5.5703,-5.5703,-5.5703,-5.5703,-5.5703,-5.5703,-5.5703,-5.5703,-5.5703,-5.6088,-5.6511,-5.6934,-5.7396,-5.7665,-5.7665,-5.8396,-5.8896,-5.8896,-5.9319,-5.9742,-6.0127,-6.0165,-6.0358,-6.0781,-6.0781,-6.1012,-6.1435,-6.1435,-6.1627,-6.205,-6.205,-6.2512,-6.332,-6.2897,-6.3166,-6.3935,-6.3935,-6.4205,-6.4628,-6.5051,-6.6013,-6.7321,-6.9013,-7.0206,-7.1091,-7.2399,-7.2591,-7.2206,-7.2206,-7.1898,-7.1371,-7.0239,-6.9643,-6.9008,-6.7483,-6.7343,-6.7393,-6.6315,-6.6018,-6.5947,-6.5729,-6.5955,0.0,0.0,-6.8105,-6.9426,-6.9841,-7.0643,-7.1283,-7.1283,-7.1088,-7.0884,-7.0884,-7.1991,-7.3185,-7.3998,-7.5632,-7.6864,-7.7268,-7.7304,-7.7304,-7.7304,-7.7304,-7.7304,-7.7304,-7.6937,-7.6533,-7.613,-7.5726,-7.5506,-7.5506,-7.5139,-7.4735,-7.4294,-7.3891,-7.3487,-7.3083,-7.2679,-7.2496,-7.2496,-7.2496,-7.2496,-7.2569,-7.378,-7.4294,-7.4441,-7.6056,-7.646,-7.613,-7.6533,-7.7708,-7.925,-7.9653,-8.0571,-8.1672,-5.5703,-5.5703,-5.5703,-5.5703,-5.5703,-5.5742,-5.5934,-5.5934,-5.6011,-5.6165,-5.6934,-5.7742,-5.8434,-5.8819,-5.905,-5.905,-5.9781,-6.0165,-6.0012,-6.0666,-6.105,-6.105,-6.105,-6.1127,-6.1281,-6.1281,-6.1627,-6.232,-6.232,-6.2666,-6.332,-6.332,-6.3782,-6.4589,-6.4051,-6.4205,-6.4859,-6.5013,-6.5282,-6.5628,-6.6359,-6.7359,-6.859,-7.009,-7.1321,-7.2322,-7.336,-7.386,-7.3976,-7.3783,-7.2822,-7.1668,-7.186,-7.1245,-7.0321,-6.9629,-6.9667,-6.9613,-6.8143,-6.7744,-6.7681,-6.7271,-6.7313,-6.7616,0.0,0.0,0.0,-7.0421,-7.1025,-7.1398,-7.1398,-7.1316,-7.1195,-7.1044,-7.1995,-7.2522,-7.1899,-7.3919,-7.5764,-7.6497,-7.7047,-7.7268,-7.7084,-7.7084,-7.7157,-7.7304,-7.7194,-7.7157,-7.7304,-7.668,-7.635,-7.635,-7.5726,-7.5285,-7.5139,-7.4478,-7.4001,-7.367,-7.3046,-7.2642,-7.2496,-7.2496,-7.2496,-7.2532,-7.334,-7.3707,-7.3817,-7.5285,-7.5873,-7.5946,-7.6937,-7.8332,-7.98,-7.98,-8.0791,-8.2186,-5.5703,-5.5703,-5.5703,-5.5703,-5.5703,-5.5972,-5.6703,-5.6857,-5.7126,-5.7896,-5.8704,-5.9242,-5.9358,-6.0742,-6.1666,-6.1666,-6.2397,-6.2589,-6.1858,-6.1897,-6.1935,-6.1935,-6.1935,-6.2281,-6.3012,-6.3012,-6.3051,-6.3166,-6.3166,-6.3205,-6.332,-6.332,-6.3782,-6.4628,-6.5282,-6.5667,-6.5782,-6.6513,-6.7705,-6.9129,-6.9244,-6.8936,-6.8513,-6.9475,-7.0821,-7.2399,-7.3976,-7.5053,-7.5592,-7.4822,-7.4437,-7.3899,-7.1745,-7.1975,-7.2476,-6.9436,-6.959,-7.0398,-6.8767,-6.8306,-6.8279,-6.8252,-6.8828,-6.9404,-6.9519,0.0,-7.0719,-7.0834,0.0,-7.0293,-7.0293,0.0,0.0,-6.8518,-6.9758,-7.0809,-7.0691,-7.2146,-7.349,-7.4065,-7.6019,-7.7047,-7.6313,-7.624,-7.6533,-7.7268,-7.6644,-7.657,-7.7268,-7.7231,-7.7194,-7.7194,-7.7084,-7.668,-7.5983,-7.5873,-7.5102,-7.3707,-7.3597,-7.3193,-7.2496,-7.2496,-7.2496,-7.2532,-7.334,-7.3707,-7.378,-7.4661,-7.5065,-7.5212,-7.6717,-7.8332,-7.98,-7.98,-8.0791,-8.2186,-5.5955,-5.6088,-5.6434,-5.6434,-5.6857,-5.7319,-5.7703,-5.7742,-5.805,-5.8896,-5.9281,-5.9704,-6.0204,-6.0896,-6.1574,-6.2151,-6.2497,-6.2574,-6.2243,-6.269,-6.2728,-6.2127,-6.2551,-6.2935,-6.3281,-6.332,-6.3551,-6.4051,-6.4051,-6.432,-6.482,-6.482,-6.5243,-6.6051,-6.6436,-6.6859,-6.7398,-6.8244,-6.8744,-6.9052,-7.0014,-7.0167,-7.0052,-7.1898,-7.3668,-7.5245,-7.5976,-7.6746,-7.74,-7.7015,-7.6245,-7.5438,-7.5322,-7.4784,-7.4014,-7.3091,-7.2937,-7.2745,-7.1052,-7.0975,-7.1129,-7.009,-7.0514,-7.1014,-7.0514,-7.0667,-7.0898,-7.0898,0.0,0.0,0.0,0.0,0.0,0.0,-7.0413,-7.0801,-7.0346,-7.1776,-7.3212,-7.4067,-7.5051,-7.5769,-7.608,-7.6533,-7.6937,-7.7304,-7.7011,-7.6937,-7.7304,-7.7304,-7.7304,-7.7304,-7.7304,-7.7157,-7.6827,-7.635,-7.5763,-7.5065,-7.4147,-7.3523,-7.3193,-7.2716,-7.2496,-7.2532,-7.2863,-7.3165,-7.3606,-7.4367,-7.4933,-7.537,-7.6513,-7.7849,-7.914,-7.9617,-8.0791,-8.2251,-5.6811,-5.7022,-5.7456,-5.7473,-5.7973,-5.8434,-5.8665,-5.8896,-5.9281,-5.9896,-6.0381,-6.092,-6.1535,-6.2267,-6.2983,-6.3738,-6.3951,-6.4036,-6.3784,-6.4093,-6.4099,-6.3676,-6.3628,-6.3897,-6.4397,-6.4166,-6.432,-6.4974,-6.4974,-6.5282,-6.5897,-6.5897,-6.6205,-6.6782,-6.7244,-6.7821,-6.8475,-6.959,-6.9937,-6.9898,-7.1129,-7.2014,-7.2822,-7.4437,-7.613,-7.763,-7.763,-7.7977,-7.8477,-7.8246,-7.7361,-7.6515,-7.7515,-7.6707,-7.5476,-7.5861,-7.5707,-7.5053,-7.336,-7.336,-7.3476,-7.1975,-7.2091,-7.2399,-7.1745,-7.1629,-7.1629,-7.1629,-7.1629,0.0,0.0,0.0,-7.1168,-7.0937,0.0,-7.091,-7.0101,-7.1365,-7.2645,-7.3351,-7.4001,-7.4807,-7.581,-7.6507,-7.7039,-7.7419,-7.7319,-7.7312,-7.7533,-7.757,-7.745,-7.7341,-7.7304,-7.7365,-7.757,-7.698,-7.6655,-7.6588,-7.5403,-7.4626,-7.4144,-7.3589,-7.3182,-7.2997,-7.2997,-7.3224,-7.3725,-7.4275,-7.4789,-7.5274,-7.606,-7.7217,-7.8549,-7.9327,-8.06,-8.2163,-5.8635,-5.8651,-5.8655,-5.8649,-5.855,-5.8781,-5.9611,-6.0419,-6.0973,-6.1228,-6.266,-6.3685,-6.3723,-6.5958,-6.7485,-6.7523,-6.8252,-6.8371,-6.7593,-6.6572,-6.6473,-6.7485,-6.5639,-6.5422,-6.7218,-6.6307,-6.582,-6.5859,-6.5859,-6.5859,-6.5897,-6.5897,-6.5897,-6.6013,-6.7628,-6.8359,-6.8513,-7.0167,-7.1822,-7.336,-7.3399,-7.4899,-7.7015,-7.6245,-7.7015,-7.8438,-7.8438,-7.8477,-7.8361,-7.7592,-7.7284,-7.713,-7.6322,-7.6592,-7.7053,-7.6245,-7.6592,-7.6823,-7.5091,-7.463,-7.4476,-7.363,-7.3437,-7.3437,-7.3437,-7.3437,-7.3437,-7.3437,-7.3437,-7.3437,-7.3437,-7.2745,-7.186,-7.1052,-7.0937,0.0,0.0,-7.0448,-7.0884,-7.0677,-7.2736,-7.4545,-7.5366,-7.5708,-7.6392,-7.7777,-7.7404,-7.7452,-7.8218,-7.8255,-7.796,-7.7304,-7.7304,-7.7629,-7.8255,-7.8218,-7.8139,-7.7945,-7.787,-7.7002,-7.5418,-7.5418,-7.4966,-7.4249,-7.4249,-7.4249,-7.4249,-7.4287,-7.4331,-7.4406,-7.5236,-7.6512,-7.8012,-7.8841,-8.0198,-8.1743,-6.0682,-6.0696,-6.0459,-5.9706,-5.9987,-6.0472,-6.0734,-6.1505,-6.2277,-6.2874,-6.3938,-6.487,-6.5468,-6.6322,-6.7113,-6.7749,-6.8601,-6.8738,-6.7893,-6.7903,-6.7871,-6.774,-6.6255,-6.6076,-6.7372,-6.6423,-6.5897,-6.5897,-6.5897,-6.5897,-6.5897,-6.5897,-6.6167,-6.6744,-6.7898,-6.9013,-7.0167,-7.1898,-7.3283,-7.4399,-7.5553,-7.6861,-7.8054,-7.7746,-7.8361,-7.9361,-7.9361,-7.9746,-8.0169,-7.99,-7.9438,-7.9015,-7.9285,-7.8784,-7.813,-7.8438,-7.8323,-7.7861,-7.6746,-7.6823,-7.6746,-7.4784,-7.4745,-7.4861,-7.3745,-7.3514,-7.3514,-7.3514,-7.3514,-7.3514,-7.3514,-7.3245,-7.2976,-7.2668,-7.2129,-7.1668,0.0,-7.1091,-7.0892,-7.0783,-7.2774,-7.4325,-7.4545,-7.6178,-7.742,-7.787,-7.8295,-7.865,-7.8865,-7.8902,-7.8766,-7.8565,-7.8551,-7.8704,-7.8865,-7.8902,-7.8859,-7.8783,-7.8217,-7.7387,-7.6293,-7.5771,-7.5048,-7.4293,-7.4293,-7.4506,-7.4828,-7.4828,-7.5092,-7.5417,-7.5723,-7.6832,-7.8366,-7.8901,-8.017,-8.1688,-6.1699,-6.1719,-6.1478,-6.0737,-6.1042,-6.1468,-6.1786,-6.2317,-6.3118,-6.4263,-6.5184,-6.6198,-6.7329,-6.8039,-6.8768,-6.9755,-7.0596,-7.0765,-6.9882,-7.0197,-7.0175,-6.9692,-6.8536,-6.8381,-6.9387,-6.8129,-6.7449,-6.7449,-6.7077,-6.6923,-6.6885,-6.6821,-6.7051,-6.759,-6.8475,-6.9783,-7.1475,-7.3206,-7.4591,-7.5784,-7.7515,-7.8515,-7.9015,-7.9323,-7.9592,-7.9862,-8.0169,-8.0631,-8.1093,-8.1093,-8.0746,-8.0362,-8.0939,-8.0323,-7.9515,-8.0092,-7.9862,-7.9246,-7.84,-7.8554,-7.8477,-7.6553,-7.6476,-7.6515,-7.5168,-7.4861,-7.4861,-7.4861,-7.4591,-7.4591,-7.5168,-7.4553,-7.4053,-7.4361,-7.3437,-7.2552,0.0,-7.1706,-7.1245,-7.0937,-7.2444,-7.3726,-7.4296,-7.5921,-7.7358,-7.8476,-7.8921,-7.921,-7.9513,-7.9513,-7.9425,-7.9198,-7.9198,-7.929,-7.9513,-7.9513,-7.9642,-7.9847,-7.9356,-7.8481,-7.73,-7.6807,-7.597,-7.4904,-7.4904,-7.5092,-7.5413,-7.5413,-7.5654,-7.6015,-7.6015,-7.7015,-7.8531,-7.879,-8.011,-8.1942,-6.1719,-6.1719,-6.1797,-6.1836,-6.168,-6.1871,-6.2742,-6.2943,-6.3679,-6.5541,-6.6562,-6.7773,-6.9453,-7.1133,-7.2461,-7.3281,-7.414,-7.4297,-7.3437,-7.3242,-7.3204,-7.3373,-7.2164,-7.2002,-7.3094,-7.1183,-7.0194,-7.0194,-6.9219,-6.8706,-6.8693,-6.8513,-6.8436,-6.8513,-6.936,-7.0667,-7.2437,-7.4014,-7.5745,-7.7553,-7.9208,-7.9862,-7.99,-8.0785,-8.0554,-7.99,-8.0785,-8.1093,-8.1093,-8.1093,-8.1093,-8.1093,-8.1093,-8.1093,-8.1093,-8.1093,-8.1093,-8.0939,-8.0092,-7.9862,-7.9669,-7.8784,-7.8554,-7.8361,-7.7553,-7.7361,-7.7361,-7.7361,-7.6707,-7.6592,-7.813,-7.6476,-7.5091,-7.5861,-7.463,-7.3245,-7.2399,-7.2245,-7.1937,-7.1052,-7.1745,-7.286,-7.4437,-7.4954,-7.6453,-7.9446,-7.9198,-7.9286,-8.0125,-8.0125,-7.985,-7.929,-7.929,-7.9556,-8.0163,-8.0163,-8.0463,-8.1093,-8.1093,-8.0169,-7.8477,-7.8477,-7.7592,-7.6015,-7.6015,-7.6015,-7.6015,-7.6015,-7.6015,-7.6015,-7.6015,-7.7015,-7.8515,-7.8592,-8.0169,-8.2247,-6.1719,-6.2226,-6.2851,-6.3515,-6.3086,-6.2926,-6.3779,-6.5022,-6.6453,-6.8202,-6.9765,-7.1367,-7.3086,-7.3672,-7.4023,-7.4258,-7.5078,-7.5195,-7.4336,-7.4101,-7.4056,-7.4239,-7.2501,-7.1983,-7.3062,-7.1213,-7.0215,-7.0215,-6.9306,-6.884,-6.8847,-6.8783,-6.9013,-6.954,-6.9771,-7.1398,-7.4091,-7.4514,-7.6438,-7.9246,-8.0323,-8.04,-7.99,-8.0785,-8.0554,-7.99,-8.0785,-8.1093,-8.1093,-8.1093,-8.1093,-8.1093,-8.1093,-8.1093,-8.1093,-8.1093,-8.1093,-8.1054,-8.0823,-8.0785,-8.0554,-7.9669,-7.9477,-7.9246,-7.84,-7.8169,-7.8169,-7.8169,-7.8015,-7.7823,-7.763,-7.7053,-7.6476,-7.6053,-7.5091,-7.413,-7.3283,-7.3168,-7.2822,-7.1975,-7.2629,-7.3091,-7.286,-7.5195,-7.7047,-7.79,-7.8961,-7.9934,-8.0817,-8.0241,-8.0098,-8.0608,-8.0608,-8.0681,-8.0855,-8.0855,-8.0959,-8.1093,-8.1093,-8.0169,-7.8477,-7.8477,-7.7592,-7.6015,-7.6015,-7.6015,-7.6015,-7.6015,-7.6015,-7.6015,-7.6015,-7.7015,-7.8669,-7.9939,-8.0862,-8.14,-6.2851,-6.3242,-6.3828,-6.4726,-6.5078,-6.543,-6.5937,-6.6523,-6.7773,-7.0234,-7.1406,-7.2656,-7.4414,-7.4922,-7.5469,-7.625,-7.6758,-7.6836,-7.6328,-7.6523,-7.6562,-7.6328,-7.5165,-7.4848,-7.5469,-7.3642,-7.2502,-7.2112,-7.1175,-7.0484,-7.0129,-7.0041,-7.0251,-7.0617,-7.0979,-7.2349,-7.4466,-7.6005,-7.7861,-7.99,-8.0823,-8.0669,0.0,-8.0323,-7.9977,-7.9285,-7.9785,-8.0439,-8.1093,-8.1093,-8.1093,-8.1093,-8.1093,-8.1093,-8.1093,-8.1093,-8.1093,-8.1093,-8.1093,-8.1093,-8.0977,-8.0477,-8.0362,-8.0131,-7.9285,-7.9054,-7.9054,-7.9054,-7.8746,-7.8592,-7.89,-7.8054,-7.7015,-7.613,-7.5592,-7.4976,-7.413,-7.4014,-7.3707,-7.286,-7.3206,-7.3322,-7.2822,-7.5168,-7.6899,-7.7284,-7.8515,-7.9438,-7.9939,-7.9862,-8.0015,-8.0516,-8.09,-8.1093,-8.1093,-8.1093,-8.1093,-8.1093,-8.1093,-8.0169,-7.8477,-7.8477,-7.7592,-7.6015,-7.6015,-7.6015,-7.6015,-7.6015,-7.6015,-7.6053,-7.6823,-7.7669,-7.8707,-8.0477,-8.1093,-8.1093,-6.4453,-6.457,-6.4922,-6.5781,-6.7383,-6.8594,-6.8828,-6.8242,-6.8867,-7.1953,-7.2422,-7.3164,-7.4922,-7.5781,-7.6875,-7.8515,-7.8672,-7.8672,-7.8672,-7.9297,-7.9375,-7.8672,-7.8672,-7.8672,-7.8672,-7.707,-7.582,-7.4922,-7.3906,-7.293,-7.207,-7.1971,-7.1899,-7.1887,-7.265,-7.3575,-7.4694,-7.7795,-7.9383,-7.9972,-8.0777,-8.0554,-7.9708,-7.9708,-7.9246,-7.8554,-7.8554,-7.9515,-8.0746,-8.0746,-8.0823,-8.0939,-8.0939,-8.1016,-8.1093,-8.1093,-8.1093,-8.1093,-8.1093,-8.1093,-8.1093,-8.1093,-8.1093,-8.09,-8.0131,-7.9977,-7.9977,-7.9977,-7.9361,-7.9246,-8.0669,-7.9015,-7.7169,-7.6322,-7.6245,-7.6053,-7.5284,-7.5207,-7.4861,-7.3937,-7.3937,0.0,-7.3553,-7.5014,-7.6322,-7.7053,-7.7861,-7.8438,-7.8669,-7.9285,-7.9746,-7.9977,-8.0708,-8.1093,-8.1093,-8.1093,-8.1093,-8.1093,-8.1093,-8.0169,-7.8477,-7.8477,-7.7592,-7.6015,-7.6015,-7.6015,-7.6015,-7.6015,-7.6015,-7.6169,-7.7861,-7.8477,-7.8707,-8.0477,-8.1093,-8.1093,-6.5234,-6.5937,-6.6719,-6.7578,-6.914,-7.0742,-7.2187,-7.2265,-7.2656,-7.3984,-7.4765,-7.5898,-7.7617,-7.7969,-7.8437,-7.9414,-7.9492,-7.9492,-7.9492,-7.9609,-7.9648,-7.9492,-7.9492,-7.9492,-7.9492,-7.8555,-7.7617,-7.6758,-7.5859,-7.4961,-7.4101,-7.4058,-7.3976,-7.3817,0.0,-7.5222,-7.7321,-7.8554,-7.9572,-8.0242,-7.9748,-7.9377,-7.9215,-7.9208,-7.9122,-7.9007,-7.9007,-7.8977,-7.8938,-7.8938,-7.9438,-8.0054,-8.0054,-8.0516,-8.1093,-8.1093,-8.1093,-8.1093,-8.1093,-8.1093,-8.1093,-8.1093,-8.1093,-8.1054,-8.09,-8.0862,-8.0862,-8.0862,-8.0746,-8.0516,-8.0092,-7.9092,-7.8015,-7.7207,-7.763,-7.8015,-7.7861,-7.7823,-7.7284,-7.5745,-7.6207,-7.5822,-7.3707,-7.5014,-7.6053,-7.6207,-7.7015,-7.8092,-7.9515,-7.9054,-7.94,-8.0823,-8.1016,-8.1093,-8.1093,-8.1093,-8.1093,-8.1093,-8.1093,-8.0169,-7.8477,-7.8477,-7.7592,-7.6015,-7.6015,-7.6015,-7.6015,-7.6015,-7.6015,-7.6169,-7.7861,-7.8477,-7.8707,-8.0477,-8.1093,-8.1093,-6.7461,-6.793,-6.8476,-6.9336,-7.0898,-7.2461,-7.3789,-7.5117,-7.5976,-7.5937,-7.6328,-7.707,-7.8359,-7.8867,-7.9453,-8.0312,-8.0351,-8.0586,-8.1015,-8.1054,-8.1054,-8.1054,-8.0625,-8.0351,-8.0351,-7.9531,-7.8476,-7.7187,-7.6797,-7.5898,-7.4609,-7.4609,-7.4531,-7.4492,-7.5399,-7.6386,-7.7472,-7.8819,-7.9282,-7.9073,-7.919,-7.894,-7.8441,-7.8425,-7.8154,-7.7788,-7.7788,-7.7672,-7.7643,-7.8507,-7.9092,-7.9438,-7.9446,-7.9638,-8.0015,-8.0477,-8.0516,-8.0516,-8.0977,-8.1093,-8.1093,-8.1093,-8.1093,-8.1093,-8.1093,-8.1093,-8.1093,-8.1093,-8.1093,-8.0823,-7.9977,-7.9092,-7.8361,-7.7977,-7.79,-7.8015,-7.8438,-7.8477,-7.8207,-7.74,-7.7284,-7.6823,-7.5592,-7.5784,-7.6015,-7.6015,-7.6823,-7.7823,-7.9054,-7.8707,-7.9092,-8.04,-8.0862,-8.1093,-8.1093,-8.1093,-8.1093,-8.1093,-8.1093,-8.0169,-7.8477,-7.8477,-7.7592,-7.6015,-7.6015,-7.6015,-7.6015,-7.6015,-7.6015,-7.6169,-7.7861,-7.8477,-7.8707,-8.0477,-8.1093,-8.1093,-6.9609,-6.9844,-7.0234,-7.1094,-7.2851,-7.4375,-7.5039,-7.7187,-7.8437,-7.7578,-7.7617,-7.8047,-7.8945,-7.9609,-8.0312,-8.1211,-8.1289,-8.1562,-8.2265,-8.2304,-8.2304,-8.2304,-8.164,-8.1289,-8.1289,-8.0586,-7.9531,-7.8008,-7.7812,-7.6836,-7.5156,-7.5156,-7.5156,-7.5195,-7.6601,-7.7226,-7.7305,-7.8633,-7.8684,-7.8007,-7.866,-7.8445,-7.765,-7.765,-7.7261,-7.6738,-7.6738,-7.6738,-7.6926,-7.8254,-7.8733,-7.881,-7.8795,-7.8833,-7.9026,-7.97,-7.9939,-8.0092,-8.0746,-8.1093,-8.1208,-8.1208,-8.1208,-8.117,-8.117,-8.1131,-8.1093,-8.1093,-8.1093,-8.0823,-7.9977,-7.94,-7.8977,-7.8823,-7.84,-7.8323,-7.8938,-7.9054,-7.8977,-7.8784,-7.8207,-7.7746,-7.7553,-7.6938,-7.6515,-7.6515,-7.7015,-7.763,-7.8438,-7.8477,-7.89,-7.9785,-8.0477,-8.0823,-8.0823,-8.1016,-8.1093,-8.1093,-8.1093,-8.0169,-7.8477,-7.8477,-7.7592,-7.6015,-7.6015,-7.6015,-7.6015,-7.6015,-7.6092,-7.6438,-7.79,-7.8592,-7.8977,-8.0516,-8.1093,-8.1093,-7.043,-7.1211,-7.2031,-7.289,-7.5156,-7.6875,-7.6953,-7.8437,-7.9297,-7.8476,-7.9023,-7.9805,-8.0664,-8.082,-8.1211,-8.2109,-8.2187,-8.2226,-8.2304,-8.2304,-8.2304,-8.2304,-8.2226,-8.2187,-8.2187,-8.2109,-8.1601,-8.0625,-7.9844,-7.8594,-7.6953,-7.6953,-7.6953,-7.6953,-7.7148,-7.7617,-7.832,-7.7695,-7.7812,-7.8358,-7.7695,-7.7343,-7.7263,-7.7263,-7.7199,-7.7127,-7.7127,-7.7127,-7.7166,-7.7315,-7.7626,-7.7937,-7.7937,-7.8465,-7.9116,-7.9142,-7.9746,-8.0331,-8.0446,-8.1054,-8.1662,-8.1662,-8.1516,-8.1362,-8.1362,-8.1208,-8.1093,-8.1093,-8.1093,-8.0823,-7.9977,-8.04,-8.0592,-7.9823,-8.0285,-8.0785,-8.0862,-8.0862,-8.0554,-7.9785,-7.9631,-7.9246,-7.8438,-7.8284,-7.8246,-7.8246,-7.7669,-7.763,-7.8438,-7.8477,-7.89,-7.9785,-7.99,-7.9939,-7.9939,-8.0708,-8.1093,-8.1093,-8.1093,-8.0169,-7.8477,-7.8477,-7.7592,-7.6015,-7.6015,-7.6015,-7.6015,-7.6015,-7.6476,-7.7284,-7.813,-7.8977,-7.9785,-8.0746,-8.1093,-8.1093,-7.2851,-7.375,-7.4609,-7.5508,-7.6953,-7.8125,-7.8633,-7.9726,-8.0351,-8.0039,-8.0273,-8.082,-8.1679,-8.1797,-8.1914,-8.2265,-8.2304,-8.2304,-8.2304,-8.2304,-8.2304,-8.2304,-8.2304,-8.2304,-8.2304,-8.2304,-8.1875,-8.1015,-8.0117,-7.9101,-7.7969,-7.7969,-7.7969,-7.7969,-7.7969,-7.789,-7.7734,-7.789,-7.789,-7.7695,-7.7344,-7.7187,-7.7187,-7.7187,-7.7217,-7.7218,-7.7218,-7.7218,-7.7218,-7.7218,-7.7296,-7.7453,-7.7453,-7.7609,-7.7863,-7.8358,-7.8659,-7.8977,-7.9498,-8.0235,-8.0916,-8.0916,-8.1265,-8.1562,-8.1561,-8.1516,-8.1439,-8.1285,-8.117,-8.0977,-8.0631,-8.0439,-8.04,-8.0554,-8.0439,-8.0516,-8.1016,-8.1093,-8.0977,-8.0631,-8.0131,-7.9669,-7.9323,-7.8823,-7.8477,-7.8477,-7.8207,-7.8169,-7.8477,-7.9015,-7.9438,-7.9785,-8.0323,-8.0592,-8.0592,-8.0939,-8.1093,-8.1093,-8.1093,-8.0169,-7.8477,-7.8477,-7.7592,-7.6015,-7.6015,-7.6015,-7.6015,-7.6015,-7.6515,-7.7361,-7.8169,-7.9015,-7.99,-8.0785,-8.1093,-8.1093,-7.4805,-7.5898,-7.6914,-7.7773,-7.8672,-7.9414,-8.0,-8.082,-8.1367,-8.1367,-8.1367,-8.1601,-8.2226,-8.2304,-8.2304,-8.2304,-8.2304,-8.2304,-8.2304,-8.2304,-8.2304,-8.2304,-8.2304,-8.2304,-8.2304,-8.2304,-8.1992,-8.1367,-8.0508,-7.9648,-7.8828,-7.8359,-7.8125,-7.8125,-7.8125,-7.7773,-7.7226,-7.7851,-7.7773,-7.7187,-7.7187,-7.7187,-7.7187,-7.7187,-7.7187,-7.7187,-7.7187,-7.7187,-7.7187,-7.7187,-7.7187,-7.7187,-7.7187,-7.7109,-7.7109,-7.7656,-7.7937,-7.8135,-7.8748,-7.9567,-8.0269,-8.0513,-8.0981,-8.148,-8.1708,-8.1748,-8.1655,-8.1424,-8.1323,-8.1246,-8.1131,-8.0631,-8.0439,-8.1016,-8.0592,-8.04,-8.1016,-8.1093,-8.1016,-8.0746,-8.0169,-7.9823,-7.9823,-7.9246,-7.8861,-7.8861,-7.9131,-7.9131,-7.89,-7.9477,-7.9823,-7.9823,-8.04,-8.0708,-8.0708,-8.0977,-8.1093,-8.1093,-8.1093,-8.0169,-7.8477,-7.7977,-7.713,-7.6015,-7.6015,-7.6015,-7.6015,-7.6015,-7.663,-7.7707,-7.8284,-7.9169,-8.0246,-8.0862,-8.1093,-8.1093,-7.5703,-7.7265,-7.8711,-7.9531,-8.039,-8.0976,-8.0976,-8.1719,-8.2265,-8.2265,-8.2265,-8.2304,-8.2304,-8.2304,-8.2304,-8.2304,-8.2304,-8.2304,-8.2304,-8.2304,-8.2304,-8.2304,-8.2304,-8.2304,-8.2304,-8.2304,-8.2304,-8.2265,-8.1406,-8.0547,-7.9648,-7.8008,-7.7226,-7.7226,-7.7226,-7.7226,-7.7187,-7.7226,-7.7226,-7.7187,-7.7187,-7.7187,-7.7187,-7.7187,-7.7187,-7.7187,-7.7187,-7.7187,-7.7187,-7.7187,-7.7187,-7.7187,-7.7187,-7.7187,-7.7187,-7.7226,-7.7812,-7.8476,-7.8515,-7.9101,-7.9922,-8.0781,-8.0859,-8.0925,-8.1805,-8.1836,-8.1621,-8.1466,-8.1554,-8.1554,-8.117,-8.1246,-8.1323,-8.1131,-8.1093,-8.1093,-8.1093,-8.1093,-8.0785,-7.9939,-7.9823,-7.9823,-7.9823,-7.9785,-7.9785,-7.9785,-8.0592,-8.0708,-7.9823,-7.9785,-7.9823,-7.9823,-7.9823,-7.9823,-7.9823,-8.0669,-8.1093,-8.1093,-8.1093,-8.0169,-7.8438,-7.6784,-7.6015,-7.6015,-7.6015,-7.6015,-7.6015,-7.6015,-7.6976,-7.8477,-7.8477,-7.9554,-8.1093,-8.1093,-8.1093,-8.1093,-7.6481,-7.75,-7.8594,-7.9531,-8.0429,-8.1211,-8.1797,-8.2109,-8.2304,-8.2304,-8.2304,-8.2304,-8.2304,-8.2304,-8.2304,-8.2304,-8.2304,-8.2304,-8.2304,-8.2304,-8.2304,-8.2304,-8.2304,-8.2304,-8.2304,-8.2304,-8.2304,-8.2304,-8.082,-7.9687,-7.8867,-7.7734,-7.7539,-7.8047,-7.7461,-7.7187,-7.7187,-7.7187,-7.7187,-7.7187,-7.7187,-7.7187,-7.7187,-7.7187,-7.7187,-7.7187,-7.7187,-7.7187,-7.7187,-7.7187,-7.7187,-7.7187,-7.7187,-7.7187,-7.7187,-7.7187,-7.7383,-7.7617,-7.7617,-7.8242,-7.9062,-7.9922,-8.0508,-8.1132,-8.2007,-8.2037,-8.1909,-8.1802,-8.1773,-8.1658,-8.1536,-8.1581,-8.1554,-8.1516,-8.1516,-8.1516,-8.1516,-8.1516,-8.1362,-8.0939,-8.0893,-8.0854,-8.0708,-8.0708,-8.0439,-7.9862,-8.0054,-7.9823,-7.8977,-8.0054,-8.04,-7.9823,-8.04,-8.0708,-8.0708,-8.0977,-8.1093,-8.1093,-8.1093,-8.0169,-7.8438,-7.6746,-7.6015,-7.6015,-7.6015,-7.6015,-7.6015,-7.6015,-7.6976,-7.8477,-7.8477,-7.9554,-8.1093,-8.1093,-8.1093,-8.1093,-7.6754,-7.7762,-7.8801,-7.9452,-8.0039,-8.0703,-8.1679,-8.1797,-8.1914,-8.2265,-8.2304,-8.2304,-8.2304,-8.2304,-8.2304,-8.2304,-8.2304,-8.2304,-8.2304,-8.2304,-8.2304,-8.2304,-8.2304,-8.2304,-8.2304,-8.2304,-8.2148,-8.1797,-8.039,-7.9297,-7.8476,-7.793,-7.7812,-7.8008,-7.7422,-7.7187,-7.7187,-7.7187,-7.7187,-7.7187,-7.7187,-7.7187,-7.7187,-7.7187,-7.7187,-7.7187,-7.7187,-7.7187,-7.7187,-7.7187,-7.7187,-7.7187,-7.7187,-7.7187,-7.7187,-7.7187,-7.7187,-7.7187,-7.7187,-7.7617,-7.8203,-7.9023,-7.9883,-8.082,-8.2031,-8.2187,-8.2109,-8.2031,-8.1967,-8.1892,-8.1742,-8.1753,-8.1794,-8.1722,-8.1672,-8.1672,-8.1672,-8.1672,-8.1517,-8.1092,-8.1031,-8.097,-8.0854,-8.0746,-8.0631,-8.0439,-8.0323,-8.0054,-7.9515,-8.0208,-8.0516,-8.0285,-8.0823,-8.1093,-8.1093,-8.1093,-8.1093,-8.1093,-8.0439,-7.9554,-7.8438,-7.6746,-7.6015,-7.6015,-7.6015,-7.6015,-7.6015,-7.6015,-7.6976,-7.8477,-7.8477,-7.9554,-8.1093,-8.1093,-8.1093,-8.1093,-7.6583,-7.7866,-7.904,-7.9278,-7.9294,-7.9647,-8.0742,-8.0898,-8.1211,-8.2109,-8.2226,-8.2226,-8.2304,-8.2304,-8.2304,-8.2304,-8.2304,-8.2304,-8.2304,-8.2304,-8.2304,-8.2304,-8.2304,-8.2304,-8.2304,-8.2226,-8.1758,-8.082,-8.0,-7.9219,-7.8398,-7.8398,-7.7969,-7.7187,-7.7187,-7.7187,-7.7187,-7.7187,-7.7187,-7.7187,-7.7187,-7.7187,-7.7187,-7.7187,-7.7187,-7.7187,-7.7187,-7.7187,-7.7187,-7.7187,-7.7187,-7.7187,-7.7187,-7.7187,-7.7187,-7.7187,-7.7187,-7.7187,-7.7187,-7.7187,-7.7422,-7.8281,-7.914,-8.0234,-8.1836,-8.2265,-8.2265,-8.207,-8.2187,-8.2175,-8.1831,-8.1897,-8.198,-8.178,-8.1725,-8.1725,-8.1725,-8.1725,-8.1452,-8.0635,-8.0516,-8.0511,-8.0511,-8.0328,-8.053,-8.1246,-8.117,-8.1054,-8.1054,-8.0285,-8.0208,-8.1054,-8.1093,-8.1093,-8.1093,-8.1093,-8.1093,-8.1093,-7.9323,-7.8477,-7.8438,-7.6746,-7.6015,-7.6015,-7.6015,-7.6015,-7.6015,-7.6053,-7.7053,-7.8515,-7.8554,-7.9631,-8.1093,-8.1093,-8.1093,-8.1093,-7.6322,-7.6723,-7.7228,-7.8092,-7.8248,-7.8612,-7.9607,-7.9765,-8.0156,-8.1172,-8.1328,-8.1562,-8.2226,-8.2304,-8.2304,-8.2304,-8.2304,-8.2304,-8.2304,-8.2304,-8.2304,-8.2304,-8.2304,-8.2304,-8.2304,-8.164,-8.0586,-7.9101,-7.8906,-7.8359,-7.75,-7.75,-7.7383,-7.7187,-7.7187,-7.7187,-7.7187,-7.7187,-7.7187,-7.7187,-7.7187,-7.7187,-7.7187,-7.7187,-7.7187,-7.7187,-7.7187,-7.7187,-7.7187,-7.7187,-7.7187,-7.7187,-7.7187,-7.7187,-7.7187,-7.7187,-7.7187,-7.7187,-7.7187,-7.7187,-7.7422,-7.8281,-7.9609,-8.0781,-8.1211,-8.1836,-8.2304,-8.2226,-8.2265,-8.2265,-8.2175,-8.2184,-8.2226,-8.2175,-8.2171,-8.2171,-8.2171,-8.2171,-8.2015,-8.1664,-8.1636,-8.1577,-8.1406,-8.133,-8.1143,-8.0662,-8.0592,-8.0554,-8.0577,-8.0238,-8.0362,-8.1093,-8.1093,-8.1093,-8.1093,-8.1093,-8.1093,-8.1093,-7.9323,-7.8477,-7.8438,-7.6746,-7.6015,-7.6015,-7.6015,-7.6015,-7.6053,-7.6707,-7.7592,-7.8554,-7.9246,-8.0169,-8.1093,-8.1093,-8.1093,-8.1093,-7.613,-7.6169,-7.6361,-7.7044,-7.7176,-7.7526,-7.8557,-7.8711,-7.9079,-8.0055,-8.0225,-8.0469,-8.0937,-8.1054,-8.1094,-8.1094,-8.1836,-8.2304,-8.2304,-8.2304,-8.2304,-8.2304,-8.2304,-8.2109,-8.1719,-8.125,-8.0195,-7.8515,-7.8086,-7.7656,-7.7187,-7.7187,-7.7187,-7.7187,-7.7187,-7.7187,-7.7187,-7.7187,-7.7187,-7.7187,-7.7187,-7.7187,-7.7187,-7.7187,-7.7187,-7.7187,-7.7187,-7.7187,-7.7187,-7.7187,-7.7187,-7.7187,-7.7187,-7.7187,-7.7187,-7.7187,-7.7187,-7.7187,-7.7187,-7.7187,-7.7422,-7.8281,-7.918,-8.0078,-8.082,-8.1367,-8.1836,-8.2226,-8.2304,-8.2304,-8.2304,-8.2304,-8.2304,-8.2304,-8.1953,-8.1836,-8.2226,-8.1953,-8.1797,-8.2109,-8.2148,-8.2102,-8.1992,-8.1898,-8.1644,-8.1165,-8.1053,-8.0996,-8.1019,-8.088,-8.0963,-8.1239,-8.1131,-8.1093,-8.1093,-8.1093,-8.09,-8.0477,-7.9131,-7.8284,-7.79,-7.6592,-7.6015,-7.6015,-7.6015,-7.6015,-7.6053,-7.6938,-7.7746,-7.8592,-7.9477,-8.0323,-8.1093,-8.1093,-8.1093,-8.1093,-7.6015,-7.6015,-7.6053,-7.6207,-7.6245,-7.6583,-7.7535,-7.765,-7.7982,-7.8876,-7.9101,-7.9239,-7.9368,-7.953,-7.9648,-7.9648,-8.1054,-8.1914,-8.1914,-8.1914,-8.1914,-8.1914,-8.1914,-8.1562,-8.082,-8.0664,-7.9844,-7.8281,-7.7578,-7.7187,-7.7187,-7.7187,-7.7187,-7.7187,-7.7187,-7.7187,-7.7187,-7.7187,-7.7187,-7.7187,-7.7187,-7.7187,-7.7187,-7.7187,-7.7187,-7.7187,-7.7187,-7.7187,-7.7187,-7.7187,-7.7187,-7.7187,-7.7187,-7.7187,-7.7187,-7.7187,-7.7187,-7.7187,-7.7187,-7.7187,-7.7383,-7.8125,-7.8398,-7.8867,-8.0312,-8.082,-8.1211,-8.1953,-8.2226,-8.2304,-8.2304,-8.2304,-8.2265,-8.2148,-8.1601,-8.1406,-8.2031,-8.1562,-8.1484,-8.2226,-8.2304,-8.2304,-8.2304,-8.2148,-8.2031,-8.2031,-8.1906,-8.1792,-8.1812,-8.1758,-8.1659,-8.1508,-8.1285,-8.117,-8.1131,-8.1016,-8.0554,-7.9785,-7.8784,-7.7938,-7.7284,-7.6399,-7.6015,-7.6015,-7.6015,-7.6015,-7.6092,-7.7053,-7.7861,-7.8592,-7.9592,-8.0439,-8.1093,-8.1093,-8.1093,-8.1093,-7.6015,-7.6015,-7.6015,-7.6053,-7.6053,-7.6169,-7.6506,-7.6553,-7.6905,-7.7973,-7.8117,-7.8413,-7.9144,-7.9343,-7.9453,-7.9453,-7.9844,-8.0117,-8.0117,-8.0117,-8.0117,-8.0117,-8.0117,-8.0039,-7.9883,-7.9258,-7.8398,-7.7383,-7.7265,-7.7187,-7.7187,-7.7187,-7.7187,-7.7187,-7.7187,-7.7187,-7.7187,-7.7187,-7.7187,-7.7187,-7.7187,-7.7187,-7.7187,-7.7187,-7.7187,-7.7187,-7.7187,-7.7187,-7.7187,-7.7187,-7.7187,-7.7187,-7.7187,-7.7187,-7.7187,-7.7187,-7.7187,-7.7187,-7.7187,-7.7187,-7.7226,-7.7383,-7.7969,-7.8555,-7.8828,-7.9961,-8.1054,-8.1172,-8.1797,-8.2304,-8.2304,-8.2304,-8.207,-8.1328,-8.1719,-8.1875,-8.1289,-8.1719,-8.2148,-8.2265,-8.2304,-8.2304,-8.2304,-8.2265,-8.2265,-8.2265,-8.2223,-8.2215,-8.2216,-8.203,-8.1931,-8.1924,-8.1739,-8.1516,-8.1362,-8.0592,-8.0092,-7.9785,-7.8246,-7.74,-7.7284,-7.6399,-7.6015,-7.6015,-7.6015,-7.6015,-7.613,-7.7669,-7.84,-7.8669,-8.0285,-8.0977,-8.1093,-8.1093,-8.1093,-8.1093,-7.6015,-7.6015,-7.6015,-7.6015,-7.6015,-7.6015,-7.613,-7.613,-7.6322,-7.6813,-7.6967,-7.7186,-7.7605,-7.7777,-7.787,-7.7879,-7.8074,-7.8203,-7.8203,-7.914,-7.9687,-7.9687,-7.9687,-7.9492,-7.9062,-7.8242,-7.7617,-7.7187,-7.7187,-7.7187,-7.7187,-7.7187,-7.7187,-7.7187,-7.7187,-7.7187,-7.7187,-7.7187,-7.7187,-7.7187,-7.7187,-7.7187,-7.7265,-7.7734,-7.789,-7.7969,-7.8398,-7.8555,-7.8555,-7.8555,-7.8555,-7.8555,-7.8555,-7.8555,-7.8476,-7.8047,-7.7578,-7.7187,-7.7187,-7.7187,-7.7187,-7.7187,-7.75,-7.793,-7.8398,-7.9101,-7.9922,-8.082,-8.1328,-8.1758,-8.2226,-8.2304,-8.2187,-8.1758,-8.164,-8.1601,-8.1679,-8.164,-8.1758,-8.2226,-8.2304,-8.2304,-8.2304,-8.2304,-8.2304,-8.2304,-8.2304,-8.23,-8.228,-8.2202,-8.2167,-8.2173,-8.1879,-8.1453,-8.0849,-8.0453,-7.9746,-7.8707,-7.7938,-7.7323,-7.6899,-7.6399,-7.6169,-7.6169,-7.6053,-7.6015,-7.613,-7.7823,-7.8477,-7.8669,-8.04,-8.1093,-8.1093,-8.1093,-8.1093,-8.1093,-7.6015,-7.6015,-7.6015,-7.6015,-7.6015,-7.6015,-7.6015,-7.6015,-7.6015,-7.6015,-7.613,-7.6207,-7.6207,-7.6399,-7.6533,-7.6516,-7.671,-7.6828,-7.6817,-7.8188,-7.9016,-7.9101,-7.9101,-7.8828,-7.8203,-7.7539,-7.7187,-7.7187,-7.7187,-7.7187,-7.7187,-7.7187,-7.7187,-7.7187,-7.7187,-7.7187,-7.7187,-7.7187,-7.7305,-7.75,-7.75,-7.7617,-7.7851,-7.8515,-7.8789,-7.8867,-7.9492,-7.9687,-7.9687,-7.9687,-7.9687,-7.9687,-7.9687,-7.9687,-7.957,-7.8945,-7.8164,-7.7461,-7.7265,-7.7187,-7.7187,-7.7187,-7.7187,-7.7383,-7.8047,-7.8359,-7.8867,-8.0156,-8.0742,-8.1211,-8.1875,-8.2148,-8.2226,-8.2031,-8.1601,-8.1484,-8.1914,-8.1601,-8.1562,-8.2226,-8.2304,-8.2304,-8.2304,-8.2304,-8.2304,-8.2304,-8.2304,-8.2304,-8.2304,-8.2109,-8.1898,-8.17,-8.1571,-8.1103,-8.0168,-7.999,-7.9172,-7.778,-7.7614,-7.7189,-7.6598,-7.6443,-7.6376,-7.6361,-7.6207,-7.6092,-7.6207,-7.7861,-7.8515,-7.8669,-8.04,-8.1093,-8.1093,-8.1093,-8.1093,-8.1093,-7.6015,-7.6015,-7.6015,-7.6015,-7.6015,-7.6015,-7.6015,-7.6015,-7.6015,-7.6015,-7.6015,-7.6015,-7.6015,-7.6207,-7.6313,-7.6332,-7.6503,-7.6614,-7.6597,-7.6741,-7.6985,-7.7382,-7.7383,-7.7344,-7.7305,-7.7226,-7.7187,-7.7187,-7.7187,-7.7187,-7.7187,-7.7187,-7.7187,-7.7187,-7.7187,-7.7187,-7.7187,-7.7187,-7.7656,-7.8398,-7.8398,-7.8867,-7.9531,-7.9609,-7.9609,-7.9609,-7.9687,-7.9687,-7.9687,-7.9687,-7.9687,-7.9687,-7.9687,-7.9687,-7.9687,-7.9648,-7.9023,-7.8242,-7.7422,-7.7187,-7.7187,-7.7187,-7.7187,-7.7226,-7.7265,-7.793,-7.8555,-7.8672,-7.9922,-8.1015,-8.1094,-8.1758,-8.2031,-8.1211,-8.1719,-8.1953,-8.1211,-8.1758,-8.2226,-8.2304,-8.2304,-8.2304,-8.2304,-8.2304,-8.2304,-8.2304,-8.2304,-8.2304,-8.2304,-8.1523,-8.0742,-7.992,-8.0662,-8.0545,-7.949,-7.8745,-7.8175,-7.7787,-7.7026,-7.6653,-7.6615,-7.6576,-7.6573,-7.6583,-7.6583,-7.6438,-7.6399,-7.8083,-7.8661,-7.8669,-8.04,-8.1093,-8.1093,-8.1093,-8.1093,-8.1093,-7.6015,-7.6015,-7.6015,-7.6015,-7.6015,-7.6015,-7.6015,-7.6015,-7.6015,-7.6015,-7.6015,-7.6015,-7.6015,-7.6053,-7.6092,-7.6092,-7.6284,-7.6426,-7.6413,-7.6529,-7.6738,-7.6991,-7.7148,-7.7187,-7.7187,-7.7187,-7.7187,-7.7187,-7.7187,-7.7187,-7.7187,-7.7187,-7.7187,-7.7187,-7.7187,-7.75,-7.8008,-7.8008,-7.8476,-7.9258,-7.9258,-7.9414,-7.9765,-8.0312,-8.0508,-8.0586,-8.1133,-8.1328,-8.1328,-8.1328,-8.1328,-8.1328,-8.1328,-8.1328,-8.1211,-8.0664,-7.9531,-7.8437,-7.8086,-7.7617,-7.7187,-7.7187,-7.7187,-7.7187,-7.7187,-7.7461,-7.7851,-7.8398,-7.9023,-7.9609,-8.0117,-8.0469,-8.0586,-8.0234,-8.0469,-8.0586,-8.0234,-8.0469,-8.0703,-8.0703,-8.0703,-8.0703,-8.0703,-8.0703,-8.0703,-8.0703,-8.0703,-8.0703,-8.0703,-8.0351,-7.9805,-7.8984,-7.9297,-7.9258,-7.8867,-7.8555,-7.8042,-7.7414,-7.7107,-7.699,-7.699,-7.6834,-7.6794,-7.6777,-7.6648,-7.6865,-7.7387,-7.854,-7.9268,-7.9777,-8.0862,-8.1285,-8.1246,-8.1131,-8.1093,-8.1093,-7.6015,-7.6015,-7.6015,-7.6015,-7.6015,-7.6015,-7.6015,-7.6015,-7.6015,-7.6015,-7.6015,-7.6015,-7.6015,-7.6015,-7.6015,-7.6015,-7.613,-7.6207,-7.6207,-7.6361,-7.6604,-7.6795,-7.6922,-7.7055,-7.7109,-7.7109,-7.7148,-7.7187,-7.7187,-7.7187,-7.7187,-7.7187,-7.7344,-7.7617,-7.7617,-7.8086,-7.8867,-7.8867,-7.9336,-8.0117,-8.0117,-8.0273,-8.0586,-8.1172,-8.1406,-8.1484,-8.2109,-8.2304,-8.2304,-8.2304,-8.2304,-8.2304,-8.2304,-8.2304,-8.2148,-8.125,-8.0195,-7.918,-7.8633,-7.8047,-7.7539,-7.7265,-7.7187,-7.7187,-7.7187,-7.7187,-7.7383,-7.7969,-7.832,-7.8672,-7.9219,-7.9531,-7.9687,-7.9687,-7.9687,-7.9687,-7.9687,-7.9687,-7.9687,-7.9687,-7.9687,-7.9687,-7.9687,-7.9687,-7.9687,-7.9687,-7.9687,-7.9609,-7.9336,-7.9336,-7.8945,-7.8125,-7.8086,-7.8086,-7.8086,-7.8086,-7.7773,-7.7187,-7.7187,-7.7187,-7.7187,-7.707,-7.6992,-7.6992,-7.716,-7.7482,-7.8096,-7.917,-7.9903,-8.0448,-8.1195,-8.1484,-8.1477,-8.1323,-8.1285,-8.1285,-7.6015,-7.6015,-7.6015,-7.6015,-7.6015,-7.6015,-7.6015,-7.6015,-7.6015,-7.6015,-7.6015,-7.6015,-7.6015,-7.6015,-7.6015,-7.6015,-7.6015,-7.6015,-7.6015,-7.6207,-7.6417,-7.6606,-7.6621,-7.6692,-7.6875,-7.6914,-7.6992,-7.7187,-7.7187,-7.7187,-7.7226,-7.7226,-7.7656,-7.8515,-7.8515,-7.8945,-7.9726,-7.9726,-8.0195,-8.1015,-8.1015,-8.1523,-8.2304,-8.2304,-8.2304,-8.2304,-8.2304,-8.2304,-8.2304,-8.2304,-8.2304,-8.2304,-8.2304,-8.2304,-8.2148,-8.125,-8.1015,-8.0625,-7.8984,-7.8515,-7.8281,-7.7422,-7.7187,-7.7187,-7.7187,-7.7187,-7.7187,-7.7187,-7.789,-7.8476,-7.8476,-7.914,-7.9687,-7.9687,-7.9687,-7.9687,-7.9687,-7.9687,-7.9687,-7.9687,-7.9687,-7.9687,-7.9687,-7.9687,-7.9687,-7.9687,-7.9687,-7.9336,-7.8515,-7.8476,-7.8086,-7.7226,-7.7187,-7.7187,-7.7187,-7.7187,-7.7187,-7.7187,-7.7187,-7.7187,-7.7187,-7.7187,-7.7187,-7.7265,-7.8125,-7.8398,-7.8359,-8.0,-8.0582,-8.0504,-8.1384,-8.1691,-8.1701,-8.1701,-8.1701,-8.1701,-7.6015,-7.6015,-7.6015,-7.6015,-7.6015,-7.6015,-7.6015,-7.6015,-7.6015,-7.6015,-7.6015,-7.6015,-7.6015,-7.6015,-7.6015,-7.6015,-7.6015,-7.6245,-7.6861,-7.7476,-7.7862,-7.7936,-7.7074,-7.663,-7.669,-7.6689,-7.677,-7.6992,-7.6992,-7.7383,-7.8125,-7.8125,-7.8555,-7.9336,-7.9336,-7.9805,-8.0625,-8.0625,-8.1133,-8.1914,-8.1914,-8.207,-8.2304,-8.2304,-8.2304,-8.2304,-8.2304,-8.2304,-8.2304,-8.2304,-8.2304,-8.2304,-8.2304,-8.2304,-8.2265,-8.1992,-8.1484,-8.0898,-8.039,-7.9414,-7.8281,-7.7422,-7.7187,-7.7187,-7.7187,-7.7187,-7.7187,-7.7187,-7.7422,-7.7578,-7.7578,-7.7773,-7.7969,-7.7969,-7.7969,-7.7969,-7.7969,-7.7969,-7.7969,-7.7969,-7.7969,-7.7969,-7.7969,-7.7969,-7.7969,-7.7969,-7.7969,-7.7851,-7.7617,-7.7578,-7.7461,-7.7226,-7.7187,-7.7187,-7.7187,-7.7187,-7.7187,-7.7187,-7.7187,-7.7187,-7.7187,-7.7187,-7.7187,-7.7265,-7.8125,-7.8789,-7.9336,-8.0469,-8.1247,-8.1734,-8.1847,-8.1897,-8.1899,-8.1753,-8.1698,-8.1698,-7.6015,-7.6015,-7.6015,-7.6015,-7.6015,-7.6015,-7.6015,-7.6015,-7.6015,-7.6015,-7.6284,-7.6515,-7.6515,-7.6784,-7.6976,-7.6976,-7.6976,-7.7207,-7.7746,-7.8207,-7.8477,-7.8477,-7.7746,-7.7391,-7.7468,-7.7481,-7.758,-7.7779,-7.7762,-7.8141,-7.8867,-7.8867,-7.9336,-8.0195,-8.0195,-8.0703,-8.1523,-8.1523,-8.1836,-8.2304,-8.2304,-8.2304,-8.2304,-8.2304,-8.2304,-8.2304,-8.2304,-8.2304,-8.2304,-8.2304,-8.2304,-8.2304,-8.2304,-8.2304,-8.2304,-8.2304,-8.1914,-8.1445,-8.1094,-8.0273,-7.9297,-7.8398,-7.7695,-7.7187,-7.7187,-7.7187,-7.7187,-7.7187,-7.7187,-7.7187,-7.7187,-7.7187,-7.7187,-7.7187,-7.7187,-7.7187,-7.7187,-7.7187,-7.7187,-7.7187,-7.7187,-7.7187,-7.7187,-7.7187,-7.7187,-7.7187,-7.7187,-7.7187,-7.7187,-7.7187,-7.7187,-7.7187,-7.7187,-7.7187,-7.7187,-7.7187,-7.7187,-7.7187,-7.7187,-7.7187,-7.7187,-7.7187,-7.7383,-7.7773,-7.8594,-7.9453,-8.0273,-8.1133,-8.1836,-8.2304,-8.2187,-8.2109,-8.2108,-8.1968,-8.1958,-8.1958,-7.6015,-7.6015,-7.6015,-7.6015,-7.6015,-7.6015,-7.6015,-7.6053,-7.613,-7.613,-7.6861,-7.74,-7.74,-7.8054,-7.8477,-7.8477,-7.8554,-7.8631,-7.8631,-7.8669,-7.8707,-7.8707,-7.8707,-7.8823,-7.9007,-7.8853,-7.8853,-7.9084,-7.9055,-7.922,-7.9483,-7.9487,-8.0036,-8.1053,-8.1093,-8.1523,-8.2265,-8.2304,-8.2304,-8.2304,-8.2304,-8.2304,-8.2304,-8.2304,-8.2304,-8.2304,-8.2304,-8.2304,-8.2304,-8.2304,-8.2304,-8.2304,-8.2304,-8.2304,-8.2304,-8.2304,-8.2304,-8.2148,-8.1328,-8.1054,-8.082,-8.0,-7.8594,-7.7383,-7.7344,-7.7265,-7.7187,-7.7187,-7.7187,-7.7187,-7.7187,-7.7187,-7.7187,-7.7187,-7.7187,-7.7187,-7.7187,-7.7187,-7.7187,-7.7187,-7.7187,-7.7187,-7.7187,-7.7187,-7.7187,-7.7187,-7.7187,-7.7187,-7.7187,-7.7187,-7.7187,-7.7187,-7.7187,-7.7187,-7.7187,-7.7187,-7.7187,-7.7187,-7.7187,-7.7187,-7.7187,-7.7265,-7.7734,-7.8555,-7.9414,-8.0273,-8.1054,-8.1953,-8.2304,-8.2304,-8.2304,-8.2304,-8.2304,-8.2304,-8.2304,-8.2304,-7.6015,-7.6015,-7.6015,-7.6015,-7.6015,-7.6015,-7.6015,-7.6592,-7.7015,-7.7015,-7.7707,-7.8246,-7.8246,-7.84,-7.8477,-7.8477,-7.9131,-7.9515,-7.9515,-8.0169,-8.0554,-8.0554,-8.0554,-8.0554,-8.0592,-7.9246,-7.8669,-7.8861,-7.8854,-7.9327,-8.0174,-8.017,-8.0662,-8.1583,-8.1703,-8.1875,-8.207,-8.2226,-8.2304,-8.2304,-8.2304,-8.2304,-8.2304,-8.2304,-8.2304,-8.2304,-8.2304,-8.2304,-8.2304,-8.2304,-8.2304,-8.2304,-8.2304,-8.2304,-8.2304,-8.2304,-8.2304,-8.2265,-8.207,-8.1523,-8.0937,-8.0781,-7.9922,-7.8984,-7.8359,-7.7695,-7.7187,-7.7187,-7.7187,-7.7187,-7.7187,-7.7187,-7.7187,-7.7187,-7.7187,-7.7187,-7.7187,-7.7187,-7.7187,-7.7187,-7.7187,-7.7187,-7.7187,-7.7187,-7.7187,-7.7187,-7.7187,-7.7187,-7.7187,-7.7187,-7.7187,-7.7187,-7.7187,-7.7187,-7.7187,-7.7187,-7.7187,-7.7187,-7.7187,-7.7187,-7.7226,-7.789,-7.832,-7.8594,-8.0078,-8.082,-8.1054,-8.1953,-8.2304,-8.2304,-8.2304,-8.2304,-8.2304,-8.2304,-8.2304,-8.2304,-7.7169,-7.7169,-7.7169,-7.7169,-7.7169,-7.7169,-7.7169,-7.7592,-7.7861,-7.7861,-7.8592,-7.9131,-7.9131,-7.9477,-7.9746,-7.9746,-8.0169,-8.0439,-8.0439,-8.0862,-8.1093,-8.1093,-8.1093,-8.1093,-8.1093,-8.0208,-7.9785,-7.99,-7.99,-8.0246,-8.0862,-8.0873,-8.1159,-8.1724,-8.1926,-8.1997,-8.1992,-8.2226,-8.2304,-8.2304,-8.2304,-8.2304,-8.2304,-8.2304,-8.2304,-8.2304,-8.2304,-8.2304,-8.2304,-8.2304,-8.2304,-8.2304,-8.2304,-8.2304,-8.2304,-8.2304,-8.2304,-8.2304,-8.2304,-8.1953,-8.1601,-8.1601,-8.0976,-8.0117,-7.9258,-7.8711,-7.8398,-7.8398,-7.8086,-7.7812,-7.7812,-7.7461,-7.7187,-7.7187,-7.7187,-7.7187,-7.7187,-7.7187,-7.7187,-7.7187,-7.7187,-7.7187,-7.7187,-7.7187,-7.7187,-7.7187,-7.7187,-7.7187,-7.7187,-7.7187,-7.7187,-7.7187,-7.7187,-7.7187,-7.7187,-7.7187,-7.7422,-7.7812,-7.7383,-7.7422,-7.7851,-7.8281,-7.8945,-7.9726,-8.0625,-8.125,-8.164,-8.2109,-8.2304,-8.2304,-8.2304,-8.2304,-8.2304,-8.2304,-8.2304,-8.2304,-7.8477,-7.8477,-7.8477,-7.8477,-7.8477,-7.8477,-7.8477,-7.8631,-7.8707,-7.8707,-7.9477,-8.0015,-8.0015,-8.0669,-8.1093,-8.1093,-8.1093,-8.1093,-8.1093,-8.1093,-8.1093,-8.1093,-8.1093,-8.1093,-8.1093,-8.1093,-8.1093,-8.1093,-8.1093,-8.117,-8.1323,-8.1323,-8.1439,-8.1593,-8.1816,-8.191,-8.1946,-8.2147,-8.2265,-8.2304,-8.2304,-8.2304,-8.2304,-8.2304,-8.2304,-8.2304,-8.2304,-8.2304,-8.2304,-8.2304,-8.2304,-8.2304,-8.2304,-8.2304,-8.2304,-8.2304,-8.2304,-8.2304,-8.2304,-8.2304,-8.2304,-8.2304,-8.1758,-8.1015,-8.0312,-7.9922,-7.9687,-7.9687,-7.918,-7.8711,-7.8711,-7.8008,-7.7422,-7.7422,-7.7305,-7.7187,-7.7187,-7.7187,-7.7187,-7.7187,-7.7187,-7.7187,-7.7187,-7.7187,-7.7187,-7.7187,-7.7187,-7.7187,-7.7187,-7.7187,-7.7187,-7.7187,-7.7187,-7.7187,-7.7187,-7.7344,-7.7773,-7.8476,-7.789,-7.8008,-7.8711,-7.8867,-7.9687,-8.1015,-8.1172,-8.164,-8.2304,-8.2304,-8.2304,-8.2304,-8.2304,-8.2304,-8.2304,-8.2304,-8.2304,-8.2304,-7.8477,-7.8477,-7.8477,-7.8477,-7.8477,-7.8477,-7.8477,-7.9131,-7.9631,-7.9631,-8.04,-8.0939,-8.0939,-8.1016,-8.1093,-8.1093,-8.1093,-8.1093,-8.1093,-8.1093,-8.1093,-8.1093,-8.1093,-8.1093,-8.1093,-8.1093,-8.1093,-8.1093,-8.1093,-8.1093,-8.1131,-8.1131,-8.117,-8.117,-8.1362,-8.1567,-8.1741,-8.1972,-8.2148,-8.2304,-8.2304,-8.2304,-8.2304,-8.2304,-8.2304,-8.2304,-8.2304,-8.2304,-8.2304,-8.2304,-8.2304,-8.2304,-8.2304,-8.2304,-8.2304,-8.2304,-8.2304,-8.2304,-8.2304,-8.2304,-8.2304,-8.2304,-8.2226,-8.2109,-8.1992,-8.0781,-7.9687,-7.9687,-7.9609,-7.9531,-7.9531,-7.8867,-7.832,-7.832,-7.7695,-7.7187,-7.7187,-7.7187,-7.7187,-7.7187,-7.7187,-7.7187,-7.7187,-7.7187,-7.7187,-7.7187,-7.7187,-7.7187,-7.7187,-7.7187,-7.7187,-7.7187,-7.7187,-7.7187,-7.7187,-7.7969,-7.8398,-7.8515,-7.9101,-7.9414,-7.957,-8.0312,-8.0781,-8.1054,-8.1797,-8.2187,-8.2304,-8.2304,-8.2304,-8.2304,-8.2304,-8.2304,-8.2304,-8.2304,-8.2304,-8.2304,-7.9939,-7.9939,-7.9939,-7.9939,-7.9939,-7.9939,-7.9939,-8.0285,-8.0516,-8.0516,-8.0862,-8.1093,-8.1093,-8.1093,-8.1093,-8.1093,-8.1093,-8.1093,-8.1093,-8.1093,-8.1093,-8.1093,-8.1093,-8.1093,-8.1093,-8.1093,-8.1093,-8.1093,-8.1093,-8.1093,-8.1093,-8.1093,-8.1093,-8.1093,-8.1285,-8.1456,-8.1562,-8.1728,-8.1954,-8.2148,-8.2148,-8.2187,-8.2304,-8.2304,-8.2304,-8.2304,-8.2304,-8.2304,-8.2304,-8.2304,-8.2304,-8.2304,-8.2304,-8.2304,-8.2304,-8.2304,-8.2304,-8.2304,-8.2304,-8.2304,-8.2304,-8.2304,-8.2304,-8.2304,-8.2304,-8.1719,-8.1133,-8.1133,-8.0781,-8.0429,-8.0429,-7.9726,-7.918,-7.918,-7.8867,-7.8594,-7.8594,-7.8594,-7.8594,-7.8594,-7.8594,-7.8594,-7.8594,-7.8594,-7.8594,-7.8594,-7.8594,-7.8594,-7.8594,-7.8594,-7.8594,-7.8594,-7.8594,-7.8594,-7.8594,-7.8984,-7.9414,-7.9883,-8.0273,-8.0429,-8.0429,-8.082,-8.1289,-8.1758,-8.2148,-8.2304,-8.2304,-8.2304,-8.2304,-8.2304,-8.2304,-8.2304,-8.2304,-8.2304,-8.2304,-8.2304]}]]